<?xml version="1.0" encoding="UTF-8" standalone="no" ?>
<gpx xmlns="http://www.topografix.com/GPX/1/1" xmlns:xsi="http://www.w3.org/2001/XMLSchema-instance" xsi:schemaLocation="http://www.topografix.com/GPX/1/1 http://www.topografix.com/GPX/1/1/gpx.xsd" version="1.1" creator="VisuGPX - https://www.visugpx.com">
  <metadata>
    <name>Col du Dragon - les bras en compote !</name>
  </metadata>
  <trk>
    <name><![CDATA[Col du Dragon - les bras en compote !]]></name>
    <trkseg>
      <trkpt lat="43.86005" lon="7.22917">
        <ele>522.1</ele>
        <time>2019-03-10T12:51:07Z</time>
      </trkpt>
      <trkpt lat="43.86005" lon="7.22917">
        <ele>522.1</ele>
        <time>2019-03-10T12:51:11Z</time>
      </trkpt>
      <trkpt lat="43.86005" lon="7.22917">
        <ele>522.1</ele>
        <time>2019-03-10T12:51:15Z</time>
      </trkpt>
      <trkpt lat="43.86001" lon="7.22903">
        <ele>522.1</ele>
        <time>2019-03-10T12:51:19Z</time>
      </trkpt>
      <trkpt lat="43.85989" lon="7.22897">
        <ele>521.5</ele>
        <time>2019-03-10T12:51:23Z</time>
      </trkpt>
      <trkpt lat="43.85973" lon="7.22898">
        <ele>520.6</ele>
        <time>2019-03-10T12:51:27Z</time>
      </trkpt>
      <trkpt lat="43.85959" lon="7.22898">
        <ele>519.7</ele>
        <time>2019-03-10T12:51:31Z</time>
      </trkpt>
      <trkpt lat="43.85945" lon="7.22899">
        <ele>519</ele>
        <time>2019-03-10T12:51:35Z</time>
      </trkpt>
      <trkpt lat="43.85933" lon="7.22909">
        <ele>518.4</ele>
        <time>2019-03-10T12:51:39Z</time>
      </trkpt>
      <trkpt lat="43.85923" lon="7.22923">
        <ele>517.6</ele>
        <time>2019-03-10T12:51:43Z</time>
      </trkpt>
      <trkpt lat="43.85911" lon="7.22938">
        <ele>516.9</ele>
        <time>2019-03-10T12:51:47Z</time>
      </trkpt>
      <trkpt lat="43.85898" lon="7.22954">
        <ele>516.7</ele>
        <time>2019-03-10T12:51:51Z</time>
      </trkpt>
      <trkpt lat="43.85884" lon="7.22973">
        <ele>516.6</ele>
        <time>2019-03-10T12:51:55Z</time>
      </trkpt>
      <trkpt lat="43.85869" lon="7.22992">
        <ele>516.6</ele>
        <time>2019-03-10T12:51:59Z</time>
      </trkpt>
      <trkpt lat="43.85851" lon="7.23011">
        <ele>517</ele>
        <time>2019-03-10T12:52:03Z</time>
      </trkpt>
      <trkpt lat="43.85829" lon="7.23025">
        <ele>518.4</ele>
        <time>2019-03-10T12:52:07Z</time>
      </trkpt>
      <trkpt lat="43.85807" lon="7.23035">
        <ele>519</ele>
        <time>2019-03-10T12:52:11Z</time>
      </trkpt>
      <trkpt lat="43.85786" lon="7.23035">
        <ele>518.9</ele>
        <time>2019-03-10T12:52:15Z</time>
      </trkpt>
      <trkpt lat="43.85772" lon="7.23032">
        <ele>518.4</ele>
        <time>2019-03-10T12:52:19Z</time>
      </trkpt>
      <trkpt lat="43.85756" lon="7.23028">
        <ele>517.8</ele>
        <time>2019-03-10T12:52:23Z</time>
      </trkpt>
      <trkpt lat="43.85738" lon="7.23025">
        <ele>517.5</ele>
        <time>2019-03-10T12:52:27Z</time>
      </trkpt>
      <trkpt lat="43.8572" lon="7.23026">
        <ele>516.6</ele>
        <time>2019-03-10T12:52:31Z</time>
      </trkpt>
      <trkpt lat="43.85702" lon="7.23034">
        <ele>516.6</ele>
        <time>2019-03-10T12:52:35Z</time>
      </trkpt>
      <trkpt lat="43.85684" lon="7.23044">
        <ele>516.8</ele>
        <time>2019-03-10T12:52:39Z</time>
      </trkpt>
      <trkpt lat="43.85668" lon="7.23055">
        <ele>518.1</ele>
        <time>2019-03-10T12:52:43Z</time>
      </trkpt>
      <trkpt lat="43.85654" lon="7.23071">
        <ele>519.1</ele>
        <time>2019-03-10T12:52:47Z</time>
      </trkpt>
      <trkpt lat="43.85644" lon="7.23084">
        <ele>520.2</ele>
        <time>2019-03-10T12:52:51Z</time>
      </trkpt>
      <trkpt lat="43.85631" lon="7.23097">
        <ele>520.7</ele>
        <time>2019-03-10T12:52:55Z</time>
      </trkpt>
      <trkpt lat="43.85623" lon="7.23111">
        <ele>522.7</ele>
        <time>2019-03-10T12:52:59Z</time>
      </trkpt>
      <trkpt lat="43.85626" lon="7.23124">
        <ele>524.7</ele>
        <time>2019-03-10T12:53:03Z</time>
      </trkpt>
      <trkpt lat="43.85617" lon="7.23132">
        <ele>524.7</ele>
        <time>2019-03-10T12:53:07Z</time>
      </trkpt>
      <trkpt lat="43.85612" lon="7.23137">
        <ele>524.4</ele>
        <time>2019-03-10T12:53:11Z</time>
      </trkpt>
      <trkpt lat="43.85605" lon="7.23143">
        <ele>524.2</ele>
        <time>2019-03-10T12:53:15Z</time>
      </trkpt>
      <trkpt lat="43.85598" lon="7.23148">
        <ele>524</ele>
        <time>2019-03-10T12:53:19Z</time>
      </trkpt>
      <trkpt lat="43.85589" lon="7.23156">
        <ele>524.1</ele>
        <time>2019-03-10T12:53:23Z</time>
      </trkpt>
      <trkpt lat="43.85578" lon="7.23159">
        <ele>523.4</ele>
        <time>2019-03-10T12:53:27Z</time>
      </trkpt>
      <trkpt lat="43.8557" lon="7.23166">
        <ele>523.4</ele>
        <time>2019-03-10T12:53:31Z</time>
      </trkpt>
      <trkpt lat="43.85565" lon="7.23173">
        <ele>523.8</ele>
        <time>2019-03-10T12:53:35Z</time>
      </trkpt>
      <trkpt lat="43.85559" lon="7.23184">
        <ele>524.7</ele>
        <time>2019-03-10T12:53:39Z</time>
      </trkpt>
      <trkpt lat="43.85552" lon="7.23195">
        <ele>525</ele>
        <time>2019-03-10T12:53:43Z</time>
      </trkpt>
      <trkpt lat="43.85544" lon="7.23208">
        <ele>525.6</ele>
        <time>2019-03-10T12:53:47Z</time>
      </trkpt>
      <trkpt lat="43.85533" lon="7.23223">
        <ele>527.1</ele>
        <time>2019-03-10T12:53:51Z</time>
      </trkpt>
      <trkpt lat="43.85524" lon="7.23235">
        <ele>527.4</ele>
        <time>2019-03-10T12:53:55Z</time>
      </trkpt>
      <trkpt lat="43.85518" lon="7.2326">
        <ele>530</ele>
        <time>2019-03-10T12:53:59Z</time>
      </trkpt>
      <trkpt lat="43.85511" lon="7.23277">
        <ele>531.8</ele>
        <time>2019-03-10T12:54:03Z</time>
      </trkpt>
      <trkpt lat="43.85498" lon="7.23284">
        <ele>531.7</ele>
        <time>2019-03-10T12:54:07Z</time>
      </trkpt>
      <trkpt lat="43.85488" lon="7.23295">
        <ele>531.7</ele>
        <time>2019-03-10T12:54:11Z</time>
      </trkpt>
      <trkpt lat="43.85491" lon="7.2332">
        <ele>535.7</ele>
        <time>2019-03-10T12:54:15Z</time>
      </trkpt>
      <trkpt lat="43.85487" lon="7.23334">
        <ele>537.4</ele>
        <time>2019-03-10T12:54:19Z</time>
      </trkpt>
      <trkpt lat="43.85487" lon="7.23354">
        <ele>540.7</ele>
        <time>2019-03-10T12:54:23Z</time>
      </trkpt>
      <trkpt lat="43.85481" lon="7.23365">
        <ele>541.9</ele>
        <time>2019-03-10T12:54:27Z</time>
      </trkpt>
      <trkpt lat="43.85474" lon="7.23377">
        <ele>543</ele>
        <time>2019-03-10T12:54:31Z</time>
      </trkpt>
      <trkpt lat="43.85466" lon="7.23386">
        <ele>542.8</ele>
        <time>2019-03-10T12:54:35Z</time>
      </trkpt>
      <trkpt lat="43.85458" lon="7.23396">
        <ele>542.7</ele>
        <time>2019-03-10T12:54:39Z</time>
      </trkpt>
      <trkpt lat="43.85454" lon="7.23408">
        <ele>544.3</ele>
        <time>2019-03-10T12:54:43Z</time>
      </trkpt>
      <trkpt lat="43.85451" lon="7.23425">
        <ele>546.6</ele>
        <time>2019-03-10T12:54:47Z</time>
      </trkpt>
      <trkpt lat="43.85443" lon="7.23432">
        <ele>547.1</ele>
        <time>2019-03-10T12:54:51Z</time>
      </trkpt>
      <trkpt lat="43.8543" lon="7.23439">
        <ele>547.7</ele>
        <time>2019-03-10T12:54:55Z</time>
      </trkpt>
      <trkpt lat="43.85421" lon="7.23444">
        <ele>548.1</ele>
        <time>2019-03-10T12:54:59Z</time>
      </trkpt>
      <trkpt lat="43.85413" lon="7.23448">
        <ele>548.5</ele>
        <time>2019-03-10T12:55:03Z</time>
      </trkpt>
      <trkpt lat="43.85403" lon="7.23452">
        <ele>548.9</ele>
        <time>2019-03-10T12:55:07Z</time>
      </trkpt>
      <trkpt lat="43.85396" lon="7.23461">
        <ele>549.4</ele>
        <time>2019-03-10T12:55:11Z</time>
      </trkpt>
      <trkpt lat="43.8539" lon="7.23474">
        <ele>549.9</ele>
        <time>2019-03-10T12:55:15Z</time>
      </trkpt>
      <trkpt lat="43.85383" lon="7.23483">
        <ele>550.5</ele>
        <time>2019-03-10T12:55:19Z</time>
      </trkpt>
      <trkpt lat="43.85377" lon="7.23493">
        <ele>551</ele>
        <time>2019-03-10T12:55:23Z</time>
      </trkpt>
      <trkpt lat="43.85372" lon="7.23503">
        <ele>551.3</ele>
        <time>2019-03-10T12:55:27Z</time>
      </trkpt>
      <trkpt lat="43.85366" lon="7.23513">
        <ele>551.7</ele>
        <time>2019-03-10T12:55:31Z</time>
      </trkpt>
      <trkpt lat="43.8536" lon="7.23524">
        <ele>552.3</ele>
        <time>2019-03-10T12:55:35Z</time>
      </trkpt>
      <trkpt lat="43.85355" lon="7.23536">
        <ele>553.1</ele>
        <time>2019-03-10T12:55:39Z</time>
      </trkpt>
      <trkpt lat="43.8535" lon="7.23548">
        <ele>553.8</ele>
        <time>2019-03-10T12:55:43Z</time>
      </trkpt>
      <trkpt lat="43.85346" lon="7.23559">
        <ele>554.5</ele>
        <time>2019-03-10T12:55:47Z</time>
      </trkpt>
      <trkpt lat="43.85342" lon="7.23571">
        <ele>555.1</ele>
        <time>2019-03-10T12:55:51Z</time>
      </trkpt>
      <trkpt lat="43.85338" lon="7.23584">
        <ele>555.9</ele>
        <time>2019-03-10T12:55:55Z</time>
      </trkpt>
      <trkpt lat="43.85334" lon="7.23596">
        <ele>556.7</ele>
        <time>2019-03-10T12:55:59Z</time>
      </trkpt>
      <trkpt lat="43.85331" lon="7.23607">
        <ele>557.6</ele>
        <time>2019-03-10T12:56:03Z</time>
      </trkpt>
      <trkpt lat="43.85329" lon="7.23619">
        <ele>558.5</ele>
        <time>2019-03-10T12:56:07Z</time>
      </trkpt>
      <trkpt lat="43.85328" lon="7.23633">
        <ele>559.4</ele>
        <time>2019-03-10T12:56:11Z</time>
      </trkpt>
      <trkpt lat="43.85324" lon="7.23645">
        <ele>560.2</ele>
        <time>2019-03-10T12:56:15Z</time>
      </trkpt>
      <trkpt lat="43.85326" lon="7.23659">
        <ele>561.1</ele>
        <time>2019-03-10T12:56:19Z</time>
      </trkpt>
      <trkpt lat="43.85326" lon="7.23671">
        <ele>562</ele>
        <time>2019-03-10T12:56:23Z</time>
      </trkpt>
      <trkpt lat="43.85327" lon="7.23683">
        <ele>562.7</ele>
        <time>2019-03-10T12:56:27Z</time>
      </trkpt>
      <trkpt lat="43.85328" lon="7.23695">
        <ele>563.4</ele>
        <time>2019-03-10T12:56:31Z</time>
      </trkpt>
      <trkpt lat="43.8533" lon="7.23708">
        <ele>564</ele>
        <time>2019-03-10T12:56:35Z</time>
      </trkpt>
      <trkpt lat="43.85332" lon="7.23721">
        <ele>564.6</ele>
        <time>2019-03-10T12:56:39Z</time>
      </trkpt>
      <trkpt lat="43.85329" lon="7.23733">
        <ele>565.2</ele>
        <time>2019-03-10T12:56:43Z</time>
      </trkpt>
      <trkpt lat="43.85328" lon="7.23749">
        <ele>565.9</ele>
        <time>2019-03-10T12:56:47Z</time>
      </trkpt>
      <trkpt lat="43.85326" lon="7.23762">
        <ele>566.4</ele>
        <time>2019-03-10T12:56:51Z</time>
      </trkpt>
      <trkpt lat="43.85326" lon="7.23775">
        <ele>566.8</ele>
        <time>2019-03-10T12:56:55Z</time>
      </trkpt>
      <trkpt lat="43.85326" lon="7.23789">
        <ele>567.3</ele>
        <time>2019-03-10T12:56:59Z</time>
      </trkpt>
      <trkpt lat="43.8533" lon="7.23803">
        <ele>567.8</ele>
        <time>2019-03-10T12:57:03Z</time>
      </trkpt>
      <trkpt lat="43.8533" lon="7.23816">
        <ele>568.2</ele>
        <time>2019-03-10T12:57:07Z</time>
      </trkpt>
      <trkpt lat="43.85334" lon="7.23828">
        <ele>568.6</ele>
        <time>2019-03-10T12:57:11Z</time>
      </trkpt>
      <trkpt lat="43.85335" lon="7.23841">
        <ele>568.8</ele>
        <time>2019-03-10T12:57:15Z</time>
      </trkpt>
      <trkpt lat="43.85338" lon="7.23854">
        <ele>569.2</ele>
        <time>2019-03-10T12:57:19Z</time>
      </trkpt>
      <trkpt lat="43.85339" lon="7.23867">
        <ele>569.4</ele>
        <time>2019-03-10T12:57:23Z</time>
      </trkpt>
      <trkpt lat="43.8534" lon="7.23883">
        <ele>569.8</ele>
        <time>2019-03-10T12:57:27Z</time>
      </trkpt>
      <trkpt lat="43.8534" lon="7.23899">
        <ele>570.2</ele>
        <time>2019-03-10T12:57:31Z</time>
      </trkpt>
      <trkpt lat="43.85341" lon="7.23915">
        <ele>570.8</ele>
        <time>2019-03-10T12:57:35Z</time>
      </trkpt>
      <trkpt lat="43.85343" lon="7.2393">
        <ele>571.3</ele>
        <time>2019-03-10T12:57:39Z</time>
      </trkpt>
      <trkpt lat="43.85345" lon="7.23946">
        <ele>571.9</ele>
        <time>2019-03-10T12:57:43Z</time>
      </trkpt>
      <trkpt lat="43.85346" lon="7.23962">
        <ele>572.5</ele>
        <time>2019-03-10T12:57:47Z</time>
      </trkpt>
      <trkpt lat="43.85347" lon="7.23978">
        <ele>573.1</ele>
        <time>2019-03-10T12:57:51Z</time>
      </trkpt>
      <trkpt lat="43.85349" lon="7.23994">
        <ele>574</ele>
        <time>2019-03-10T12:57:55Z</time>
      </trkpt>
      <trkpt lat="43.8535" lon="7.24008">
        <ele>574.8</ele>
        <time>2019-03-10T12:57:59Z</time>
      </trkpt>
      <trkpt lat="43.85356" lon="7.24023">
        <ele>575.7</ele>
        <time>2019-03-10T12:58:03Z</time>
      </trkpt>
      <trkpt lat="43.85359" lon="7.24035">
        <ele>577.1</ele>
        <time>2019-03-10T12:58:07Z</time>
      </trkpt>
      <trkpt lat="43.8536" lon="7.24046">
        <ele>578</ele>
        <time>2019-03-10T12:58:11Z</time>
      </trkpt>
      <trkpt lat="43.85364" lon="7.2406">
        <ele>579</ele>
        <time>2019-03-10T12:58:15Z</time>
      </trkpt>
      <trkpt lat="43.85368" lon="7.24074">
        <ele>580</ele>
        <time>2019-03-10T12:58:19Z</time>
      </trkpt>
      <trkpt lat="43.85372" lon="7.24087">
        <ele>580.7</ele>
        <time>2019-03-10T12:58:23Z</time>
      </trkpt>
      <trkpt lat="43.85376" lon="7.24102">
        <ele>581.5</ele>
        <time>2019-03-10T12:58:27Z</time>
      </trkpt>
      <trkpt lat="43.85383" lon="7.24118">
        <ele>582.1</ele>
        <time>2019-03-10T12:58:31Z</time>
      </trkpt>
      <trkpt lat="43.85391" lon="7.24131">
        <ele>582.6</ele>
        <time>2019-03-10T12:58:35Z</time>
      </trkpt>
      <trkpt lat="43.85402" lon="7.24143">
        <ele>583.1</ele>
        <time>2019-03-10T12:58:39Z</time>
      </trkpt>
      <trkpt lat="43.85414" lon="7.24155">
        <ele>583.6</ele>
        <time>2019-03-10T12:58:43Z</time>
      </trkpt>
      <trkpt lat="43.85424" lon="7.24166">
        <ele>584.1</ele>
        <time>2019-03-10T12:58:47Z</time>
      </trkpt>
      <trkpt lat="43.85433" lon="7.24176">
        <ele>584.6</ele>
        <time>2019-03-10T12:58:51Z</time>
      </trkpt>
      <trkpt lat="43.85445" lon="7.24185">
        <ele>585.1</ele>
        <time>2019-03-10T12:58:55Z</time>
      </trkpt>
      <trkpt lat="43.8546" lon="7.24192">
        <ele>585.7</ele>
        <time>2019-03-10T12:58:59Z</time>
      </trkpt>
      <trkpt lat="43.85472" lon="7.24202">
        <ele>586.2</ele>
        <time>2019-03-10T12:59:03Z</time>
      </trkpt>
      <trkpt lat="43.85484" lon="7.24213">
        <ele>586.6</ele>
        <time>2019-03-10T12:59:07Z</time>
      </trkpt>
      <trkpt lat="43.8549" lon="7.24228">
        <ele>587</ele>
        <time>2019-03-10T12:59:11Z</time>
      </trkpt>
      <trkpt lat="43.85498" lon="7.24242">
        <ele>587.4</ele>
        <time>2019-03-10T12:59:15Z</time>
      </trkpt>
      <trkpt lat="43.85506" lon="7.24256">
        <ele>587.8</ele>
        <time>2019-03-10T12:59:19Z</time>
      </trkpt>
      <trkpt lat="43.85514" lon="7.24269">
        <ele>588.3</ele>
        <time>2019-03-10T12:59:23Z</time>
      </trkpt>
      <trkpt lat="43.85524" lon="7.2428">
        <ele>588.9</ele>
        <time>2019-03-10T12:59:27Z</time>
      </trkpt>
      <trkpt lat="43.85531" lon="7.24293">
        <ele>589.4</ele>
        <time>2019-03-10T12:59:31Z</time>
      </trkpt>
      <trkpt lat="43.85543" lon="7.24305">
        <ele>590</ele>
        <time>2019-03-10T12:59:35Z</time>
      </trkpt>
      <trkpt lat="43.85553" lon="7.24318">
        <ele>590.4</ele>
        <time>2019-03-10T12:59:39Z</time>
      </trkpt>
      <trkpt lat="43.85564" lon="7.24331">
        <ele>590.8</ele>
        <time>2019-03-10T12:59:43Z</time>
      </trkpt>
      <trkpt lat="43.85576" lon="7.2434">
        <ele>591</ele>
        <time>2019-03-10T12:59:47Z</time>
      </trkpt>
      <trkpt lat="43.85589" lon="7.24345">
        <ele>591.3</ele>
        <time>2019-03-10T12:59:51Z</time>
      </trkpt>
      <trkpt lat="43.85602" lon="7.24347">
        <ele>591.8</ele>
        <time>2019-03-10T12:59:55Z</time>
      </trkpt>
      <trkpt lat="43.85616" lon="7.24344">
        <ele>592.8</ele>
        <time>2019-03-10T12:59:59Z</time>
      </trkpt>
      <trkpt lat="43.85625" lon="7.24347">
        <ele>593.7</ele>
        <time>2019-03-10T13:00:03Z</time>
      </trkpt>
      <trkpt lat="43.8562" lon="7.24359">
        <ele>594.5</ele>
        <time>2019-03-10T13:00:07Z</time>
      </trkpt>
      <trkpt lat="43.85606" lon="7.24371">
        <ele>595.4</ele>
        <time>2019-03-10T13:00:11Z</time>
      </trkpt>
      <trkpt lat="43.85596" lon="7.24379">
        <ele>595.8</ele>
        <time>2019-03-10T13:00:15Z</time>
      </trkpt>
      <trkpt lat="43.85582" lon="7.24395">
        <ele>596.2</ele>
        <time>2019-03-10T13:00:19Z</time>
      </trkpt>
      <trkpt lat="43.85572" lon="7.24409">
        <ele>596.4</ele>
        <time>2019-03-10T13:00:23Z</time>
      </trkpt>
      <trkpt lat="43.85562" lon="7.24422">
        <ele>596.5</ele>
        <time>2019-03-10T13:00:27Z</time>
      </trkpt>
      <trkpt lat="43.85556" lon="7.24434">
        <ele>596.7</ele>
        <time>2019-03-10T13:00:31Z</time>
      </trkpt>
      <trkpt lat="43.85556" lon="7.24434">
        <ele>596.7</ele>
        <time>2019-03-10T13:00:35Z</time>
      </trkpt>
      <trkpt lat="43.85554" lon="7.2444">
        <ele>596.8</ele>
        <time>2019-03-10T13:00:39Z</time>
      </trkpt>
      <trkpt lat="43.85555" lon="7.24451">
        <ele>596.9</ele>
        <time>2019-03-10T13:00:43Z</time>
      </trkpt>
      <trkpt lat="43.8556" lon="7.24465">
        <ele>597.2</ele>
        <time>2019-03-10T13:00:47Z</time>
      </trkpt>
      <trkpt lat="43.85567" lon="7.24483">
        <ele>597.5</ele>
        <time>2019-03-10T13:00:51Z</time>
      </trkpt>
      <trkpt lat="43.85579" lon="7.24495">
        <ele>597.7</ele>
        <time>2019-03-10T13:00:55Z</time>
      </trkpt>
      <trkpt lat="43.85592" lon="7.24504">
        <ele>598</ele>
        <time>2019-03-10T13:00:59Z</time>
      </trkpt>
      <trkpt lat="43.85603" lon="7.24512">
        <ele>598.2</ele>
        <time>2019-03-10T13:01:03Z</time>
      </trkpt>
      <trkpt lat="43.85613" lon="7.24524">
        <ele>598.6</ele>
        <time>2019-03-10T13:01:07Z</time>
      </trkpt>
      <trkpt lat="43.85622" lon="7.24538">
        <ele>599.1</ele>
        <time>2019-03-10T13:01:11Z</time>
      </trkpt>
      <trkpt lat="43.85632" lon="7.24551">
        <ele>599.5</ele>
        <time>2019-03-10T13:01:15Z</time>
      </trkpt>
      <trkpt lat="43.85643" lon="7.24566">
        <ele>600.1</ele>
        <time>2019-03-10T13:01:19Z</time>
      </trkpt>
      <trkpt lat="43.85658" lon="7.24591">
        <ele>600.8</ele>
        <time>2019-03-10T13:01:23Z</time>
      </trkpt>
      <trkpt lat="43.85658" lon="7.24591">
        <ele>600.8</ele>
        <time>2019-03-10T13:01:27Z</time>
      </trkpt>
      <trkpt lat="43.85658" lon="7.24591">
        <ele>600.8</ele>
        <time>2019-03-10T13:01:31Z</time>
      </trkpt>
      <trkpt lat="43.85658" lon="7.24591">
        <ele>600.8</ele>
        <time>2019-03-10T13:01:35Z</time>
      </trkpt>
      <trkpt lat="43.85658" lon="7.24591">
        <ele>600.8</ele>
        <time>2019-03-10T13:01:39Z</time>
      </trkpt>
      <trkpt lat="43.85658" lon="7.24591">
        <ele>600.8</ele>
        <time>2019-03-10T13:01:43Z</time>
      </trkpt>
      <trkpt lat="43.85658" lon="7.24591">
        <ele>600.8</ele>
        <time>2019-03-10T13:01:47Z</time>
      </trkpt>
      <trkpt lat="43.85658" lon="7.24591">
        <ele>600.8</ele>
        <time>2019-03-10T13:01:51Z</time>
      </trkpt>
      <trkpt lat="43.85658" lon="7.24591">
        <ele>600.8</ele>
        <time>2019-03-10T13:01:55Z</time>
      </trkpt>
      <trkpt lat="43.85658" lon="7.24591">
        <ele>600.8</ele>
        <time>2019-03-10T13:01:59Z</time>
      </trkpt>
      <trkpt lat="43.85658" lon="7.24591">
        <ele>600.8</ele>
        <time>2019-03-10T13:02:03Z</time>
      </trkpt>
      <trkpt lat="43.85658" lon="7.24591">
        <ele>600.8</ele>
        <time>2019-03-10T13:02:07Z</time>
      </trkpt>
      <trkpt lat="43.85658" lon="7.24591">
        <ele>600.8</ele>
        <time>2019-03-10T13:02:11Z</time>
      </trkpt>
      <trkpt lat="43.8567" lon="7.24606">
        <ele>601</ele>
        <time>2019-03-10T13:02:15Z</time>
      </trkpt>
      <trkpt lat="43.85675" lon="7.24614">
        <ele>600.9</ele>
        <time>2019-03-10T13:02:19Z</time>
      </trkpt>
      <trkpt lat="43.85684" lon="7.24622">
        <ele>600.8</ele>
        <time>2019-03-10T13:02:23Z</time>
      </trkpt>
      <trkpt lat="43.85693" lon="7.2463">
        <ele>600.7</ele>
        <time>2019-03-10T13:02:27Z</time>
      </trkpt>
      <trkpt lat="43.85703" lon="7.24634">
        <ele>600.7</ele>
        <time>2019-03-10T13:02:31Z</time>
      </trkpt>
      <trkpt lat="43.85712" lon="7.24636">
        <ele>601</ele>
        <time>2019-03-10T13:02:35Z</time>
      </trkpt>
      <trkpt lat="43.85721" lon="7.2464">
        <ele>601.4</ele>
        <time>2019-03-10T13:02:39Z</time>
      </trkpt>
      <trkpt lat="43.85729" lon="7.24645">
        <ele>602</ele>
        <time>2019-03-10T13:02:43Z</time>
      </trkpt>
      <trkpt lat="43.85739" lon="7.2465">
        <ele>602.9</ele>
        <time>2019-03-10T13:02:47Z</time>
      </trkpt>
      <trkpt lat="43.85748" lon="7.24657">
        <ele>604.1</ele>
        <time>2019-03-10T13:02:51Z</time>
      </trkpt>
      <trkpt lat="43.85755" lon="7.24664">
        <ele>605.1</ele>
        <time>2019-03-10T13:02:55Z</time>
      </trkpt>
      <trkpt lat="43.85764" lon="7.2467">
        <ele>606.5</ele>
        <time>2019-03-10T13:02:59Z</time>
      </trkpt>
      <trkpt lat="43.85771" lon="7.24676">
        <ele>607.5</ele>
        <time>2019-03-10T13:03:03Z</time>
      </trkpt>
      <trkpt lat="43.85777" lon="7.24683">
        <ele>608.8</ele>
        <time>2019-03-10T13:03:07Z</time>
      </trkpt>
      <trkpt lat="43.85778" lon="7.24693">
        <ele>610</ele>
        <time>2019-03-10T13:03:11Z</time>
      </trkpt>
      <trkpt lat="43.85779" lon="7.24701">
        <ele>610.9</ele>
        <time>2019-03-10T13:03:15Z</time>
      </trkpt>
      <trkpt lat="43.85783" lon="7.24708">
        <ele>611.9</ele>
        <time>2019-03-10T13:03:19Z</time>
      </trkpt>
      <trkpt lat="43.85788" lon="7.24714">
        <ele>613</ele>
        <time>2019-03-10T13:03:23Z</time>
      </trkpt>
      <trkpt lat="43.85792" lon="7.24723">
        <ele>614.1</ele>
        <time>2019-03-10T13:03:27Z</time>
      </trkpt>
      <trkpt lat="43.85794" lon="7.24732">
        <ele>615.3</ele>
        <time>2019-03-10T13:03:31Z</time>
      </trkpt>
      <trkpt lat="43.85795" lon="7.24742">
        <ele>616.6</ele>
        <time>2019-03-10T13:03:35Z</time>
      </trkpt>
      <trkpt lat="43.858" lon="7.2475">
        <ele>617.8</ele>
        <time>2019-03-10T13:03:39Z</time>
      </trkpt>
      <trkpt lat="43.85809" lon="7.24753">
        <ele>619.2</ele>
        <time>2019-03-10T13:03:43Z</time>
      </trkpt>
      <trkpt lat="43.85816" lon="7.24747">
        <ele>620.2</ele>
        <time>2019-03-10T13:03:47Z</time>
      </trkpt>
      <trkpt lat="43.85816" lon="7.24738">
        <ele>620.9</ele>
        <time>2019-03-10T13:03:51Z</time>
      </trkpt>
      <trkpt lat="43.85814" lon="7.2473">
        <ele>621.5</ele>
        <time>2019-03-10T13:03:55Z</time>
      </trkpt>
      <trkpt lat="43.85813" lon="7.2472">
        <ele>622.2</ele>
        <time>2019-03-10T13:03:59Z</time>
      </trkpt>
      <trkpt lat="43.85812" lon="7.2471">
        <ele>622.8</ele>
        <time>2019-03-10T13:04:03Z</time>
      </trkpt>
      <trkpt lat="43.8581" lon="7.24701">
        <ele>623.3</ele>
        <time>2019-03-10T13:04:07Z</time>
      </trkpt>
      <trkpt lat="43.85809" lon="7.24692">
        <ele>623.7</ele>
        <time>2019-03-10T13:04:11Z</time>
      </trkpt>
      <trkpt lat="43.85808" lon="7.24682">
        <ele>624.2</ele>
        <time>2019-03-10T13:04:15Z</time>
      </trkpt>
      <trkpt lat="43.85806" lon="7.24674">
        <ele>624.5</ele>
        <time>2019-03-10T13:04:19Z</time>
      </trkpt>
      <trkpt lat="43.85805" lon="7.24668">
        <ele>624.8</ele>
        <time>2019-03-10T13:04:23Z</time>
      </trkpt>
      <trkpt lat="43.85809" lon="7.24669">
        <ele>625.1</ele>
        <time>2019-03-10T13:04:27Z</time>
      </trkpt>
      <trkpt lat="43.85812" lon="7.24676">
        <ele>625.6</ele>
        <time>2019-03-10T13:04:31Z</time>
      </trkpt>
      <trkpt lat="43.85814" lon="7.24686">
        <ele>626.1</ele>
        <time>2019-03-10T13:04:35Z</time>
      </trkpt>
      <trkpt lat="43.85818" lon="7.24696">
        <ele>626.8</ele>
        <time>2019-03-10T13:04:39Z</time>
      </trkpt>
      <trkpt lat="43.85822" lon="7.24703">
        <ele>627.4</ele>
        <time>2019-03-10T13:04:43Z</time>
      </trkpt>
      <trkpt lat="43.85826" lon="7.2471">
        <ele>628</ele>
        <time>2019-03-10T13:04:47Z</time>
      </trkpt>
      <trkpt lat="43.8583" lon="7.24718">
        <ele>628.7</ele>
        <time>2019-03-10T13:04:51Z</time>
      </trkpt>
      <trkpt lat="43.85834" lon="7.24725">
        <ele>629.5</ele>
        <time>2019-03-10T13:04:55Z</time>
      </trkpt>
      <trkpt lat="43.85837" lon="7.24732">
        <ele>630.3</ele>
        <time>2019-03-10T13:04:59Z</time>
      </trkpt>
      <trkpt lat="43.85842" lon="7.24738">
        <ele>631.2</ele>
        <time>2019-03-10T13:05:03Z</time>
      </trkpt>
      <trkpt lat="43.85847" lon="7.24743">
        <ele>632.1</ele>
        <time>2019-03-10T13:05:07Z</time>
      </trkpt>
      <trkpt lat="43.85853" lon="7.24747">
        <ele>633.3</ele>
        <time>2019-03-10T13:05:11Z</time>
      </trkpt>
      <trkpt lat="43.85859" lon="7.2475">
        <ele>634.1</ele>
        <time>2019-03-10T13:05:15Z</time>
      </trkpt>
      <trkpt lat="43.85866" lon="7.24747">
        <ele>634.8</ele>
        <time>2019-03-10T13:05:19Z</time>
      </trkpt>
      <trkpt lat="43.85868" lon="7.24737">
        <ele>635.5</ele>
        <time>2019-03-10T13:05:23Z</time>
      </trkpt>
      <trkpt lat="43.85869" lon="7.24727">
        <ele>636</ele>
        <time>2019-03-10T13:05:27Z</time>
      </trkpt>
      <trkpt lat="43.85872" lon="7.24716">
        <ele>636.3</ele>
        <time>2019-03-10T13:05:31Z</time>
      </trkpt>
      <trkpt lat="43.85875" lon="7.24704">
        <ele>636.5</ele>
        <time>2019-03-10T13:05:35Z</time>
      </trkpt>
      <trkpt lat="43.85877" lon="7.24691">
        <ele>636.6</ele>
        <time>2019-03-10T13:05:39Z</time>
      </trkpt>
      <trkpt lat="43.85878" lon="7.24676">
        <ele>636.7</ele>
        <time>2019-03-10T13:05:43Z</time>
      </trkpt>
      <trkpt lat="43.85876" lon="7.2466">
        <ele>636.9</ele>
        <time>2019-03-10T13:05:47Z</time>
      </trkpt>
      <trkpt lat="43.85879" lon="7.24643">
        <ele>637</ele>
        <time>2019-03-10T13:05:51Z</time>
      </trkpt>
      <trkpt lat="43.85888" lon="7.24628">
        <ele>637.3</ele>
        <time>2019-03-10T13:05:55Z</time>
      </trkpt>
      <trkpt lat="43.85898" lon="7.2462">
        <ele>637.7</ele>
        <time>2019-03-10T13:05:59Z</time>
      </trkpt>
      <trkpt lat="43.85908" lon="7.24617">
        <ele>638.2</ele>
        <time>2019-03-10T13:06:03Z</time>
      </trkpt>
      <trkpt lat="43.85915" lon="7.24613">
        <ele>638.7</ele>
        <time>2019-03-10T13:06:07Z</time>
      </trkpt>
      <trkpt lat="43.85923" lon="7.24609">
        <ele>639.4</ele>
        <time>2019-03-10T13:06:11Z</time>
      </trkpt>
      <trkpt lat="43.8593" lon="7.24603">
        <ele>640.1</ele>
        <time>2019-03-10T13:06:15Z</time>
      </trkpt>
      <trkpt lat="43.85936" lon="7.24591">
        <ele>641.1</ele>
        <time>2019-03-10T13:06:19Z</time>
      </trkpt>
      <trkpt lat="43.85938" lon="7.24579">
        <ele>642</ele>
        <time>2019-03-10T13:06:23Z</time>
      </trkpt>
      <trkpt lat="43.8594" lon="7.24566">
        <ele>642.8</ele>
        <time>2019-03-10T13:06:27Z</time>
      </trkpt>
      <trkpt lat="43.85943" lon="7.24554">
        <ele>643.6</ele>
        <time>2019-03-10T13:06:31Z</time>
      </trkpt>
      <trkpt lat="43.85944" lon="7.24542">
        <ele>644.5</ele>
        <time>2019-03-10T13:06:35Z</time>
      </trkpt>
      <trkpt lat="43.85943" lon="7.24529">
        <ele>645.4</ele>
        <time>2019-03-10T13:06:39Z</time>
      </trkpt>
      <trkpt lat="43.85937" lon="7.2452">
        <ele>646.3</ele>
        <time>2019-03-10T13:06:43Z</time>
      </trkpt>
      <trkpt lat="43.85932" lon="7.24513">
        <ele>647</ele>
        <time>2019-03-10T13:06:47Z</time>
      </trkpt>
      <trkpt lat="43.85924" lon="7.24509">
        <ele>648</ele>
        <time>2019-03-10T13:06:51Z</time>
      </trkpt>
      <trkpt lat="43.85917" lon="7.24503">
        <ele>648.6</ele>
        <time>2019-03-10T13:06:55Z</time>
      </trkpt>
      <trkpt lat="43.85919" lon="7.24494">
        <ele>649.2</ele>
        <time>2019-03-10T13:06:59Z</time>
      </trkpt>
      <trkpt lat="43.85925" lon="7.24486">
        <ele>649.9</ele>
        <time>2019-03-10T13:07:03Z</time>
      </trkpt>
      <trkpt lat="43.8593" lon="7.24479">
        <ele>650.8</ele>
        <time>2019-03-10T13:07:07Z</time>
      </trkpt>
      <trkpt lat="43.85934" lon="7.24474">
        <ele>651.4</ele>
        <time>2019-03-10T13:07:11Z</time>
      </trkpt>
      <trkpt lat="43.8594" lon="7.2447">
        <ele>652.1</ele>
        <time>2019-03-10T13:07:15Z</time>
      </trkpt>
      <trkpt lat="43.85947" lon="7.24466">
        <ele>653.2</ele>
        <time>2019-03-10T13:07:19Z</time>
      </trkpt>
      <trkpt lat="43.85953" lon="7.24462">
        <ele>654</ele>
        <time>2019-03-10T13:07:23Z</time>
      </trkpt>
      <trkpt lat="43.85959" lon="7.24459">
        <ele>654.6</ele>
        <time>2019-03-10T13:07:27Z</time>
      </trkpt>
      <trkpt lat="43.85966" lon="7.24455">
        <ele>655.1</ele>
        <time>2019-03-10T13:07:31Z</time>
      </trkpt>
      <trkpt lat="43.85974" lon="7.2445">
        <ele>655.6</ele>
        <time>2019-03-10T13:07:35Z</time>
      </trkpt>
      <trkpt lat="43.85981" lon="7.24443">
        <ele>656.3</ele>
        <time>2019-03-10T13:07:39Z</time>
      </trkpt>
      <trkpt lat="43.85989" lon="7.24437">
        <ele>657</ele>
        <time>2019-03-10T13:07:43Z</time>
      </trkpt>
      <trkpt lat="43.85997" lon="7.2443">
        <ele>657.7</ele>
        <time>2019-03-10T13:07:47Z</time>
      </trkpt>
      <trkpt lat="43.86005" lon="7.24426">
        <ele>658.5</ele>
        <time>2019-03-10T13:07:51Z</time>
      </trkpt>
      <trkpt lat="43.86012" lon="7.24421">
        <ele>659.2</ele>
        <time>2019-03-10T13:07:55Z</time>
      </trkpt>
      <trkpt lat="43.86021" lon="7.24414">
        <ele>660.1</ele>
        <time>2019-03-10T13:07:59Z</time>
      </trkpt>
      <trkpt lat="43.86029" lon="7.24406">
        <ele>661</ele>
        <time>2019-03-10T13:08:03Z</time>
      </trkpt>
      <trkpt lat="43.86036" lon="7.24399">
        <ele>661.9</ele>
        <time>2019-03-10T13:08:07Z</time>
      </trkpt>
      <trkpt lat="43.86043" lon="7.24393">
        <ele>662.7</ele>
        <time>2019-03-10T13:08:11Z</time>
      </trkpt>
      <trkpt lat="43.86051" lon="7.24386">
        <ele>663.5</ele>
        <time>2019-03-10T13:08:15Z</time>
      </trkpt>
      <trkpt lat="43.86057" lon="7.24379">
        <ele>664.3</ele>
        <time>2019-03-10T13:08:19Z</time>
      </trkpt>
      <trkpt lat="43.86064" lon="7.24372">
        <ele>665.1</ele>
        <time>2019-03-10T13:08:23Z</time>
      </trkpt>
      <trkpt lat="43.86072" lon="7.24366">
        <ele>665.8</ele>
        <time>2019-03-10T13:08:27Z</time>
      </trkpt>
      <trkpt lat="43.86079" lon="7.24361">
        <ele>666.5</ele>
        <time>2019-03-10T13:08:31Z</time>
      </trkpt>
      <trkpt lat="43.86085" lon="7.24358">
        <ele>667.2</ele>
        <time>2019-03-10T13:08:35Z</time>
      </trkpt>
      <trkpt lat="43.86093" lon="7.24354">
        <ele>668</ele>
        <time>2019-03-10T13:08:39Z</time>
      </trkpt>
      <trkpt lat="43.86098" lon="7.24351">
        <ele>668.6</ele>
        <time>2019-03-10T13:08:43Z</time>
      </trkpt>
      <trkpt lat="43.86105" lon="7.24349">
        <ele>669.3</ele>
        <time>2019-03-10T13:08:47Z</time>
      </trkpt>
      <trkpt lat="43.86113" lon="7.24349">
        <ele>670.2</ele>
        <time>2019-03-10T13:08:51Z</time>
      </trkpt>
      <trkpt lat="43.86121" lon="7.24348">
        <ele>671</ele>
        <time>2019-03-10T13:08:55Z</time>
      </trkpt>
      <trkpt lat="43.86129" lon="7.24348">
        <ele>671.9</ele>
        <time>2019-03-10T13:08:59Z</time>
      </trkpt>
      <trkpt lat="43.86137" lon="7.24345">
        <ele>672.9</ele>
        <time>2019-03-10T13:09:03Z</time>
      </trkpt>
      <trkpt lat="43.86143" lon="7.24341">
        <ele>673.6</ele>
        <time>2019-03-10T13:09:07Z</time>
      </trkpt>
      <trkpt lat="43.86149" lon="7.24335">
        <ele>674.2</ele>
        <time>2019-03-10T13:09:11Z</time>
      </trkpt>
      <trkpt lat="43.86156" lon="7.24327">
        <ele>674.9</ele>
        <time>2019-03-10T13:09:15Z</time>
      </trkpt>
      <trkpt lat="43.8616" lon="7.2432">
        <ele>675.5</ele>
        <time>2019-03-10T13:09:19Z</time>
      </trkpt>
      <trkpt lat="43.86164" lon="7.24309">
        <ele>676.1</ele>
        <time>2019-03-10T13:09:23Z</time>
      </trkpt>
      <trkpt lat="43.86163" lon="7.24298">
        <ele>676.7</ele>
        <time>2019-03-10T13:09:27Z</time>
      </trkpt>
      <trkpt lat="43.86162" lon="7.24288">
        <ele>677.4</ele>
        <time>2019-03-10T13:09:31Z</time>
      </trkpt>
      <trkpt lat="43.86162" lon="7.24277">
        <ele>678.2</ele>
        <time>2019-03-10T13:09:35Z</time>
      </trkpt>
      <trkpt lat="43.86165" lon="7.24266">
        <ele>679</ele>
        <time>2019-03-10T13:09:39Z</time>
      </trkpt>
      <trkpt lat="43.86168" lon="7.24256">
        <ele>679.8</ele>
        <time>2019-03-10T13:09:43Z</time>
      </trkpt>
      <trkpt lat="43.86171" lon="7.24246">
        <ele>680.5</ele>
        <time>2019-03-10T13:09:47Z</time>
      </trkpt>
      <trkpt lat="43.86176" lon="7.24235">
        <ele>681.2</ele>
        <time>2019-03-10T13:09:51Z</time>
      </trkpt>
      <trkpt lat="43.8618" lon="7.24226">
        <ele>681.8</ele>
        <time>2019-03-10T13:09:55Z</time>
      </trkpt>
      <trkpt lat="43.86184" lon="7.24218">
        <ele>682.4</ele>
        <time>2019-03-10T13:09:59Z</time>
      </trkpt>
      <trkpt lat="43.86184" lon="7.24218">
        <ele>682.4</ele>
        <time>2019-03-10T13:10:03Z</time>
      </trkpt>
      <trkpt lat="43.86184" lon="7.24218">
        <ele>682.4</ele>
        <time>2019-03-10T13:10:07Z</time>
      </trkpt>
      <trkpt lat="43.86184" lon="7.24218">
        <ele>682.4</ele>
        <time>2019-03-10T13:10:11Z</time>
      </trkpt>
      <trkpt lat="43.86184" lon="7.24218">
        <ele>682.4</ele>
        <time>2019-03-10T13:10:15Z</time>
      </trkpt>
      <trkpt lat="43.86184" lon="7.24218">
        <ele>682.4</ele>
        <time>2019-03-10T13:10:19Z</time>
      </trkpt>
      <trkpt lat="43.86184" lon="7.24218">
        <ele>682.4</ele>
        <time>2019-03-10T13:10:23Z</time>
      </trkpt>
      <trkpt lat="43.86184" lon="7.24218">
        <ele>682.4</ele>
        <time>2019-03-10T13:10:27Z</time>
      </trkpt>
      <trkpt lat="43.86184" lon="7.24218">
        <ele>682.4</ele>
        <time>2019-03-10T13:10:31Z</time>
      </trkpt>
      <trkpt lat="43.86184" lon="7.24218">
        <ele>682.4</ele>
        <time>2019-03-10T13:10:35Z</time>
      </trkpt>
      <trkpt lat="43.86184" lon="7.24218">
        <ele>682.4</ele>
        <time>2019-03-10T13:10:39Z</time>
      </trkpt>
      <trkpt lat="43.86184" lon="7.24218">
        <ele>682.4</ele>
        <time>2019-03-10T13:10:43Z</time>
      </trkpt>
      <trkpt lat="43.86194" lon="7.24207">
        <ele>683.5</ele>
        <time>2019-03-10T13:10:47Z</time>
      </trkpt>
      <trkpt lat="43.86195" lon="7.24204">
        <ele>683.7</ele>
        <time>2019-03-10T13:10:51Z</time>
      </trkpt>
      <trkpt lat="43.86195" lon="7.24197">
        <ele>684.1</ele>
        <time>2019-03-10T13:10:55Z</time>
      </trkpt>
      <trkpt lat="43.86196" lon="7.24189">
        <ele>684.2</ele>
        <time>2019-03-10T13:10:59Z</time>
      </trkpt>
      <trkpt lat="43.86199" lon="7.24179">
        <ele>684.2</ele>
        <time>2019-03-10T13:11:03Z</time>
      </trkpt>
      <trkpt lat="43.86197" lon="7.24169">
        <ele>683.9</ele>
        <time>2019-03-10T13:11:07Z</time>
      </trkpt>
      <trkpt lat="43.86192" lon="7.24157">
        <ele>683.4</ele>
        <time>2019-03-10T13:11:11Z</time>
      </trkpt>
      <trkpt lat="43.86184" lon="7.24146">
        <ele>682.5</ele>
        <time>2019-03-10T13:11:15Z</time>
      </trkpt>
      <trkpt lat="43.86174" lon="7.24136">
        <ele>681.5</ele>
        <time>2019-03-10T13:11:19Z</time>
      </trkpt>
      <trkpt lat="43.86166" lon="7.24126">
        <ele>680.9</ele>
        <time>2019-03-10T13:11:23Z</time>
      </trkpt>
      <trkpt lat="43.86156" lon="7.24115">
        <ele>681.1</ele>
        <time>2019-03-10T13:11:27Z</time>
      </trkpt>
      <trkpt lat="43.86154" lon="7.24099">
        <ele>681.7</ele>
        <time>2019-03-10T13:11:31Z</time>
      </trkpt>
      <trkpt lat="43.86154" lon="7.24084">
        <ele>682.3</ele>
        <time>2019-03-10T13:11:35Z</time>
      </trkpt>
      <trkpt lat="43.86159" lon="7.2407">
        <ele>682.7</ele>
        <time>2019-03-10T13:11:39Z</time>
      </trkpt>
      <trkpt lat="43.86166" lon="7.24057">
        <ele>682.8</ele>
        <time>2019-03-10T13:11:43Z</time>
      </trkpt>
      <trkpt lat="43.86175" lon="7.24041">
        <ele>682.8</ele>
        <time>2019-03-10T13:11:47Z</time>
      </trkpt>
      <trkpt lat="43.86184" lon="7.24023">
        <ele>682.9</ele>
        <time>2019-03-10T13:11:51Z</time>
      </trkpt>
      <trkpt lat="43.86194" lon="7.24005">
        <ele>683</ele>
        <time>2019-03-10T13:11:55Z</time>
      </trkpt>
      <trkpt lat="43.86195" lon="7.23983">
        <ele>683.3</ele>
        <time>2019-03-10T13:11:59Z</time>
      </trkpt>
      <trkpt lat="43.86196" lon="7.23961">
        <ele>683.8</ele>
        <time>2019-03-10T13:12:03Z</time>
      </trkpt>
      <trkpt lat="43.86208" lon="7.23946">
        <ele>684.4</ele>
        <time>2019-03-10T13:12:07Z</time>
      </trkpt>
      <trkpt lat="43.86216" lon="7.2393">
        <ele>684.9</ele>
        <time>2019-03-10T13:12:11Z</time>
      </trkpt>
      <trkpt lat="43.86219" lon="7.23911">
        <ele>685.1</ele>
        <time>2019-03-10T13:12:15Z</time>
      </trkpt>
      <trkpt lat="43.86232" lon="7.23893">
        <ele>685.5</ele>
        <time>2019-03-10T13:12:19Z</time>
      </trkpt>
      <trkpt lat="43.86244" lon="7.23879">
        <ele>686.4</ele>
        <time>2019-03-10T13:12:23Z</time>
      </trkpt>
      <trkpt lat="43.86257" lon="7.23866">
        <ele>687.7</ele>
        <time>2019-03-10T13:12:27Z</time>
      </trkpt>
      <trkpt lat="43.86269" lon="7.23858">
        <ele>689</ele>
        <time>2019-03-10T13:12:31Z</time>
      </trkpt>
      <trkpt lat="43.8628" lon="7.2385">
        <ele>689.7</ele>
        <time>2019-03-10T13:12:35Z</time>
      </trkpt>
      <trkpt lat="43.86293" lon="7.2384">
        <ele>690.2</ele>
        <time>2019-03-10T13:12:39Z</time>
      </trkpt>
      <trkpt lat="43.86312" lon="7.23834">
        <ele>690.5</ele>
        <time>2019-03-10T13:12:43Z</time>
      </trkpt>
      <trkpt lat="43.86323" lon="7.23847">
        <ele>690.7</ele>
        <time>2019-03-10T13:12:47Z</time>
      </trkpt>
      <trkpt lat="43.86327" lon="7.23867">
        <ele>691.1</ele>
        <time>2019-03-10T13:12:51Z</time>
      </trkpt>
      <trkpt lat="43.86332" lon="7.23886">
        <ele>691.6</ele>
        <time>2019-03-10T13:12:55Z</time>
      </trkpt>
      <trkpt lat="43.86344" lon="7.23898">
        <ele>692.4</ele>
        <time>2019-03-10T13:12:59Z</time>
      </trkpt>
      <trkpt lat="43.86357" lon="7.23905">
        <ele>693.3</ele>
        <time>2019-03-10T13:13:03Z</time>
      </trkpt>
      <trkpt lat="43.86369" lon="7.23908">
        <ele>694.4</ele>
        <time>2019-03-10T13:13:07Z</time>
      </trkpt>
      <trkpt lat="43.86381" lon="7.23909">
        <ele>695.3</ele>
        <time>2019-03-10T13:13:11Z</time>
      </trkpt>
      <trkpt lat="43.86392" lon="7.23911">
        <ele>696.1</ele>
        <time>2019-03-10T13:13:15Z</time>
      </trkpt>
      <trkpt lat="43.86402" lon="7.23919">
        <ele>696.9</ele>
        <time>2019-03-10T13:13:19Z</time>
      </trkpt>
      <trkpt lat="43.86412" lon="7.23925">
        <ele>697.9</ele>
        <time>2019-03-10T13:13:23Z</time>
      </trkpt>
      <trkpt lat="43.86424" lon="7.23925">
        <ele>698.8</ele>
        <time>2019-03-10T13:13:27Z</time>
      </trkpt>
      <trkpt lat="43.86435" lon="7.23924">
        <ele>699.6</ele>
        <time>2019-03-10T13:13:31Z</time>
      </trkpt>
      <trkpt lat="43.86445" lon="7.23921">
        <ele>700.5</ele>
        <time>2019-03-10T13:13:35Z</time>
      </trkpt>
      <trkpt lat="43.86455" lon="7.2392">
        <ele>701.6</ele>
        <time>2019-03-10T13:13:39Z</time>
      </trkpt>
      <trkpt lat="43.86465" lon="7.23917">
        <ele>702.9</ele>
        <time>2019-03-10T13:13:43Z</time>
      </trkpt>
      <trkpt lat="43.86476" lon="7.23916">
        <ele>704.3</ele>
        <time>2019-03-10T13:13:47Z</time>
      </trkpt>
      <trkpt lat="43.86486" lon="7.23916">
        <ele>705.4</ele>
        <time>2019-03-10T13:13:51Z</time>
      </trkpt>
      <trkpt lat="43.86496" lon="7.23913">
        <ele>706.3</ele>
        <time>2019-03-10T13:13:55Z</time>
      </trkpt>
      <trkpt lat="43.86504" lon="7.23904">
        <ele>707.3</ele>
        <time>2019-03-10T13:13:59Z</time>
      </trkpt>
      <trkpt lat="43.86509" lon="7.23892">
        <ele>707.9</ele>
        <time>2019-03-10T13:14:03Z</time>
      </trkpt>
      <trkpt lat="43.86515" lon="7.2388">
        <ele>708.8</ele>
        <time>2019-03-10T13:14:07Z</time>
      </trkpt>
      <trkpt lat="43.86521" lon="7.23869">
        <ele>709.6</ele>
        <time>2019-03-10T13:14:11Z</time>
      </trkpt>
      <trkpt lat="43.86528" lon="7.23858">
        <ele>710.5</ele>
        <time>2019-03-10T13:14:15Z</time>
      </trkpt>
      <trkpt lat="43.86535" lon="7.2385">
        <ele>711.4</ele>
        <time>2019-03-10T13:14:19Z</time>
      </trkpt>
      <trkpt lat="43.86543" lon="7.23845">
        <ele>712.3</ele>
        <time>2019-03-10T13:14:23Z</time>
      </trkpt>
      <trkpt lat="43.86552" lon="7.23848">
        <ele>713.3</ele>
        <time>2019-03-10T13:14:27Z</time>
      </trkpt>
      <trkpt lat="43.86561" lon="7.23854">
        <ele>714.4</ele>
        <time>2019-03-10T13:14:31Z</time>
      </trkpt>
      <trkpt lat="43.86569" lon="7.23858">
        <ele>715.3</ele>
        <time>2019-03-10T13:14:35Z</time>
      </trkpt>
      <trkpt lat="43.86578" lon="7.23862">
        <ele>716</ele>
        <time>2019-03-10T13:14:39Z</time>
      </trkpt>
      <trkpt lat="43.86587" lon="7.23866">
        <ele>716.7</ele>
        <time>2019-03-10T13:14:43Z</time>
      </trkpt>
      <trkpt lat="43.86595" lon="7.23872">
        <ele>717.5</ele>
        <time>2019-03-10T13:14:47Z</time>
      </trkpt>
      <trkpt lat="43.86602" lon="7.23877">
        <ele>718.4</ele>
        <time>2019-03-10T13:14:51Z</time>
      </trkpt>
      <trkpt lat="43.86608" lon="7.23884">
        <ele>719.4</ele>
        <time>2019-03-10T13:14:55Z</time>
      </trkpt>
      <trkpt lat="43.86614" lon="7.23893">
        <ele>720.5</ele>
        <time>2019-03-10T13:14:59Z</time>
      </trkpt>
      <trkpt lat="43.86619" lon="7.23902">
        <ele>721.4</ele>
        <time>2019-03-10T13:15:03Z</time>
      </trkpt>
      <trkpt lat="43.86623" lon="7.23911">
        <ele>722</ele>
        <time>2019-03-10T13:15:07Z</time>
      </trkpt>
      <trkpt lat="43.86625" lon="7.23922">
        <ele>722.6</ele>
        <time>2019-03-10T13:15:11Z</time>
      </trkpt>
      <trkpt lat="43.86627" lon="7.23933">
        <ele>723.4</ele>
        <time>2019-03-10T13:15:15Z</time>
      </trkpt>
      <trkpt lat="43.8663" lon="7.23943">
        <ele>724</ele>
        <time>2019-03-10T13:15:19Z</time>
      </trkpt>
      <trkpt lat="43.86633" lon="7.23953">
        <ele>724.7</ele>
        <time>2019-03-10T13:15:23Z</time>
      </trkpt>
      <trkpt lat="43.86637" lon="7.23965">
        <ele>725.3</ele>
        <time>2019-03-10T13:15:27Z</time>
      </trkpt>
      <trkpt lat="43.86643" lon="7.23976">
        <ele>725.6</ele>
        <time>2019-03-10T13:15:31Z</time>
      </trkpt>
      <trkpt lat="43.8665" lon="7.23984">
        <ele>725.1</ele>
        <time>2019-03-10T13:15:35Z</time>
      </trkpt>
      <trkpt lat="43.86657" lon="7.23991">
        <ele>724.5</ele>
        <time>2019-03-10T13:15:39Z</time>
      </trkpt>
      <trkpt lat="43.86665" lon="7.23997">
        <ele>724</ele>
        <time>2019-03-10T13:15:43Z</time>
      </trkpt>
      <trkpt lat="43.86673" lon="7.24003">
        <ele>723.6</ele>
        <time>2019-03-10T13:15:47Z</time>
      </trkpt>
      <trkpt lat="43.86679" lon="7.24009">
        <ele>723.3</ele>
        <time>2019-03-10T13:15:51Z</time>
      </trkpt>
      <trkpt lat="43.86685" lon="7.24018">
        <ele>723.4</ele>
        <time>2019-03-10T13:15:55Z</time>
      </trkpt>
      <trkpt lat="43.86688" lon="7.24029">
        <ele>724</ele>
        <time>2019-03-10T13:15:59Z</time>
      </trkpt>
      <trkpt lat="43.86689" lon="7.24041">
        <ele>724.7</ele>
        <time>2019-03-10T13:16:03Z</time>
      </trkpt>
      <trkpt lat="43.86688" lon="7.24053">
        <ele>725.6</ele>
        <time>2019-03-10T13:16:07Z</time>
      </trkpt>
      <trkpt lat="43.86686" lon="7.24063">
        <ele>726.8</ele>
        <time>2019-03-10T13:16:11Z</time>
      </trkpt>
      <trkpt lat="43.86682" lon="7.2407">
        <ele>727.7</ele>
        <time>2019-03-10T13:16:15Z</time>
      </trkpt>
      <trkpt lat="43.86678" lon="7.2408">
        <ele>728.8</ele>
        <time>2019-03-10T13:16:19Z</time>
      </trkpt>
      <trkpt lat="43.86675" lon="7.2409">
        <ele>729.9</ele>
        <time>2019-03-10T13:16:23Z</time>
      </trkpt>
      <trkpt lat="43.8667" lon="7.24101">
        <ele>731.4</ele>
        <time>2019-03-10T13:16:27Z</time>
      </trkpt>
      <trkpt lat="43.86661" lon="7.2411">
        <ele>733.2</ele>
        <time>2019-03-10T13:16:31Z</time>
      </trkpt>
      <trkpt lat="43.8665" lon="7.24117">
        <ele>735.1</ele>
        <time>2019-03-10T13:16:35Z</time>
      </trkpt>
      <trkpt lat="43.86641" lon="7.24125">
        <ele>736.4</ele>
        <time>2019-03-10T13:16:39Z</time>
      </trkpt>
      <trkpt lat="43.8663" lon="7.24137">
        <ele>738.2</ele>
        <time>2019-03-10T13:16:43Z</time>
      </trkpt>
      <trkpt lat="43.86619" lon="7.24146">
        <ele>739.3</ele>
        <time>2019-03-10T13:16:47Z</time>
      </trkpt>
      <trkpt lat="43.86609" lon="7.24151">
        <ele>739.5</ele>
        <time>2019-03-10T13:16:51Z</time>
      </trkpt>
      <trkpt lat="43.86599" lon="7.24157">
        <ele>739.8</ele>
        <time>2019-03-10T13:16:55Z</time>
      </trkpt>
      <trkpt lat="43.8659" lon="7.24164">
        <ele>740.1</ele>
        <time>2019-03-10T13:16:59Z</time>
      </trkpt>
      <trkpt lat="43.86582" lon="7.2417">
        <ele>740.5</ele>
        <time>2019-03-10T13:17:03Z</time>
      </trkpt>
      <trkpt lat="43.86573" lon="7.24174">
        <ele>741</ele>
        <time>2019-03-10T13:17:07Z</time>
      </trkpt>
      <trkpt lat="43.86564" lon="7.24177">
        <ele>741.6</ele>
        <time>2019-03-10T13:17:11Z</time>
      </trkpt>
      <trkpt lat="43.86555" lon="7.24181">
        <ele>742.2</ele>
        <time>2019-03-10T13:17:15Z</time>
      </trkpt>
      <trkpt lat="43.86547" lon="7.24185">
        <ele>742.7</ele>
        <time>2019-03-10T13:17:19Z</time>
      </trkpt>
      <trkpt lat="43.86538" lon="7.24189">
        <ele>743.2</ele>
        <time>2019-03-10T13:17:23Z</time>
      </trkpt>
      <trkpt lat="43.86531" lon="7.24192">
        <ele>743.7</ele>
        <time>2019-03-10T13:17:27Z</time>
      </trkpt>
      <trkpt lat="43.86523" lon="7.24194">
        <ele>744.2</ele>
        <time>2019-03-10T13:17:31Z</time>
      </trkpt>
      <trkpt lat="43.86515" lon="7.24195">
        <ele>745</ele>
        <time>2019-03-10T13:17:35Z</time>
      </trkpt>
      <trkpt lat="43.86508" lon="7.24196">
        <ele>745.8</ele>
        <time>2019-03-10T13:17:39Z</time>
      </trkpt>
      <trkpt lat="43.865" lon="7.24199">
        <ele>746.6</ele>
        <time>2019-03-10T13:17:43Z</time>
      </trkpt>
      <trkpt lat="43.86492" lon="7.24201">
        <ele>747.5</ele>
        <time>2019-03-10T13:17:47Z</time>
      </trkpt>
      <trkpt lat="43.86485" lon="7.24206">
        <ele>748.4</ele>
        <time>2019-03-10T13:17:51Z</time>
      </trkpt>
      <trkpt lat="43.86478" lon="7.24213">
        <ele>749</ele>
        <time>2019-03-10T13:17:55Z</time>
      </trkpt>
      <trkpt lat="43.86474" lon="7.24221">
        <ele>749.7</ele>
        <time>2019-03-10T13:17:59Z</time>
      </trkpt>
      <trkpt lat="43.86469" lon="7.2423">
        <ele>750.4</ele>
        <time>2019-03-10T13:18:03Z</time>
      </trkpt>
      <trkpt lat="43.86465" lon="7.24238">
        <ele>751.3</ele>
        <time>2019-03-10T13:18:07Z</time>
      </trkpt>
      <trkpt lat="43.86459" lon="7.24245">
        <ele>751.9</ele>
        <time>2019-03-10T13:18:11Z</time>
      </trkpt>
      <trkpt lat="43.86454" lon="7.24254">
        <ele>752.5</ele>
        <time>2019-03-10T13:18:15Z</time>
      </trkpt>
      <trkpt lat="43.8645" lon="7.24263">
        <ele>753.5</ele>
        <time>2019-03-10T13:18:19Z</time>
      </trkpt>
      <trkpt lat="43.86447" lon="7.24273">
        <ele>754.5</ele>
        <time>2019-03-10T13:18:23Z</time>
      </trkpt>
      <trkpt lat="43.86444" lon="7.24283">
        <ele>755.8</ele>
        <time>2019-03-10T13:18:27Z</time>
      </trkpt>
      <trkpt lat="43.86441" lon="7.24294">
        <ele>756.8</ele>
        <time>2019-03-10T13:18:31Z</time>
      </trkpt>
      <trkpt lat="43.86439" lon="7.24304">
        <ele>757.5</ele>
        <time>2019-03-10T13:18:35Z</time>
      </trkpt>
      <trkpt lat="43.86438" lon="7.24312">
        <ele>758.2</ele>
        <time>2019-03-10T13:18:39Z</time>
      </trkpt>
      <trkpt lat="43.86436" lon="7.2432">
        <ele>759.1</ele>
        <time>2019-03-10T13:18:43Z</time>
      </trkpt>
      <trkpt lat="43.86433" lon="7.24327">
        <ele>759.8</ele>
        <time>2019-03-10T13:18:47Z</time>
      </trkpt>
      <trkpt lat="43.86431" lon="7.24334">
        <ele>760.6</ele>
        <time>2019-03-10T13:18:51Z</time>
      </trkpt>
      <trkpt lat="43.86426" lon="7.2434">
        <ele>761.4</ele>
        <time>2019-03-10T13:18:55Z</time>
      </trkpt>
      <trkpt lat="43.86423" lon="7.24347">
        <ele>762</ele>
        <time>2019-03-10T13:18:59Z</time>
      </trkpt>
      <trkpt lat="43.86419" lon="7.24354">
        <ele>762.5</ele>
        <time>2019-03-10T13:19:03Z</time>
      </trkpt>
      <trkpt lat="43.86412" lon="7.24363">
        <ele>763.2</ele>
        <time>2019-03-10T13:19:07Z</time>
      </trkpt>
      <trkpt lat="43.86407" lon="7.24371">
        <ele>764.2</ele>
        <time>2019-03-10T13:19:11Z</time>
      </trkpt>
      <trkpt lat="43.86403" lon="7.2438">
        <ele>764.9</ele>
        <time>2019-03-10T13:19:15Z</time>
      </trkpt>
      <trkpt lat="43.86399" lon="7.2439">
        <ele>765.7</ele>
        <time>2019-03-10T13:19:19Z</time>
      </trkpt>
      <trkpt lat="43.86397" lon="7.24399">
        <ele>766.5</ele>
        <time>2019-03-10T13:19:23Z</time>
      </trkpt>
      <trkpt lat="43.86394" lon="7.24409">
        <ele>767.2</ele>
        <time>2019-03-10T13:19:27Z</time>
      </trkpt>
      <trkpt lat="43.86393" lon="7.24419">
        <ele>767.9</ele>
        <time>2019-03-10T13:19:31Z</time>
      </trkpt>
      <trkpt lat="43.86393" lon="7.2443">
        <ele>768.6</ele>
        <time>2019-03-10T13:19:35Z</time>
      </trkpt>
      <trkpt lat="43.86393" lon="7.2444">
        <ele>769.6</ele>
        <time>2019-03-10T13:19:39Z</time>
      </trkpt>
      <trkpt lat="43.86394" lon="7.24449">
        <ele>770.3</ele>
        <time>2019-03-10T13:19:43Z</time>
      </trkpt>
      <trkpt lat="43.86396" lon="7.24459">
        <ele>771.3</ele>
        <time>2019-03-10T13:19:47Z</time>
      </trkpt>
      <trkpt lat="43.86399" lon="7.24468">
        <ele>772</ele>
        <time>2019-03-10T13:19:51Z</time>
      </trkpt>
      <trkpt lat="43.86402" lon="7.24477">
        <ele>772.9</ele>
        <time>2019-03-10T13:19:55Z</time>
      </trkpt>
      <trkpt lat="43.86404" lon="7.24485">
        <ele>773.8</ele>
        <time>2019-03-10T13:19:59Z</time>
      </trkpt>
      <trkpt lat="43.86406" lon="7.24494">
        <ele>774.8</ele>
        <time>2019-03-10T13:20:03Z</time>
      </trkpt>
      <trkpt lat="43.86409" lon="7.24503">
        <ele>775.5</ele>
        <time>2019-03-10T13:20:07Z</time>
      </trkpt>
      <trkpt lat="43.86413" lon="7.2451">
        <ele>776.3</ele>
        <time>2019-03-10T13:20:11Z</time>
      </trkpt>
      <trkpt lat="43.86416" lon="7.24518">
        <ele>776.9</ele>
        <time>2019-03-10T13:20:15Z</time>
      </trkpt>
      <trkpt lat="43.86419" lon="7.24526">
        <ele>777.3</ele>
        <time>2019-03-10T13:20:19Z</time>
      </trkpt>
      <trkpt lat="43.86423" lon="7.24533">
        <ele>777.9</ele>
        <time>2019-03-10T13:20:23Z</time>
      </trkpt>
      <trkpt lat="43.86427" lon="7.2454">
        <ele>778.7</ele>
        <time>2019-03-10T13:20:27Z</time>
      </trkpt>
      <trkpt lat="43.86432" lon="7.24547">
        <ele>779.4</ele>
        <time>2019-03-10T13:20:31Z</time>
      </trkpt>
      <trkpt lat="43.86435" lon="7.24555">
        <ele>780.3</ele>
        <time>2019-03-10T13:20:35Z</time>
      </trkpt>
      <trkpt lat="43.86438" lon="7.24564">
        <ele>781.1</ele>
        <time>2019-03-10T13:20:39Z</time>
      </trkpt>
      <trkpt lat="43.86441" lon="7.24572">
        <ele>781.9</ele>
        <time>2019-03-10T13:20:43Z</time>
      </trkpt>
      <trkpt lat="43.86443" lon="7.24581">
        <ele>782.6</ele>
        <time>2019-03-10T13:20:47Z</time>
      </trkpt>
      <trkpt lat="43.86443" lon="7.24591">
        <ele>783.5</ele>
        <time>2019-03-10T13:20:51Z</time>
      </trkpt>
      <trkpt lat="43.86444" lon="7.24601">
        <ele>784.1</ele>
        <time>2019-03-10T13:20:55Z</time>
      </trkpt>
      <trkpt lat="43.86443" lon="7.24611">
        <ele>784.8</ele>
        <time>2019-03-10T13:20:59Z</time>
      </trkpt>
      <trkpt lat="43.86443" lon="7.2462">
        <ele>785.4</ele>
        <time>2019-03-10T13:21:03Z</time>
      </trkpt>
      <trkpt lat="43.86442" lon="7.24629">
        <ele>786.2</ele>
        <time>2019-03-10T13:21:07Z</time>
      </trkpt>
      <trkpt lat="43.86442" lon="7.24638">
        <ele>786.7</ele>
        <time>2019-03-10T13:21:11Z</time>
      </trkpt>
      <trkpt lat="43.86439" lon="7.24647">
        <ele>787.4</ele>
        <time>2019-03-10T13:21:15Z</time>
      </trkpt>
      <trkpt lat="43.86437" lon="7.24655">
        <ele>788.3</ele>
        <time>2019-03-10T13:21:19Z</time>
      </trkpt>
      <trkpt lat="43.86434" lon="7.24664">
        <ele>789.2</ele>
        <time>2019-03-10T13:21:23Z</time>
      </trkpt>
      <trkpt lat="43.86431" lon="7.24673">
        <ele>790</ele>
        <time>2019-03-10T13:21:27Z</time>
      </trkpt>
      <trkpt lat="43.86428" lon="7.24681">
        <ele>790.5</ele>
        <time>2019-03-10T13:21:31Z</time>
      </trkpt>
      <trkpt lat="43.86427" lon="7.24689">
        <ele>791.3</ele>
        <time>2019-03-10T13:21:35Z</time>
      </trkpt>
      <trkpt lat="43.86423" lon="7.24698">
        <ele>792.1</ele>
        <time>2019-03-10T13:21:39Z</time>
      </trkpt>
      <trkpt lat="43.8642" lon="7.24707">
        <ele>792.7</ele>
        <time>2019-03-10T13:21:43Z</time>
      </trkpt>
      <trkpt lat="43.86417" lon="7.24716">
        <ele>793.6</ele>
        <time>2019-03-10T13:21:47Z</time>
      </trkpt>
      <trkpt lat="43.86413" lon="7.24724">
        <ele>794.3</ele>
        <time>2019-03-10T13:21:51Z</time>
      </trkpt>
      <trkpt lat="43.86411" lon="7.24732">
        <ele>794.9</ele>
        <time>2019-03-10T13:21:55Z</time>
      </trkpt>
      <trkpt lat="43.86408" lon="7.2474">
        <ele>795.8</ele>
        <time>2019-03-10T13:21:59Z</time>
      </trkpt>
      <trkpt lat="43.86405" lon="7.24749">
        <ele>796.6</ele>
        <time>2019-03-10T13:22:03Z</time>
      </trkpt>
      <trkpt lat="43.86403" lon="7.24758">
        <ele>797.2</ele>
        <time>2019-03-10T13:22:07Z</time>
      </trkpt>
      <trkpt lat="43.864" lon="7.24766">
        <ele>797.8</ele>
        <time>2019-03-10T13:22:11Z</time>
      </trkpt>
      <trkpt lat="43.86397" lon="7.24775">
        <ele>798.8</ele>
        <time>2019-03-10T13:22:15Z</time>
      </trkpt>
      <trkpt lat="43.86395" lon="7.24784">
        <ele>799.8</ele>
        <time>2019-03-10T13:22:19Z</time>
      </trkpt>
      <trkpt lat="43.86392" lon="7.24793">
        <ele>800.8</ele>
        <time>2019-03-10T13:22:23Z</time>
      </trkpt>
      <trkpt lat="43.8639" lon="7.24801">
        <ele>801.9</ele>
        <time>2019-03-10T13:22:27Z</time>
      </trkpt>
      <trkpt lat="43.86388" lon="7.2481">
        <ele>803</ele>
        <time>2019-03-10T13:22:31Z</time>
      </trkpt>
      <trkpt lat="43.86386" lon="7.24819">
        <ele>804.1</ele>
        <time>2019-03-10T13:22:35Z</time>
      </trkpt>
      <trkpt lat="43.86384" lon="7.24828">
        <ele>805</ele>
        <time>2019-03-10T13:22:39Z</time>
      </trkpt>
      <trkpt lat="43.86381" lon="7.24837">
        <ele>806.1</ele>
        <time>2019-03-10T13:22:43Z</time>
      </trkpt>
      <trkpt lat="43.86378" lon="7.24846">
        <ele>807.2</ele>
        <time>2019-03-10T13:22:47Z</time>
      </trkpt>
      <trkpt lat="43.86376" lon="7.24855">
        <ele>808.3</ele>
        <time>2019-03-10T13:22:51Z</time>
      </trkpt>
      <trkpt lat="43.86374" lon="7.24865">
        <ele>809.3</ele>
        <time>2019-03-10T13:22:55Z</time>
      </trkpt>
      <trkpt lat="43.86372" lon="7.24875">
        <ele>810.5</ele>
        <time>2019-03-10T13:22:59Z</time>
      </trkpt>
      <trkpt lat="43.86371" lon="7.24884">
        <ele>811.8</ele>
        <time>2019-03-10T13:23:03Z</time>
      </trkpt>
      <trkpt lat="43.86369" lon="7.24894">
        <ele>813.2</ele>
        <time>2019-03-10T13:23:07Z</time>
      </trkpt>
      <trkpt lat="43.86368" lon="7.24904">
        <ele>814.5</ele>
        <time>2019-03-10T13:23:11Z</time>
      </trkpt>
      <trkpt lat="43.86366" lon="7.24914">
        <ele>815.8</ele>
        <time>2019-03-10T13:23:15Z</time>
      </trkpt>
      <trkpt lat="43.86365" lon="7.24923">
        <ele>816.6</ele>
        <time>2019-03-10T13:23:19Z</time>
      </trkpt>
      <trkpt lat="43.86364" lon="7.24932">
        <ele>817.8</ele>
        <time>2019-03-10T13:23:23Z</time>
      </trkpt>
      <trkpt lat="43.86365" lon="7.2494">
        <ele>818.6</ele>
        <time>2019-03-10T13:23:27Z</time>
      </trkpt>
      <trkpt lat="43.86365" lon="7.24949">
        <ele>819.5</ele>
        <time>2019-03-10T13:23:31Z</time>
      </trkpt>
      <trkpt lat="43.86365" lon="7.24959">
        <ele>820.7</ele>
        <time>2019-03-10T13:23:35Z</time>
      </trkpt>
      <trkpt lat="43.86364" lon="7.24969">
        <ele>822</ele>
        <time>2019-03-10T13:23:39Z</time>
      </trkpt>
      <trkpt lat="43.86365" lon="7.24978">
        <ele>823.3</ele>
        <time>2019-03-10T13:23:43Z</time>
      </trkpt>
      <trkpt lat="43.86365" lon="7.24987">
        <ele>824.5</ele>
        <time>2019-03-10T13:23:47Z</time>
      </trkpt>
      <trkpt lat="43.86366" lon="7.24997">
        <ele>825.7</ele>
        <time>2019-03-10T13:23:51Z</time>
      </trkpt>
      <trkpt lat="43.86367" lon="7.25007">
        <ele>826.6</ele>
        <time>2019-03-10T13:23:55Z</time>
      </trkpt>
      <trkpt lat="43.86369" lon="7.25016">
        <ele>827.8</ele>
        <time>2019-03-10T13:23:59Z</time>
      </trkpt>
      <trkpt lat="43.8637" lon="7.25026">
        <ele>828.8</ele>
        <time>2019-03-10T13:24:03Z</time>
      </trkpt>
      <trkpt lat="43.86371" lon="7.25035">
        <ele>829.8</ele>
        <time>2019-03-10T13:24:07Z</time>
      </trkpt>
      <trkpt lat="43.86373" lon="7.25046">
        <ele>830.7</ele>
        <time>2019-03-10T13:24:11Z</time>
      </trkpt>
      <trkpt lat="43.86375" lon="7.25057">
        <ele>831.8</ele>
        <time>2019-03-10T13:24:15Z</time>
      </trkpt>
      <trkpt lat="43.86377" lon="7.25066">
        <ele>832.7</ele>
        <time>2019-03-10T13:24:19Z</time>
      </trkpt>
      <trkpt lat="43.8638" lon="7.25075">
        <ele>833.7</ele>
        <time>2019-03-10T13:24:23Z</time>
      </trkpt>
      <trkpt lat="43.86383" lon="7.25084">
        <ele>834.8</ele>
        <time>2019-03-10T13:24:27Z</time>
      </trkpt>
      <trkpt lat="43.86384" lon="7.25094">
        <ele>835.7</ele>
        <time>2019-03-10T13:24:31Z</time>
      </trkpt>
      <trkpt lat="43.86387" lon="7.25103">
        <ele>836.6</ele>
        <time>2019-03-10T13:24:35Z</time>
      </trkpt>
      <trkpt lat="43.8639" lon="7.25113">
        <ele>837.7</ele>
        <time>2019-03-10T13:24:39Z</time>
      </trkpt>
      <trkpt lat="43.86393" lon="7.25122">
        <ele>838.4</ele>
        <time>2019-03-10T13:24:43Z</time>
      </trkpt>
      <trkpt lat="43.86396" lon="7.25131">
        <ele>839.2</ele>
        <time>2019-03-10T13:24:47Z</time>
      </trkpt>
      <trkpt lat="43.86398" lon="7.25139">
        <ele>840</ele>
        <time>2019-03-10T13:24:51Z</time>
      </trkpt>
      <trkpt lat="43.86401" lon="7.25149">
        <ele>840.6</ele>
        <time>2019-03-10T13:24:55Z</time>
      </trkpt>
      <trkpt lat="43.86403" lon="7.25159">
        <ele>841.3</ele>
        <time>2019-03-10T13:24:59Z</time>
      </trkpt>
      <trkpt lat="43.86405" lon="7.25171">
        <ele>842.5</ele>
        <time>2019-03-10T13:25:03Z</time>
      </trkpt>
      <trkpt lat="43.86408" lon="7.25181">
        <ele>843.4</ele>
        <time>2019-03-10T13:25:07Z</time>
      </trkpt>
      <trkpt lat="43.86411" lon="7.25193">
        <ele>844.7</ele>
        <time>2019-03-10T13:25:11Z</time>
      </trkpt>
      <trkpt lat="43.86414" lon="7.25204">
        <ele>845.8</ele>
        <time>2019-03-10T13:25:15Z</time>
      </trkpt>
      <trkpt lat="43.86418" lon="7.25211">
        <ele>846.5</ele>
        <time>2019-03-10T13:25:19Z</time>
      </trkpt>
      <trkpt lat="43.86421" lon="7.25219">
        <ele>847.3</ele>
        <time>2019-03-10T13:25:23Z</time>
      </trkpt>
      <trkpt lat="43.86422" lon="7.25227">
        <ele>847.8</ele>
        <time>2019-03-10T13:25:27Z</time>
      </trkpt>
      <trkpt lat="43.86425" lon="7.25236">
        <ele>848.5</ele>
        <time>2019-03-10T13:25:31Z</time>
      </trkpt>
      <trkpt lat="43.86427" lon="7.25243">
        <ele>849.2</ele>
        <time>2019-03-10T13:25:35Z</time>
      </trkpt>
      <trkpt lat="43.86429" lon="7.2525">
        <ele>849.9</ele>
        <time>2019-03-10T13:25:39Z</time>
      </trkpt>
      <trkpt lat="43.86431" lon="7.25258">
        <ele>850.4</ele>
        <time>2019-03-10T13:25:43Z</time>
      </trkpt>
      <trkpt lat="43.86432" lon="7.25265">
        <ele>851</ele>
        <time>2019-03-10T13:25:47Z</time>
      </trkpt>
      <trkpt lat="43.86434" lon="7.25274">
        <ele>851.8</ele>
        <time>2019-03-10T13:25:51Z</time>
      </trkpt>
      <trkpt lat="43.86435" lon="7.25282">
        <ele>852.4</ele>
        <time>2019-03-10T13:25:55Z</time>
      </trkpt>
      <trkpt lat="43.86437" lon="7.2529">
        <ele>852.9</ele>
        <time>2019-03-10T13:25:59Z</time>
      </trkpt>
      <trkpt lat="43.86438" lon="7.25297">
        <ele>853.5</ele>
        <time>2019-03-10T13:26:03Z</time>
      </trkpt>
      <trkpt lat="43.8644" lon="7.25307">
        <ele>854.4</ele>
        <time>2019-03-10T13:26:07Z</time>
      </trkpt>
      <trkpt lat="43.86442" lon="7.25316">
        <ele>855.4</ele>
        <time>2019-03-10T13:26:11Z</time>
      </trkpt>
      <trkpt lat="43.86444" lon="7.25325">
        <ele>856.2</ele>
        <time>2019-03-10T13:26:15Z</time>
      </trkpt>
      <trkpt lat="43.86445" lon="7.25334">
        <ele>857.2</ele>
        <time>2019-03-10T13:26:19Z</time>
      </trkpt>
      <trkpt lat="43.86448" lon="7.25343">
        <ele>857.9</ele>
        <time>2019-03-10T13:26:23Z</time>
      </trkpt>
      <trkpt lat="43.86448" lon="7.25353">
        <ele>858.6</ele>
        <time>2019-03-10T13:26:27Z</time>
      </trkpt>
      <trkpt lat="43.86451" lon="7.25362">
        <ele>859.6</ele>
        <time>2019-03-10T13:26:31Z</time>
      </trkpt>
      <trkpt lat="43.86454" lon="7.25371">
        <ele>860.1</ele>
        <time>2019-03-10T13:26:35Z</time>
      </trkpt>
      <trkpt lat="43.86455" lon="7.25381">
        <ele>860.4</ele>
        <time>2019-03-10T13:26:39Z</time>
      </trkpt>
      <trkpt lat="43.86456" lon="7.2539">
        <ele>860.7</ele>
        <time>2019-03-10T13:26:43Z</time>
      </trkpt>
      <trkpt lat="43.86456" lon="7.254">
        <ele>861</ele>
        <time>2019-03-10T13:26:47Z</time>
      </trkpt>
      <trkpt lat="43.86456" lon="7.2541">
        <ele>861.3</ele>
        <time>2019-03-10T13:26:51Z</time>
      </trkpt>
      <trkpt lat="43.86458" lon="7.2542">
        <ele>861.8</ele>
        <time>2019-03-10T13:26:55Z</time>
      </trkpt>
      <trkpt lat="43.8646" lon="7.2543">
        <ele>862.6</ele>
        <time>2019-03-10T13:26:59Z</time>
      </trkpt>
      <trkpt lat="43.86463" lon="7.25439">
        <ele>863.1</ele>
        <time>2019-03-10T13:27:03Z</time>
      </trkpt>
      <trkpt lat="43.86467" lon="7.25448">
        <ele>863.5</ele>
        <time>2019-03-10T13:27:07Z</time>
      </trkpt>
      <trkpt lat="43.86469" lon="7.25456">
        <ele>864.2</ele>
        <time>2019-03-10T13:27:11Z</time>
      </trkpt>
      <trkpt lat="43.86471" lon="7.25465">
        <ele>864.8</ele>
        <time>2019-03-10T13:27:15Z</time>
      </trkpt>
      <trkpt lat="43.86473" lon="7.25474">
        <ele>865.4</ele>
        <time>2019-03-10T13:27:19Z</time>
      </trkpt>
      <trkpt lat="43.86474" lon="7.25485">
        <ele>866.1</ele>
        <time>2019-03-10T13:27:23Z</time>
      </trkpt>
      <trkpt lat="43.86476" lon="7.25495">
        <ele>866.7</ele>
        <time>2019-03-10T13:27:27Z</time>
      </trkpt>
      <trkpt lat="43.86478" lon="7.25504">
        <ele>867.2</ele>
        <time>2019-03-10T13:27:31Z</time>
      </trkpt>
      <trkpt lat="43.8648" lon="7.25514">
        <ele>867.8</ele>
        <time>2019-03-10T13:27:35Z</time>
      </trkpt>
      <trkpt lat="43.86482" lon="7.25523">
        <ele>868.4</ele>
        <time>2019-03-10T13:27:39Z</time>
      </trkpt>
      <trkpt lat="43.86483" lon="7.25532">
        <ele>869.2</ele>
        <time>2019-03-10T13:27:43Z</time>
      </trkpt>
      <trkpt lat="43.86484" lon="7.25541">
        <ele>870</ele>
        <time>2019-03-10T13:27:47Z</time>
      </trkpt>
      <trkpt lat="43.86487" lon="7.2555">
        <ele>870.7</ele>
        <time>2019-03-10T13:27:51Z</time>
      </trkpt>
      <trkpt lat="43.86488" lon="7.2556">
        <ele>871.4</ele>
        <time>2019-03-10T13:27:55Z</time>
      </trkpt>
      <trkpt lat="43.86491" lon="7.25569">
        <ele>872.2</ele>
        <time>2019-03-10T13:27:59Z</time>
      </trkpt>
      <trkpt lat="43.86494" lon="7.25578">
        <ele>872.8</ele>
        <time>2019-03-10T13:28:03Z</time>
      </trkpt>
      <trkpt lat="43.86498" lon="7.25587">
        <ele>873.5</ele>
        <time>2019-03-10T13:28:07Z</time>
      </trkpt>
      <trkpt lat="43.86501" lon="7.25596">
        <ele>874.2</ele>
        <time>2019-03-10T13:28:11Z</time>
      </trkpt>
      <trkpt lat="43.86506" lon="7.25603">
        <ele>875</ele>
        <time>2019-03-10T13:28:15Z</time>
      </trkpt>
      <trkpt lat="43.86511" lon="7.25611">
        <ele>875.6</ele>
        <time>2019-03-10T13:28:19Z</time>
      </trkpt>
      <trkpt lat="43.86515" lon="7.25618">
        <ele>876.2</ele>
        <time>2019-03-10T13:28:23Z</time>
      </trkpt>
      <trkpt lat="43.86521" lon="7.25625">
        <ele>876.6</ele>
        <time>2019-03-10T13:28:27Z</time>
      </trkpt>
      <trkpt lat="43.86526" lon="7.25631">
        <ele>877</ele>
        <time>2019-03-10T13:28:31Z</time>
      </trkpt>
      <trkpt lat="43.86532" lon="7.25638">
        <ele>877.6</ele>
        <time>2019-03-10T13:28:35Z</time>
      </trkpt>
      <trkpt lat="43.86538" lon="7.25645">
        <ele>878.1</ele>
        <time>2019-03-10T13:28:39Z</time>
      </trkpt>
      <trkpt lat="43.86543" lon="7.25652">
        <ele>878.6</ele>
        <time>2019-03-10T13:28:43Z</time>
      </trkpt>
      <trkpt lat="43.86548" lon="7.2566">
        <ele>879.1</ele>
        <time>2019-03-10T13:28:47Z</time>
      </trkpt>
      <trkpt lat="43.86551" lon="7.25668">
        <ele>879.6</ele>
        <time>2019-03-10T13:28:51Z</time>
      </trkpt>
      <trkpt lat="43.86552" lon="7.25678">
        <ele>880.1</ele>
        <time>2019-03-10T13:28:55Z</time>
      </trkpt>
      <trkpt lat="43.86555" lon="7.25685">
        <ele>880.7</ele>
        <time>2019-03-10T13:28:59Z</time>
      </trkpt>
      <trkpt lat="43.86555" lon="7.25685">
        <ele>880.7</ele>
        <time>2019-03-10T13:29:03Z</time>
      </trkpt>
      <trkpt lat="43.86555" lon="7.25685">
        <ele>880.7</ele>
        <time>2019-03-10T13:29:07Z</time>
      </trkpt>
      <trkpt lat="43.86555" lon="7.25685">
        <ele>880.7</ele>
        <time>2019-03-10T13:29:11Z</time>
      </trkpt>
      <trkpt lat="43.86555" lon="7.25685">
        <ele>880.7</ele>
        <time>2019-03-10T13:29:15Z</time>
      </trkpt>
      <trkpt lat="43.86555" lon="7.25685">
        <ele>880.7</ele>
        <time>2019-03-10T13:29:19Z</time>
      </trkpt>
      <trkpt lat="43.86555" lon="7.25685">
        <ele>880.7</ele>
        <time>2019-03-10T13:29:23Z</time>
      </trkpt>
      <trkpt lat="43.86555" lon="7.25685">
        <ele>880.7</ele>
        <time>2019-03-10T13:29:27Z</time>
      </trkpt>
      <trkpt lat="43.86555" lon="7.25685">
        <ele>880.7</ele>
        <time>2019-03-10T13:29:31Z</time>
      </trkpt>
      <trkpt lat="43.86555" lon="7.25685">
        <ele>880.7</ele>
        <time>2019-03-10T13:29:35Z</time>
      </trkpt>
      <trkpt lat="43.86555" lon="7.25685">
        <ele>880.7</ele>
        <time>2019-03-10T13:29:39Z</time>
      </trkpt>
      <trkpt lat="43.86555" lon="7.25685">
        <ele>880.7</ele>
        <time>2019-03-10T13:29:43Z</time>
      </trkpt>
      <trkpt lat="43.86555" lon="7.25685">
        <ele>880.7</ele>
        <time>2019-03-10T13:29:47Z</time>
      </trkpt>
      <trkpt lat="43.86555" lon="7.25685">
        <ele>880.7</ele>
        <time>2019-03-10T13:29:51Z</time>
      </trkpt>
      <trkpt lat="43.86555" lon="7.25685">
        <ele>880.7</ele>
        <time>2019-03-10T13:29:55Z</time>
      </trkpt>
      <trkpt lat="43.86555" lon="7.25685">
        <ele>880.7</ele>
        <time>2019-03-10T13:29:59Z</time>
      </trkpt>
      <trkpt lat="43.86555" lon="7.25685">
        <ele>880.7</ele>
        <time>2019-03-10T13:30:03Z</time>
      </trkpt>
      <trkpt lat="43.86555" lon="7.25685">
        <ele>880.7</ele>
        <time>2019-03-10T13:30:07Z</time>
      </trkpt>
      <trkpt lat="43.86555" lon="7.25685">
        <ele>880.7</ele>
        <time>2019-03-10T13:30:11Z</time>
      </trkpt>
      <trkpt lat="43.86555" lon="7.25685">
        <ele>880.7</ele>
        <time>2019-03-10T13:30:15Z</time>
      </trkpt>
      <trkpt lat="43.86555" lon="7.25685">
        <ele>880.7</ele>
        <time>2019-03-10T13:30:19Z</time>
      </trkpt>
      <trkpt lat="43.86555" lon="7.25685">
        <ele>880.7</ele>
        <time>2019-03-10T13:30:23Z</time>
      </trkpt>
      <trkpt lat="43.86555" lon="7.25685">
        <ele>880.7</ele>
        <time>2019-03-10T13:30:27Z</time>
      </trkpt>
      <trkpt lat="43.86555" lon="7.25685">
        <ele>880.7</ele>
        <time>2019-03-10T13:30:31Z</time>
      </trkpt>
      <trkpt lat="43.86555" lon="7.25685">
        <ele>880.7</ele>
        <time>2019-03-10T13:30:35Z</time>
      </trkpt>
      <trkpt lat="43.86555" lon="7.25685">
        <ele>880.7</ele>
        <time>2019-03-10T13:30:39Z</time>
      </trkpt>
      <trkpt lat="43.86555" lon="7.25685">
        <ele>880.7</ele>
        <time>2019-03-10T13:30:43Z</time>
      </trkpt>
      <trkpt lat="43.86555" lon="7.25685">
        <ele>880.7</ele>
        <time>2019-03-10T13:30:47Z</time>
      </trkpt>
      <trkpt lat="43.86555" lon="7.25685">
        <ele>880.7</ele>
        <time>2019-03-10T13:30:51Z</time>
      </trkpt>
      <trkpt lat="43.86555" lon="7.25685">
        <ele>880.7</ele>
        <time>2019-03-10T13:30:55Z</time>
      </trkpt>
      <trkpt lat="43.86555" lon="7.25685">
        <ele>880.7</ele>
        <time>2019-03-10T13:30:59Z</time>
      </trkpt>
      <trkpt lat="43.86555" lon="7.25685">
        <ele>880.7</ele>
        <time>2019-03-10T13:31:03Z</time>
      </trkpt>
      <trkpt lat="43.86555" lon="7.25685">
        <ele>880.7</ele>
        <time>2019-03-10T13:31:07Z</time>
      </trkpt>
      <trkpt lat="43.86555" lon="7.25685">
        <ele>880.7</ele>
        <time>2019-03-10T13:31:11Z</time>
      </trkpt>
      <trkpt lat="43.86555" lon="7.25685">
        <ele>880.7</ele>
        <time>2019-03-10T13:31:15Z</time>
      </trkpt>
      <trkpt lat="43.86555" lon="7.25685">
        <ele>880.7</ele>
        <time>2019-03-10T13:31:19Z</time>
      </trkpt>
      <trkpt lat="43.86555" lon="7.25685">
        <ele>880.7</ele>
        <time>2019-03-10T13:31:23Z</time>
      </trkpt>
      <trkpt lat="43.86555" lon="7.25685">
        <ele>880.7</ele>
        <time>2019-03-10T13:31:27Z</time>
      </trkpt>
      <trkpt lat="43.86555" lon="7.25685">
        <ele>880.7</ele>
        <time>2019-03-10T13:31:31Z</time>
      </trkpt>
      <trkpt lat="43.86555" lon="7.25685">
        <ele>880.7</ele>
        <time>2019-03-10T13:31:35Z</time>
      </trkpt>
      <trkpt lat="43.86555" lon="7.25685">
        <ele>880.7</ele>
        <time>2019-03-10T13:31:39Z</time>
      </trkpt>
      <trkpt lat="43.86555" lon="7.25685">
        <ele>880.7</ele>
        <time>2019-03-10T13:31:43Z</time>
      </trkpt>
      <trkpt lat="43.86555" lon="7.25685">
        <ele>880.7</ele>
        <time>2019-03-10T13:31:47Z</time>
      </trkpt>
      <trkpt lat="43.86555" lon="7.25685">
        <ele>880.7</ele>
        <time>2019-03-10T13:31:51Z</time>
      </trkpt>
      <trkpt lat="43.86555" lon="7.25685">
        <ele>880.7</ele>
        <time>2019-03-10T13:31:55Z</time>
      </trkpt>
      <trkpt lat="43.86555" lon="7.25685">
        <ele>880.7</ele>
        <time>2019-03-10T13:31:59Z</time>
      </trkpt>
      <trkpt lat="43.86555" lon="7.25685">
        <ele>880.7</ele>
        <time>2019-03-10T13:32:03Z</time>
      </trkpt>
      <trkpt lat="43.86555" lon="7.25685">
        <ele>880.7</ele>
        <time>2019-03-10T13:32:07Z</time>
      </trkpt>
      <trkpt lat="43.86555" lon="7.25685">
        <ele>880.7</ele>
        <time>2019-03-10T13:32:11Z</time>
      </trkpt>
      <trkpt lat="43.86555" lon="7.25685">
        <ele>880.7</ele>
        <time>2019-03-10T13:32:15Z</time>
      </trkpt>
      <trkpt lat="43.86555" lon="7.25685">
        <ele>880.7</ele>
        <time>2019-03-10T13:32:19Z</time>
      </trkpt>
      <trkpt lat="43.86555" lon="7.25685">
        <ele>880.7</ele>
        <time>2019-03-10T13:32:23Z</time>
      </trkpt>
      <trkpt lat="43.86555" lon="7.25685">
        <ele>880.7</ele>
        <time>2019-03-10T13:32:27Z</time>
      </trkpt>
      <trkpt lat="43.86555" lon="7.25685">
        <ele>880.7</ele>
        <time>2019-03-10T13:32:31Z</time>
      </trkpt>
      <trkpt lat="43.86555" lon="7.25685">
        <ele>880.7</ele>
        <time>2019-03-10T13:32:35Z</time>
      </trkpt>
      <trkpt lat="43.86555" lon="7.25685">
        <ele>880.7</ele>
        <time>2019-03-10T13:32:39Z</time>
      </trkpt>
      <trkpt lat="43.86555" lon="7.25685">
        <ele>880.7</ele>
        <time>2019-03-10T13:32:43Z</time>
      </trkpt>
      <trkpt lat="43.86555" lon="7.25685">
        <ele>880.7</ele>
        <time>2019-03-10T13:32:47Z</time>
      </trkpt>
      <trkpt lat="43.86555" lon="7.25685">
        <ele>880.7</ele>
        <time>2019-03-10T13:32:51Z</time>
      </trkpt>
      <trkpt lat="43.86555" lon="7.25685">
        <ele>880.7</ele>
        <time>2019-03-10T13:32:55Z</time>
      </trkpt>
      <trkpt lat="43.86555" lon="7.25685">
        <ele>880.7</ele>
        <time>2019-03-10T13:32:59Z</time>
      </trkpt>
      <trkpt lat="43.86555" lon="7.25685">
        <ele>880.7</ele>
        <time>2019-03-10T13:33:03Z</time>
      </trkpt>
      <trkpt lat="43.86555" lon="7.25685">
        <ele>880.7</ele>
        <time>2019-03-10T13:33:07Z</time>
      </trkpt>
      <trkpt lat="43.86555" lon="7.25685">
        <ele>880.7</ele>
        <time>2019-03-10T13:33:11Z</time>
      </trkpt>
      <trkpt lat="43.86555" lon="7.25685">
        <ele>880.7</ele>
        <time>2019-03-10T13:33:15Z</time>
      </trkpt>
      <trkpt lat="43.86555" lon="7.25685">
        <ele>880.7</ele>
        <time>2019-03-10T13:33:19Z</time>
      </trkpt>
      <trkpt lat="43.86555" lon="7.25685">
        <ele>880.7</ele>
        <time>2019-03-10T13:33:23Z</time>
      </trkpt>
      <trkpt lat="43.86555" lon="7.25685">
        <ele>880.7</ele>
        <time>2019-03-10T13:33:27Z</time>
      </trkpt>
      <trkpt lat="43.86555" lon="7.25685">
        <ele>880.7</ele>
        <time>2019-03-10T13:33:31Z</time>
      </trkpt>
      <trkpt lat="43.86555" lon="7.25685">
        <ele>880.7</ele>
        <time>2019-03-10T13:33:35Z</time>
      </trkpt>
      <trkpt lat="43.86555" lon="7.25685">
        <ele>880.7</ele>
        <time>2019-03-10T13:33:39Z</time>
      </trkpt>
      <trkpt lat="43.86555" lon="7.25685">
        <ele>880.7</ele>
        <time>2019-03-10T13:33:43Z</time>
      </trkpt>
      <trkpt lat="43.86555" lon="7.25685">
        <ele>880.7</ele>
        <time>2019-03-10T13:33:47Z</time>
      </trkpt>
      <trkpt lat="43.86555" lon="7.25685">
        <ele>880.7</ele>
        <time>2019-03-10T13:33:51Z</time>
      </trkpt>
      <trkpt lat="43.86555" lon="7.25685">
        <ele>880.7</ele>
        <time>2019-03-10T13:33:55Z</time>
      </trkpt>
      <trkpt lat="43.86555" lon="7.25685">
        <ele>880.7</ele>
        <time>2019-03-10T13:33:59Z</time>
      </trkpt>
      <trkpt lat="43.86555" lon="7.25685">
        <ele>880.7</ele>
        <time>2019-03-10T13:34:03Z</time>
      </trkpt>
      <trkpt lat="43.86555" lon="7.25685">
        <ele>880.7</ele>
        <time>2019-03-10T13:34:07Z</time>
      </trkpt>
      <trkpt lat="43.86555" lon="7.25685">
        <ele>880.7</ele>
        <time>2019-03-10T13:34:11Z</time>
      </trkpt>
      <trkpt lat="43.86555" lon="7.25685">
        <ele>880.7</ele>
        <time>2019-03-10T13:34:15Z</time>
      </trkpt>
      <trkpt lat="43.86555" lon="7.25685">
        <ele>880.7</ele>
        <time>2019-03-10T13:34:19Z</time>
      </trkpt>
      <trkpt lat="43.86555" lon="7.25685">
        <ele>880.7</ele>
        <time>2019-03-10T13:34:23Z</time>
      </trkpt>
      <trkpt lat="43.86555" lon="7.25685">
        <ele>880.7</ele>
        <time>2019-03-10T13:34:27Z</time>
      </trkpt>
      <trkpt lat="43.86555" lon="7.25685">
        <ele>880.7</ele>
        <time>2019-03-10T13:34:31Z</time>
      </trkpt>
      <trkpt lat="43.86555" lon="7.25685">
        <ele>880.7</ele>
        <time>2019-03-10T13:34:35Z</time>
      </trkpt>
      <trkpt lat="43.86555" lon="7.25685">
        <ele>880.7</ele>
        <time>2019-03-10T13:34:39Z</time>
      </trkpt>
      <trkpt lat="43.86555" lon="7.25685">
        <ele>880.7</ele>
        <time>2019-03-10T13:34:43Z</time>
      </trkpt>
      <trkpt lat="43.86555" lon="7.25685">
        <ele>880.7</ele>
        <time>2019-03-10T13:34:47Z</time>
      </trkpt>
      <trkpt lat="43.86555" lon="7.25685">
        <ele>880.7</ele>
        <time>2019-03-10T13:34:51Z</time>
      </trkpt>
      <trkpt lat="43.86555" lon="7.25685">
        <ele>880.7</ele>
        <time>2019-03-10T13:34:55Z</time>
      </trkpt>
      <trkpt lat="43.86555" lon="7.25685">
        <ele>880.7</ele>
        <time>2019-03-10T13:34:59Z</time>
      </trkpt>
      <trkpt lat="43.86555" lon="7.25685">
        <ele>880.7</ele>
        <time>2019-03-10T13:35:03Z</time>
      </trkpt>
      <trkpt lat="43.86555" lon="7.25685">
        <ele>880.7</ele>
        <time>2019-03-10T13:35:07Z</time>
      </trkpt>
      <trkpt lat="43.86555" lon="7.25685">
        <ele>880.7</ele>
        <time>2019-03-10T13:35:11Z</time>
      </trkpt>
      <trkpt lat="43.86555" lon="7.25685">
        <ele>880.7</ele>
        <time>2019-03-10T13:35:15Z</time>
      </trkpt>
      <trkpt lat="43.86555" lon="7.25685">
        <ele>880.7</ele>
        <time>2019-03-10T13:35:19Z</time>
      </trkpt>
      <trkpt lat="43.86555" lon="7.25685">
        <ele>880.7</ele>
        <time>2019-03-10T13:35:23Z</time>
      </trkpt>
      <trkpt lat="43.86555" lon="7.25685">
        <ele>880.7</ele>
        <time>2019-03-10T13:35:27Z</time>
      </trkpt>
      <trkpt lat="43.86555" lon="7.25685">
        <ele>880.7</ele>
        <time>2019-03-10T13:35:31Z</time>
      </trkpt>
      <trkpt lat="43.86555" lon="7.25685">
        <ele>880.7</ele>
        <time>2019-03-10T13:35:35Z</time>
      </trkpt>
      <trkpt lat="43.86555" lon="7.25685">
        <ele>880.7</ele>
        <time>2019-03-10T13:35:39Z</time>
      </trkpt>
      <trkpt lat="43.86555" lon="7.25685">
        <ele>880.7</ele>
        <time>2019-03-10T13:35:43Z</time>
      </trkpt>
      <trkpt lat="43.86555" lon="7.25685">
        <ele>880.7</ele>
        <time>2019-03-10T13:35:47Z</time>
      </trkpt>
      <trkpt lat="43.86555" lon="7.25685">
        <ele>880.7</ele>
        <time>2019-03-10T13:35:51Z</time>
      </trkpt>
      <trkpt lat="43.86555" lon="7.25685">
        <ele>880.7</ele>
        <time>2019-03-10T13:35:55Z</time>
      </trkpt>
      <trkpt lat="43.86555" lon="7.25685">
        <ele>880.7</ele>
        <time>2019-03-10T13:35:59Z</time>
      </trkpt>
      <trkpt lat="43.86555" lon="7.25685">
        <ele>880.7</ele>
        <time>2019-03-10T13:36:03Z</time>
      </trkpt>
      <trkpt lat="43.86555" lon="7.25685">
        <ele>880.7</ele>
        <time>2019-03-10T13:36:07Z</time>
      </trkpt>
      <trkpt lat="43.86555" lon="7.25685">
        <ele>880.7</ele>
        <time>2019-03-10T13:36:11Z</time>
      </trkpt>
      <trkpt lat="43.86555" lon="7.25685">
        <ele>880.7</ele>
        <time>2019-03-10T13:36:15Z</time>
      </trkpt>
      <trkpt lat="43.86555" lon="7.25685">
        <ele>880.7</ele>
        <time>2019-03-10T13:36:19Z</time>
      </trkpt>
      <trkpt lat="43.86555" lon="7.25685">
        <ele>880.7</ele>
        <time>2019-03-10T13:36:23Z</time>
      </trkpt>
      <trkpt lat="43.86555" lon="7.25685">
        <ele>880.7</ele>
        <time>2019-03-10T13:36:27Z</time>
      </trkpt>
      <trkpt lat="43.86555" lon="7.25685">
        <ele>880.7</ele>
        <time>2019-03-10T13:36:31Z</time>
      </trkpt>
      <trkpt lat="43.86555" lon="7.25685">
        <ele>880.7</ele>
        <time>2019-03-10T13:36:35Z</time>
      </trkpt>
      <trkpt lat="43.86555" lon="7.25685">
        <ele>880.7</ele>
        <time>2019-03-10T13:36:39Z</time>
      </trkpt>
      <trkpt lat="43.86555" lon="7.25685">
        <ele>880.7</ele>
        <time>2019-03-10T13:36:43Z</time>
      </trkpt>
      <trkpt lat="43.86555" lon="7.25685">
        <ele>880.7</ele>
        <time>2019-03-10T13:36:47Z</time>
      </trkpt>
      <trkpt lat="43.86555" lon="7.25685">
        <ele>880.7</ele>
        <time>2019-03-10T13:36:51Z</time>
      </trkpt>
      <trkpt lat="43.86553" lon="7.25691">
        <ele>881.2</ele>
        <time>2019-03-10T13:36:55Z</time>
      </trkpt>
      <trkpt lat="43.86553" lon="7.25691">
        <ele>881.2</ele>
        <time>2019-03-10T13:36:59Z</time>
      </trkpt>
      <trkpt lat="43.86555" lon="7.25693">
        <ele>881.4</ele>
        <time>2019-03-10T13:37:03Z</time>
      </trkpt>
      <trkpt lat="43.86556" lon="7.25697">
        <ele>881.8</ele>
        <time>2019-03-10T13:37:07Z</time>
      </trkpt>
      <trkpt lat="43.86557" lon="7.25702">
        <ele>882.3</ele>
        <time>2019-03-10T13:37:11Z</time>
      </trkpt>
      <trkpt lat="43.86559" lon="7.25708">
        <ele>882.7</ele>
        <time>2019-03-10T13:37:15Z</time>
      </trkpt>
      <trkpt lat="43.86563" lon="7.25714">
        <ele>883.1</ele>
        <time>2019-03-10T13:37:19Z</time>
      </trkpt>
      <trkpt lat="43.86569" lon="7.25717">
        <ele>883.6</ele>
        <time>2019-03-10T13:37:23Z</time>
      </trkpt>
      <trkpt lat="43.86574" lon="7.25712">
        <ele>883.7</ele>
        <time>2019-03-10T13:37:27Z</time>
      </trkpt>
      <trkpt lat="43.86575" lon="7.25704">
        <ele>883.8</ele>
        <time>2019-03-10T13:37:31Z</time>
      </trkpt>
      <trkpt lat="43.86573" lon="7.25696">
        <ele>883.9</ele>
        <time>2019-03-10T13:37:35Z</time>
      </trkpt>
      <trkpt lat="43.86571" lon="7.25688">
        <ele>884</ele>
        <time>2019-03-10T13:37:39Z</time>
      </trkpt>
      <trkpt lat="43.8657" lon="7.25677">
        <ele>884.1</ele>
        <time>2019-03-10T13:37:43Z</time>
      </trkpt>
      <trkpt lat="43.86568" lon="7.25667">
        <ele>884.3</ele>
        <time>2019-03-10T13:37:47Z</time>
      </trkpt>
      <trkpt lat="43.86567" lon="7.25658">
        <ele>884.5</ele>
        <time>2019-03-10T13:37:51Z</time>
      </trkpt>
      <trkpt lat="43.86565" lon="7.25649">
        <ele>884.7</ele>
        <time>2019-03-10T13:37:55Z</time>
      </trkpt>
      <trkpt lat="43.86561" lon="7.2564">
        <ele>885.1</ele>
        <time>2019-03-10T13:37:59Z</time>
      </trkpt>
      <trkpt lat="43.86557" lon="7.25632">
        <ele>885.5</ele>
        <time>2019-03-10T13:38:03Z</time>
      </trkpt>
      <trkpt lat="43.86553" lon="7.25623">
        <ele>886.2</ele>
        <time>2019-03-10T13:38:07Z</time>
      </trkpt>
      <trkpt lat="43.8655" lon="7.25614">
        <ele>886.7</ele>
        <time>2019-03-10T13:38:11Z</time>
      </trkpt>
      <trkpt lat="43.86548" lon="7.25605">
        <ele>887.2</ele>
        <time>2019-03-10T13:38:15Z</time>
      </trkpt>
      <trkpt lat="43.86547" lon="7.25595">
        <ele>887.7</ele>
        <time>2019-03-10T13:38:19Z</time>
      </trkpt>
      <trkpt lat="43.86547" lon="7.25586">
        <ele>888.1</ele>
        <time>2019-03-10T13:38:23Z</time>
      </trkpt>
      <trkpt lat="43.86547" lon="7.25577">
        <ele>888.7</ele>
        <time>2019-03-10T13:38:27Z</time>
      </trkpt>
      <trkpt lat="43.86546" lon="7.25567">
        <ele>889.1</ele>
        <time>2019-03-10T13:38:31Z</time>
      </trkpt>
      <trkpt lat="43.86547" lon="7.25558">
        <ele>889.5</ele>
        <time>2019-03-10T13:38:35Z</time>
      </trkpt>
      <trkpt lat="43.86548" lon="7.25548">
        <ele>891.1</ele>
        <time>2019-03-10T13:38:39Z</time>
      </trkpt>
      <trkpt lat="43.86548" lon="7.25539">
        <ele>891.7</ele>
        <time>2019-03-10T13:38:43Z</time>
      </trkpt>
      <trkpt lat="43.8655" lon="7.25529">
        <ele>893.2</ele>
        <time>2019-03-10T13:38:47Z</time>
      </trkpt>
      <trkpt lat="43.86551" lon="7.2552">
        <ele>894.3</ele>
        <time>2019-03-10T13:38:51Z</time>
      </trkpt>
      <trkpt lat="43.86551" lon="7.2551">
        <ele>895.5</ele>
        <time>2019-03-10T13:38:55Z</time>
      </trkpt>
      <trkpt lat="43.86551" lon="7.255">
        <ele>896.4</ele>
        <time>2019-03-10T13:38:59Z</time>
      </trkpt>
      <trkpt lat="43.86552" lon="7.2549">
        <ele>897.2</ele>
        <time>2019-03-10T13:39:03Z</time>
      </trkpt>
      <trkpt lat="43.86551" lon="7.2548">
        <ele>897.9</ele>
        <time>2019-03-10T13:39:07Z</time>
      </trkpt>
      <trkpt lat="43.8655" lon="7.2547">
        <ele>898.5</ele>
        <time>2019-03-10T13:39:11Z</time>
      </trkpt>
      <trkpt lat="43.86549" lon="7.2546">
        <ele>899</ele>
        <time>2019-03-10T13:39:15Z</time>
      </trkpt>
      <trkpt lat="43.86547" lon="7.2545">
        <ele>899.5</ele>
        <time>2019-03-10T13:39:19Z</time>
      </trkpt>
      <trkpt lat="43.86546" lon="7.25441">
        <ele>900.1</ele>
        <time>2019-03-10T13:39:23Z</time>
      </trkpt>
      <trkpt lat="43.86545" lon="7.25431">
        <ele>900.9</ele>
        <time>2019-03-10T13:39:27Z</time>
      </trkpt>
      <trkpt lat="43.86544" lon="7.25422">
        <ele>901.8</ele>
        <time>2019-03-10T13:39:31Z</time>
      </trkpt>
      <trkpt lat="43.86542" lon="7.25412">
        <ele>902.8</ele>
        <time>2019-03-10T13:39:35Z</time>
      </trkpt>
      <trkpt lat="43.8654" lon="7.25402">
        <ele>903.8</ele>
        <time>2019-03-10T13:39:39Z</time>
      </trkpt>
      <trkpt lat="43.86538" lon="7.25393">
        <ele>904.6</ele>
        <time>2019-03-10T13:39:43Z</time>
      </trkpt>
      <trkpt lat="43.86536" lon="7.25383">
        <ele>905.4</ele>
        <time>2019-03-10T13:39:47Z</time>
      </trkpt>
      <trkpt lat="43.86534" lon="7.25373">
        <ele>906.1</ele>
        <time>2019-03-10T13:39:51Z</time>
      </trkpt>
      <trkpt lat="43.86532" lon="7.25363">
        <ele>906.9</ele>
        <time>2019-03-10T13:39:55Z</time>
      </trkpt>
      <trkpt lat="43.8653" lon="7.25353">
        <ele>907.7</ele>
        <time>2019-03-10T13:39:59Z</time>
      </trkpt>
      <trkpt lat="43.86529" lon="7.25343">
        <ele>908.4</ele>
        <time>2019-03-10T13:40:03Z</time>
      </trkpt>
      <trkpt lat="43.86528" lon="7.25333">
        <ele>909.2</ele>
        <time>2019-03-10T13:40:07Z</time>
      </trkpt>
      <trkpt lat="43.86527" lon="7.25323">
        <ele>910</ele>
        <time>2019-03-10T13:40:11Z</time>
      </trkpt>
      <trkpt lat="43.86526" lon="7.25314">
        <ele>910.6</ele>
        <time>2019-03-10T13:40:15Z</time>
      </trkpt>
      <trkpt lat="43.86527" lon="7.25305">
        <ele>911.2</ele>
        <time>2019-03-10T13:40:19Z</time>
      </trkpt>
      <trkpt lat="43.86532" lon="7.25303">
        <ele>911.6</ele>
        <time>2019-03-10T13:40:23Z</time>
      </trkpt>
      <trkpt lat="43.86535" lon="7.2531">
        <ele>912.1</ele>
        <time>2019-03-10T13:40:27Z</time>
      </trkpt>
      <trkpt lat="43.86536" lon="7.25319">
        <ele>912.7</ele>
        <time>2019-03-10T13:40:31Z</time>
      </trkpt>
      <trkpt lat="43.86538" lon="7.25328">
        <ele>913.3</ele>
        <time>2019-03-10T13:40:35Z</time>
      </trkpt>
      <trkpt lat="43.86539" lon="7.25338">
        <ele>913.9</ele>
        <time>2019-03-10T13:40:39Z</time>
      </trkpt>
      <trkpt lat="43.86541" lon="7.25347">
        <ele>914.4</ele>
        <time>2019-03-10T13:40:43Z</time>
      </trkpt>
      <trkpt lat="43.86544" lon="7.25357">
        <ele>915</ele>
        <time>2019-03-10T13:40:47Z</time>
      </trkpt>
      <trkpt lat="43.86546" lon="7.25366">
        <ele>915.6</ele>
        <time>2019-03-10T13:40:51Z</time>
      </trkpt>
      <trkpt lat="43.86549" lon="7.25374">
        <ele>916.2</ele>
        <time>2019-03-10T13:40:55Z</time>
      </trkpt>
      <trkpt lat="43.86552" lon="7.25383">
        <ele>916.9</ele>
        <time>2019-03-10T13:40:59Z</time>
      </trkpt>
      <trkpt lat="43.86555" lon="7.25392">
        <ele>917.7</ele>
        <time>2019-03-10T13:41:03Z</time>
      </trkpt>
      <trkpt lat="43.8656" lon="7.254">
        <ele>918.6</ele>
        <time>2019-03-10T13:41:07Z</time>
      </trkpt>
      <trkpt lat="43.86563" lon="7.25408">
        <ele>919.5</ele>
        <time>2019-03-10T13:41:11Z</time>
      </trkpt>
      <trkpt lat="43.86566" lon="7.25416">
        <ele>920.4</ele>
        <time>2019-03-10T13:41:15Z</time>
      </trkpt>
      <trkpt lat="43.8657" lon="7.25424">
        <ele>921.3</ele>
        <time>2019-03-10T13:41:19Z</time>
      </trkpt>
      <trkpt lat="43.86574" lon="7.25431">
        <ele>922</ele>
        <time>2019-03-10T13:41:23Z</time>
      </trkpt>
      <trkpt lat="43.86578" lon="7.25437">
        <ele>922.7</ele>
        <time>2019-03-10T13:41:27Z</time>
      </trkpt>
      <trkpt lat="43.86581" lon="7.25445">
        <ele>923.4</ele>
        <time>2019-03-10T13:41:31Z</time>
      </trkpt>
      <trkpt lat="43.86585" lon="7.25453">
        <ele>924.2</ele>
        <time>2019-03-10T13:41:35Z</time>
      </trkpt>
      <trkpt lat="43.86589" lon="7.2546">
        <ele>924.9</ele>
        <time>2019-03-10T13:41:39Z</time>
      </trkpt>
      <trkpt lat="43.86594" lon="7.25468">
        <ele>925.7</ele>
        <time>2019-03-10T13:41:43Z</time>
      </trkpt>
      <trkpt lat="43.86598" lon="7.25476">
        <ele>926.5</ele>
        <time>2019-03-10T13:41:47Z</time>
      </trkpt>
      <trkpt lat="43.86602" lon="7.25484">
        <ele>927.2</ele>
        <time>2019-03-10T13:41:51Z</time>
      </trkpt>
      <trkpt lat="43.86606" lon="7.25493">
        <ele>927.9</ele>
        <time>2019-03-10T13:41:55Z</time>
      </trkpt>
      <trkpt lat="43.86609" lon="7.25502">
        <ele>928.5</ele>
        <time>2019-03-10T13:41:59Z</time>
      </trkpt>
      <trkpt lat="43.86612" lon="7.25511">
        <ele>929.1</ele>
        <time>2019-03-10T13:42:03Z</time>
      </trkpt>
      <trkpt lat="43.86615" lon="7.2552">
        <ele>929.8</ele>
        <time>2019-03-10T13:42:07Z</time>
      </trkpt>
      <trkpt lat="43.86619" lon="7.25528">
        <ele>930.5</ele>
        <time>2019-03-10T13:42:11Z</time>
      </trkpt>
      <trkpt lat="43.86622" lon="7.25537">
        <ele>931.4</ele>
        <time>2019-03-10T13:42:15Z</time>
      </trkpt>
      <trkpt lat="43.86626" lon="7.25546">
        <ele>932.3</ele>
        <time>2019-03-10T13:42:19Z</time>
      </trkpt>
      <trkpt lat="43.86629" lon="7.25556">
        <ele>933.2</ele>
        <time>2019-03-10T13:42:23Z</time>
      </trkpt>
      <trkpt lat="43.86633" lon="7.25564">
        <ele>933.9</ele>
        <time>2019-03-10T13:42:27Z</time>
      </trkpt>
      <trkpt lat="43.86636" lon="7.25572">
        <ele>934.7</ele>
        <time>2019-03-10T13:42:31Z</time>
      </trkpt>
      <trkpt lat="43.86641" lon="7.25582">
        <ele>935.5</ele>
        <time>2019-03-10T13:42:35Z</time>
      </trkpt>
      <trkpt lat="43.86643" lon="7.25592">
        <ele>936.3</ele>
        <time>2019-03-10T13:42:39Z</time>
      </trkpt>
      <trkpt lat="43.86647" lon="7.25604">
        <ele>937.2</ele>
        <time>2019-03-10T13:42:43Z</time>
      </trkpt>
      <trkpt lat="43.86651" lon="7.25614">
        <ele>938.2</ele>
        <time>2019-03-10T13:42:47Z</time>
      </trkpt>
      <trkpt lat="43.86656" lon="7.25625">
        <ele>939.6</ele>
        <time>2019-03-10T13:42:51Z</time>
      </trkpt>
      <trkpt lat="43.86661" lon="7.25636">
        <ele>941</ele>
        <time>2019-03-10T13:42:55Z</time>
      </trkpt>
      <trkpt lat="43.86666" lon="7.25648">
        <ele>942.3</ele>
        <time>2019-03-10T13:42:59Z</time>
      </trkpt>
      <trkpt lat="43.86672" lon="7.25662">
        <ele>943.5</ele>
        <time>2019-03-10T13:43:03Z</time>
      </trkpt>
      <trkpt lat="43.86679" lon="7.25673">
        <ele>944.7</ele>
        <time>2019-03-10T13:43:07Z</time>
      </trkpt>
      <trkpt lat="43.86687" lon="7.25684">
        <ele>945.7</ele>
        <time>2019-03-10T13:43:11Z</time>
      </trkpt>
      <trkpt lat="43.86693" lon="7.25692">
        <ele>946.7</ele>
        <time>2019-03-10T13:43:15Z</time>
      </trkpt>
      <trkpt lat="43.86699" lon="7.25701">
        <ele>947.7</ele>
        <time>2019-03-10T13:43:19Z</time>
      </trkpt>
      <trkpt lat="43.86704" lon="7.2571">
        <ele>948.6</ele>
        <time>2019-03-10T13:43:23Z</time>
      </trkpt>
      <trkpt lat="43.86709" lon="7.2572">
        <ele>949.4</ele>
        <time>2019-03-10T13:43:27Z</time>
      </trkpt>
      <trkpt lat="43.86712" lon="7.25731">
        <ele>950</ele>
        <time>2019-03-10T13:43:31Z</time>
      </trkpt>
      <trkpt lat="43.86714" lon="7.25741">
        <ele>950.4</ele>
        <time>2019-03-10T13:43:35Z</time>
      </trkpt>
      <trkpt lat="43.86717" lon="7.25753">
        <ele>950.9</ele>
        <time>2019-03-10T13:43:39Z</time>
      </trkpt>
      <trkpt lat="43.86719" lon="7.25763">
        <ele>951.4</ele>
        <time>2019-03-10T13:43:43Z</time>
      </trkpt>
      <trkpt lat="43.86722" lon="7.25772">
        <ele>952</ele>
        <time>2019-03-10T13:43:47Z</time>
      </trkpt>
      <trkpt lat="43.86726" lon="7.25779">
        <ele>952.7</ele>
        <time>2019-03-10T13:43:51Z</time>
      </trkpt>
      <trkpt lat="43.8673" lon="7.25788">
        <ele>953.5</ele>
        <time>2019-03-10T13:43:55Z</time>
      </trkpt>
      <trkpt lat="43.86732" lon="7.25796">
        <ele>954.6</ele>
        <time>2019-03-10T13:43:59Z</time>
      </trkpt>
      <trkpt lat="43.86735" lon="7.25802">
        <ele>954.5</ele>
        <time>2019-03-10T13:44:03Z</time>
      </trkpt>
      <trkpt lat="43.86737" lon="7.25809">
        <ele>954.3</ele>
        <time>2019-03-10T13:44:07Z</time>
      </trkpt>
      <trkpt lat="43.8674" lon="7.25815">
        <ele>954.1</ele>
        <time>2019-03-10T13:44:11Z</time>
      </trkpt>
      <trkpt lat="43.86743" lon="7.25818">
        <ele>954</ele>
        <time>2019-03-10T13:44:15Z</time>
      </trkpt>
      <trkpt lat="43.86745" lon="7.25821">
        <ele>953.8</ele>
        <time>2019-03-10T13:44:19Z</time>
      </trkpt>
      <trkpt lat="43.86747" lon="7.25825">
        <ele>953.7</ele>
        <time>2019-03-10T13:44:23Z</time>
      </trkpt>
      <trkpt lat="43.86747" lon="7.25825">
        <ele>953.7</ele>
        <time>2019-03-10T13:44:27Z</time>
      </trkpt>
      <trkpt lat="43.86747" lon="7.25828">
        <ele>953.7</ele>
        <time>2019-03-10T13:44:31Z</time>
      </trkpt>
      <trkpt lat="43.86748" lon="7.25829">
        <ele>953.6</ele>
        <time>2019-03-10T13:44:35Z</time>
      </trkpt>
      <trkpt lat="43.86751" lon="7.25835">
        <ele>953.4</ele>
        <time>2019-03-10T13:44:39Z</time>
      </trkpt>
      <trkpt lat="43.86755" lon="7.25841">
        <ele>954.1</ele>
        <time>2019-03-10T13:44:43Z</time>
      </trkpt>
      <trkpt lat="43.8676" lon="7.25846">
        <ele>954.8</ele>
        <time>2019-03-10T13:44:47Z</time>
      </trkpt>
      <trkpt lat="43.86765" lon="7.2585">
        <ele>955.4</ele>
        <time>2019-03-10T13:44:51Z</time>
      </trkpt>
      <trkpt lat="43.86771" lon="7.25854">
        <ele>956.1</ele>
        <time>2019-03-10T13:44:55Z</time>
      </trkpt>
      <trkpt lat="43.86776" lon="7.25857">
        <ele>956.7</ele>
        <time>2019-03-10T13:44:59Z</time>
      </trkpt>
      <trkpt lat="43.86782" lon="7.25862">
        <ele>957.4</ele>
        <time>2019-03-10T13:45:03Z</time>
      </trkpt>
      <trkpt lat="43.86787" lon="7.25867">
        <ele>958</ele>
        <time>2019-03-10T13:45:07Z</time>
      </trkpt>
      <trkpt lat="43.86793" lon="7.25871">
        <ele>958.6</ele>
        <time>2019-03-10T13:45:11Z</time>
      </trkpt>
      <trkpt lat="43.86797" lon="7.25875">
        <ele>959.1</ele>
        <time>2019-03-10T13:45:15Z</time>
      </trkpt>
      <trkpt lat="43.86804" lon="7.25879">
        <ele>959.9</ele>
        <time>2019-03-10T13:45:19Z</time>
      </trkpt>
      <trkpt lat="43.86811" lon="7.25882">
        <ele>960.6</ele>
        <time>2019-03-10T13:45:23Z</time>
      </trkpt>
      <trkpt lat="43.86817" lon="7.25886">
        <ele>961.2</ele>
        <time>2019-03-10T13:45:27Z</time>
      </trkpt>
      <trkpt lat="43.86822" lon="7.25892">
        <ele>961.8</ele>
        <time>2019-03-10T13:45:31Z</time>
      </trkpt>
      <trkpt lat="43.86826" lon="7.25898">
        <ele>962.3</ele>
        <time>2019-03-10T13:45:35Z</time>
      </trkpt>
      <trkpt lat="43.86827" lon="7.25905">
        <ele>962.9</ele>
        <time>2019-03-10T13:45:39Z</time>
      </trkpt>
      <trkpt lat="43.86826" lon="7.25912">
        <ele>963.5</ele>
        <time>2019-03-10T13:45:43Z</time>
      </trkpt>
      <trkpt lat="43.86823" lon="7.25919">
        <ele>964.1</ele>
        <time>2019-03-10T13:45:47Z</time>
      </trkpt>
      <trkpt lat="43.86816" lon="7.25925">
        <ele>964.9</ele>
        <time>2019-03-10T13:45:51Z</time>
      </trkpt>
      <trkpt lat="43.86808" lon="7.25929">
        <ele>965.8</ele>
        <time>2019-03-10T13:45:55Z</time>
      </trkpt>
      <trkpt lat="43.86799" lon="7.25934">
        <ele>966.8</ele>
        <time>2019-03-10T13:45:59Z</time>
      </trkpt>
      <trkpt lat="43.86792" lon="7.2594">
        <ele>967.7</ele>
        <time>2019-03-10T13:46:03Z</time>
      </trkpt>
      <trkpt lat="43.86787" lon="7.25946">
        <ele>968.5</ele>
        <time>2019-03-10T13:46:07Z</time>
      </trkpt>
      <trkpt lat="43.86778" lon="7.25951">
        <ele>969.5</ele>
        <time>2019-03-10T13:46:11Z</time>
      </trkpt>
      <trkpt lat="43.86768" lon="7.25955">
        <ele>970.5</ele>
        <time>2019-03-10T13:46:15Z</time>
      </trkpt>
      <trkpt lat="43.86762" lon="7.2596">
        <ele>971.2</ele>
        <time>2019-03-10T13:46:19Z</time>
      </trkpt>
      <trkpt lat="43.86788" lon="7.25985">
        <ele>973.6</ele>
        <time>2019-03-10T13:46:23Z</time>
      </trkpt>
      <trkpt lat="43.86793" lon="7.25997">
        <ele>974.3</ele>
        <time>2019-03-10T13:46:27Z</time>
      </trkpt>
      <trkpt lat="43.86799" lon="7.26002">
        <ele>974.9</ele>
        <time>2019-03-10T13:46:31Z</time>
      </trkpt>
      <trkpt lat="43.86806" lon="7.25998">
        <ele>975.5</ele>
        <time>2019-03-10T13:46:35Z</time>
      </trkpt>
      <trkpt lat="43.86811" lon="7.25988">
        <ele>976.1</ele>
        <time>2019-03-10T13:46:39Z</time>
      </trkpt>
      <trkpt lat="43.86815" lon="7.25978">
        <ele>976.7</ele>
        <time>2019-03-10T13:46:43Z</time>
      </trkpt>
      <trkpt lat="43.8682" lon="7.25969">
        <ele>977.2</ele>
        <time>2019-03-10T13:46:47Z</time>
      </trkpt>
      <trkpt lat="43.86824" lon="7.25958">
        <ele>977.7</ele>
        <time>2019-03-10T13:46:51Z</time>
      </trkpt>
      <trkpt lat="43.8683" lon="7.25948">
        <ele>978.3</ele>
        <time>2019-03-10T13:46:55Z</time>
      </trkpt>
      <trkpt lat="43.86835" lon="7.25939">
        <ele>979</ele>
        <time>2019-03-10T13:46:59Z</time>
      </trkpt>
      <trkpt lat="43.86841" lon="7.25932">
        <ele>979.7</ele>
        <time>2019-03-10T13:47:03Z</time>
      </trkpt>
      <trkpt lat="43.86848" lon="7.25927">
        <ele>980.5</ele>
        <time>2019-03-10T13:47:07Z</time>
      </trkpt>
      <trkpt lat="43.86855" lon="7.25922">
        <ele>981.3</ele>
        <time>2019-03-10T13:47:11Z</time>
      </trkpt>
      <trkpt lat="43.86858" lon="7.25913">
        <ele>982.1</ele>
        <time>2019-03-10T13:47:15Z</time>
      </trkpt>
      <trkpt lat="43.8686" lon="7.25903">
        <ele>982.9</ele>
        <time>2019-03-10T13:47:19Z</time>
      </trkpt>
      <trkpt lat="43.86859" lon="7.25894">
        <ele>983.5</ele>
        <time>2019-03-10T13:47:23Z</time>
      </trkpt>
      <trkpt lat="43.86856" lon="7.25886">
        <ele>984.2</ele>
        <time>2019-03-10T13:47:27Z</time>
      </trkpt>
      <trkpt lat="43.86852" lon="7.25877">
        <ele>984.8</ele>
        <time>2019-03-10T13:47:31Z</time>
      </trkpt>
      <trkpt lat="43.86848" lon="7.25869">
        <ele>985.6</ele>
        <time>2019-03-10T13:47:35Z</time>
      </trkpt>
      <trkpt lat="43.86843" lon="7.25861">
        <ele>986.3</ele>
        <time>2019-03-10T13:47:39Z</time>
      </trkpt>
      <trkpt lat="43.86837" lon="7.25853">
        <ele>986.7</ele>
        <time>2019-03-10T13:47:43Z</time>
      </trkpt>
      <trkpt lat="43.86832" lon="7.25845">
        <ele>986.9</ele>
        <time>2019-03-10T13:47:47Z</time>
      </trkpt>
      <trkpt lat="43.86828" lon="7.25836">
        <ele>987.1</ele>
        <time>2019-03-10T13:47:51Z</time>
      </trkpt>
      <trkpt lat="43.86825" lon="7.25827">
        <ele>987.6</ele>
        <time>2019-03-10T13:47:55Z</time>
      </trkpt>
      <trkpt lat="43.86821" lon="7.25818">
        <ele>988.6</ele>
        <time>2019-03-10T13:47:59Z</time>
      </trkpt>
      <trkpt lat="43.86817" lon="7.25808">
        <ele>989.7</ele>
        <time>2019-03-10T13:48:03Z</time>
      </trkpt>
      <trkpt lat="43.86813" lon="7.25799">
        <ele>990.8</ele>
        <time>2019-03-10T13:48:07Z</time>
      </trkpt>
      <trkpt lat="43.8681" lon="7.2579">
        <ele>991.9</ele>
        <time>2019-03-10T13:48:11Z</time>
      </trkpt>
      <trkpt lat="43.86806" lon="7.2578">
        <ele>992.8</ele>
        <time>2019-03-10T13:48:15Z</time>
      </trkpt>
      <trkpt lat="43.86802" lon="7.2577">
        <ele>993.6</ele>
        <time>2019-03-10T13:48:19Z</time>
      </trkpt>
      <trkpt lat="43.86799" lon="7.25761">
        <ele>994.5</ele>
        <time>2019-03-10T13:48:23Z</time>
      </trkpt>
      <trkpt lat="43.86796" lon="7.25752">
        <ele>995.4</ele>
        <time>2019-03-10T13:48:27Z</time>
      </trkpt>
      <trkpt lat="43.86793" lon="7.25742">
        <ele>996.3</ele>
        <time>2019-03-10T13:48:31Z</time>
      </trkpt>
      <trkpt lat="43.8679" lon="7.25732">
        <ele>997.3</ele>
        <time>2019-03-10T13:48:35Z</time>
      </trkpt>
      <trkpt lat="43.86786" lon="7.25723">
        <ele>998.2</ele>
        <time>2019-03-10T13:48:39Z</time>
      </trkpt>
      <trkpt lat="43.86783" lon="7.25713">
        <ele>999.2</ele>
        <time>2019-03-10T13:48:43Z</time>
      </trkpt>
      <trkpt lat="43.8678" lon="7.25704">
        <ele>1000.1</ele>
        <time>2019-03-10T13:48:47Z</time>
      </trkpt>
      <trkpt lat="43.86777" lon="7.25694">
        <ele>1001.1</ele>
        <time>2019-03-10T13:48:51Z</time>
      </trkpt>
      <trkpt lat="43.86774" lon="7.25684">
        <ele>1001.9</ele>
        <time>2019-03-10T13:48:55Z</time>
      </trkpt>
      <trkpt lat="43.86771" lon="7.25675">
        <ele>1002.7</ele>
        <time>2019-03-10T13:48:59Z</time>
      </trkpt>
      <trkpt lat="43.86768" lon="7.25665">
        <ele>1003.6</ele>
        <time>2019-03-10T13:49:03Z</time>
      </trkpt>
      <trkpt lat="43.86767" lon="7.25656">
        <ele>1004.5</ele>
        <time>2019-03-10T13:49:07Z</time>
      </trkpt>
      <trkpt lat="43.86765" lon="7.25646">
        <ele>1005.4</ele>
        <time>2019-03-10T13:49:11Z</time>
      </trkpt>
      <trkpt lat="43.86763" lon="7.25636">
        <ele>1006.3</ele>
        <time>2019-03-10T13:49:15Z</time>
      </trkpt>
      <trkpt lat="43.86761" lon="7.25627">
        <ele>1007.1</ele>
        <time>2019-03-10T13:49:19Z</time>
      </trkpt>
      <trkpt lat="43.86759" lon="7.25617">
        <ele>1007.8</ele>
        <time>2019-03-10T13:49:23Z</time>
      </trkpt>
      <trkpt lat="43.86757" lon="7.25608">
        <ele>1008.6</ele>
        <time>2019-03-10T13:49:27Z</time>
      </trkpt>
      <trkpt lat="43.86754" lon="7.25598">
        <ele>1009.6</ele>
        <time>2019-03-10T13:49:31Z</time>
      </trkpt>
      <trkpt lat="43.86753" lon="7.25589">
        <ele>1010.5</ele>
        <time>2019-03-10T13:49:35Z</time>
      </trkpt>
      <trkpt lat="43.8675" lon="7.25579">
        <ele>1011.5</ele>
        <time>2019-03-10T13:49:39Z</time>
      </trkpt>
      <trkpt lat="43.86748" lon="7.2557">
        <ele>1012.4</ele>
        <time>2019-03-10T13:49:43Z</time>
      </trkpt>
      <trkpt lat="43.86745" lon="7.2556">
        <ele>1013.4</ele>
        <time>2019-03-10T13:49:47Z</time>
      </trkpt>
      <trkpt lat="43.86741" lon="7.2555">
        <ele>1014.3</ele>
        <time>2019-03-10T13:49:51Z</time>
      </trkpt>
      <trkpt lat="43.86738" lon="7.25541">
        <ele>1015.1</ele>
        <time>2019-03-10T13:49:55Z</time>
      </trkpt>
      <trkpt lat="43.86739" lon="7.25531">
        <ele>1015.8</ele>
        <time>2019-03-10T13:49:59Z</time>
      </trkpt>
      <trkpt lat="43.86743" lon="7.25528">
        <ele>1016.3</ele>
        <time>2019-03-10T13:50:03Z</time>
      </trkpt>
      <trkpt lat="43.86743" lon="7.25528">
        <ele>1016.3</ele>
        <time>2019-03-10T13:50:07Z</time>
      </trkpt>
      <trkpt lat="43.86743" lon="7.25528">
        <ele>1016.3</ele>
        <time>2019-03-10T13:50:11Z</time>
      </trkpt>
      <trkpt lat="43.86743" lon="7.25528">
        <ele>1016.3</ele>
        <time>2019-03-10T13:50:15Z</time>
      </trkpt>
      <trkpt lat="43.86743" lon="7.25528">
        <ele>1016.3</ele>
        <time>2019-03-10T13:50:19Z</time>
      </trkpt>
      <trkpt lat="43.86743" lon="7.25528">
        <ele>1016.3</ele>
        <time>2019-03-10T13:50:23Z</time>
      </trkpt>
      <trkpt lat="43.86743" lon="7.25528">
        <ele>1016.3</ele>
        <time>2019-03-10T13:50:27Z</time>
      </trkpt>
      <trkpt lat="43.86743" lon="7.25528">
        <ele>1016.3</ele>
        <time>2019-03-10T13:50:31Z</time>
      </trkpt>
      <trkpt lat="43.86743" lon="7.25528">
        <ele>1016.3</ele>
        <time>2019-03-10T13:50:35Z</time>
      </trkpt>
      <trkpt lat="43.86743" lon="7.25528">
        <ele>1016.3</ele>
        <time>2019-03-10T13:50:39Z</time>
      </trkpt>
      <trkpt lat="43.86743" lon="7.25528">
        <ele>1016.3</ele>
        <time>2019-03-10T13:50:43Z</time>
      </trkpt>
      <trkpt lat="43.86743" lon="7.25528">
        <ele>1016.3</ele>
        <time>2019-03-10T13:50:47Z</time>
      </trkpt>
      <trkpt lat="43.86743" lon="7.25528">
        <ele>1016.3</ele>
        <time>2019-03-10T13:50:51Z</time>
      </trkpt>
      <trkpt lat="43.86743" lon="7.25528">
        <ele>1016.3</ele>
        <time>2019-03-10T13:50:55Z</time>
      </trkpt>
      <trkpt lat="43.86743" lon="7.25528">
        <ele>1016.3</ele>
        <time>2019-03-10T13:50:59Z</time>
      </trkpt>
      <trkpt lat="43.86743" lon="7.25528">
        <ele>1016.3</ele>
        <time>2019-03-10T13:51:03Z</time>
      </trkpt>
      <trkpt lat="43.86743" lon="7.25528">
        <ele>1016.3</ele>
        <time>2019-03-10T13:51:07Z</time>
      </trkpt>
      <trkpt lat="43.86743" lon="7.25528">
        <ele>1016.3</ele>
        <time>2019-03-10T13:51:11Z</time>
      </trkpt>
      <trkpt lat="43.86743" lon="7.25528">
        <ele>1016.3</ele>
        <time>2019-03-10T13:51:15Z</time>
      </trkpt>
      <trkpt lat="43.86743" lon="7.25528">
        <ele>1016.3</ele>
        <time>2019-03-10T13:51:19Z</time>
      </trkpt>
      <trkpt lat="43.86743" lon="7.25528">
        <ele>1016.3</ele>
        <time>2019-03-10T13:51:23Z</time>
      </trkpt>
      <trkpt lat="43.86743" lon="7.25528">
        <ele>1016.3</ele>
        <time>2019-03-10T13:51:27Z</time>
      </trkpt>
      <trkpt lat="43.86743" lon="7.25528">
        <ele>1016.3</ele>
        <time>2019-03-10T13:51:31Z</time>
      </trkpt>
      <trkpt lat="43.86743" lon="7.25528">
        <ele>1016.3</ele>
        <time>2019-03-10T13:51:35Z</time>
      </trkpt>
      <trkpt lat="43.86743" lon="7.25528">
        <ele>1016.3</ele>
        <time>2019-03-10T13:51:39Z</time>
      </trkpt>
      <trkpt lat="43.86743" lon="7.25528">
        <ele>1016.3</ele>
        <time>2019-03-10T13:51:43Z</time>
      </trkpt>
      <trkpt lat="43.86743" lon="7.25528">
        <ele>1016.3</ele>
        <time>2019-03-10T13:51:47Z</time>
      </trkpt>
      <trkpt lat="43.86743" lon="7.25528">
        <ele>1016.3</ele>
        <time>2019-03-10T13:51:51Z</time>
      </trkpt>
      <trkpt lat="43.86743" lon="7.25528">
        <ele>1016.3</ele>
        <time>2019-03-10T13:51:55Z</time>
      </trkpt>
      <trkpt lat="43.86745" lon="7.25526">
        <ele>1016.5</ele>
        <time>2019-03-10T13:51:59Z</time>
      </trkpt>
      <trkpt lat="43.86748" lon="7.25533">
        <ele>1017</ele>
        <time>2019-03-10T13:52:03Z</time>
      </trkpt>
      <trkpt lat="43.86748" lon="7.25543">
        <ele>1017.5</ele>
        <time>2019-03-10T13:52:07Z</time>
      </trkpt>
      <trkpt lat="43.86751" lon="7.25554">
        <ele>1018.1</ele>
        <time>2019-03-10T13:52:11Z</time>
      </trkpt>
      <trkpt lat="43.86755" lon="7.25563">
        <ele>1018.7</ele>
        <time>2019-03-10T13:52:15Z</time>
      </trkpt>
      <trkpt lat="43.86759" lon="7.25572">
        <ele>1019.5</ele>
        <time>2019-03-10T13:52:19Z</time>
      </trkpt>
      <trkpt lat="43.86762" lon="7.2558">
        <ele>1020.3</ele>
        <time>2019-03-10T13:52:23Z</time>
      </trkpt>
      <trkpt lat="43.86765" lon="7.25588">
        <ele>1021.1</ele>
        <time>2019-03-10T13:52:27Z</time>
      </trkpt>
      <trkpt lat="43.86769" lon="7.25597">
        <ele>1021.9</ele>
        <time>2019-03-10T13:52:31Z</time>
      </trkpt>
      <trkpt lat="43.86772" lon="7.25606">
        <ele>1022.6</ele>
        <time>2019-03-10T13:52:35Z</time>
      </trkpt>
      <trkpt lat="43.86775" lon="7.25614">
        <ele>1023.4</ele>
        <time>2019-03-10T13:52:39Z</time>
      </trkpt>
      <trkpt lat="43.86779" lon="7.25621">
        <ele>1024.2</ele>
        <time>2019-03-10T13:52:43Z</time>
      </trkpt>
      <trkpt lat="43.86783" lon="7.25628">
        <ele>1025</ele>
        <time>2019-03-10T13:52:47Z</time>
      </trkpt>
      <trkpt lat="43.86787" lon="7.25635">
        <ele>1025.8</ele>
        <time>2019-03-10T13:52:51Z</time>
      </trkpt>
      <trkpt lat="43.86791" lon="7.25642">
        <ele>1026.6</ele>
        <time>2019-03-10T13:52:55Z</time>
      </trkpt>
      <trkpt lat="43.86796" lon="7.25649">
        <ele>1027.4</ele>
        <time>2019-03-10T13:52:59Z</time>
      </trkpt>
      <trkpt lat="43.868" lon="7.25656">
        <ele>1028.2</ele>
        <time>2019-03-10T13:53:03Z</time>
      </trkpt>
      <trkpt lat="43.86804" lon="7.25664">
        <ele>1029</ele>
        <time>2019-03-10T13:53:07Z</time>
      </trkpt>
      <trkpt lat="43.86807" lon="7.25671">
        <ele>1029.8</ele>
        <time>2019-03-10T13:53:11Z</time>
      </trkpt>
      <trkpt lat="43.86812" lon="7.25678">
        <ele>1030.7</ele>
        <time>2019-03-10T13:53:15Z</time>
      </trkpt>
      <trkpt lat="43.86816" lon="7.25684">
        <ele>1031.7</ele>
        <time>2019-03-10T13:53:19Z</time>
      </trkpt>
      <trkpt lat="43.86822" lon="7.25692">
        <ele>1032.8</ele>
        <time>2019-03-10T13:53:23Z</time>
      </trkpt>
      <trkpt lat="43.86826" lon="7.25698">
        <ele>1033.5</ele>
        <time>2019-03-10T13:53:27Z</time>
      </trkpt>
      <trkpt lat="43.86831" lon="7.25704">
        <ele>1034.4</ele>
        <time>2019-03-10T13:53:31Z</time>
      </trkpt>
      <trkpt lat="43.86836" lon="7.2571">
        <ele>1035.2</ele>
        <time>2019-03-10T13:53:35Z</time>
      </trkpt>
      <trkpt lat="43.86841" lon="7.25716">
        <ele>1035.9</ele>
        <time>2019-03-10T13:53:39Z</time>
      </trkpt>
      <trkpt lat="43.86846" lon="7.25722">
        <ele>1036.6</ele>
        <time>2019-03-10T13:53:43Z</time>
      </trkpt>
      <trkpt lat="43.8685" lon="7.25729">
        <ele>1037.3</ele>
        <time>2019-03-10T13:53:47Z</time>
      </trkpt>
      <trkpt lat="43.86856" lon="7.25736">
        <ele>1038.1</ele>
        <time>2019-03-10T13:53:51Z</time>
      </trkpt>
      <trkpt lat="43.8686" lon="7.25743">
        <ele>1039</ele>
        <time>2019-03-10T13:53:55Z</time>
      </trkpt>
      <trkpt lat="43.86865" lon="7.2575">
        <ele>1039.8</ele>
        <time>2019-03-10T13:53:59Z</time>
      </trkpt>
      <trkpt lat="43.86869" lon="7.25757">
        <ele>1040.6</ele>
        <time>2019-03-10T13:54:03Z</time>
      </trkpt>
      <trkpt lat="43.86874" lon="7.25764">
        <ele>1041.4</ele>
        <time>2019-03-10T13:54:07Z</time>
      </trkpt>
      <trkpt lat="43.86878" lon="7.25771">
        <ele>1042.2</ele>
        <time>2019-03-10T13:54:11Z</time>
      </trkpt>
      <trkpt lat="43.86883" lon="7.25778">
        <ele>1043</ele>
        <time>2019-03-10T13:54:15Z</time>
      </trkpt>
      <trkpt lat="43.86888" lon="7.25785">
        <ele>1043.9</ele>
        <time>2019-03-10T13:54:19Z</time>
      </trkpt>
      <trkpt lat="43.86893" lon="7.25791">
        <ele>1044.7</ele>
        <time>2019-03-10T13:54:23Z</time>
      </trkpt>
      <trkpt lat="43.86899" lon="7.25797">
        <ele>1045.7</ele>
        <time>2019-03-10T13:54:27Z</time>
      </trkpt>
      <trkpt lat="43.86904" lon="7.25804">
        <ele>1046.6</ele>
        <time>2019-03-10T13:54:31Z</time>
      </trkpt>
      <trkpt lat="43.86909" lon="7.25811">
        <ele>1047.5</ele>
        <time>2019-03-10T13:54:35Z</time>
      </trkpt>
      <trkpt lat="43.86914" lon="7.25817">
        <ele>1048.4</ele>
        <time>2019-03-10T13:54:39Z</time>
      </trkpt>
      <trkpt lat="43.86918" lon="7.25823">
        <ele>1049.2</ele>
        <time>2019-03-10T13:54:43Z</time>
      </trkpt>
      <trkpt lat="43.86923" lon="7.25829">
        <ele>1050</ele>
        <time>2019-03-10T13:54:47Z</time>
      </trkpt>
      <trkpt lat="43.86927" lon="7.25835">
        <ele>1050.8</ele>
        <time>2019-03-10T13:54:51Z</time>
      </trkpt>
      <trkpt lat="43.86932" lon="7.25841">
        <ele>1051.7</ele>
        <time>2019-03-10T13:54:55Z</time>
      </trkpt>
      <trkpt lat="43.86937" lon="7.25846">
        <ele>1052.6</ele>
        <time>2019-03-10T13:54:59Z</time>
      </trkpt>
      <trkpt lat="43.86942" lon="7.25853">
        <ele>1053.6</ele>
        <time>2019-03-10T13:55:03Z</time>
      </trkpt>
      <trkpt lat="43.86947" lon="7.25859">
        <ele>1054.6</ele>
        <time>2019-03-10T13:55:07Z</time>
      </trkpt>
      <trkpt lat="43.86952" lon="7.25865">
        <ele>1055.6</ele>
        <time>2019-03-10T13:55:11Z</time>
      </trkpt>
      <trkpt lat="43.86956" lon="7.25871">
        <ele>1056.3</ele>
        <time>2019-03-10T13:55:15Z</time>
      </trkpt>
      <trkpt lat="43.86961" lon="7.25877">
        <ele>1057</ele>
        <time>2019-03-10T13:55:19Z</time>
      </trkpt>
      <trkpt lat="43.86966" lon="7.25883">
        <ele>1057.7</ele>
        <time>2019-03-10T13:55:23Z</time>
      </trkpt>
      <trkpt lat="43.86971" lon="7.25889">
        <ele>1058.4</ele>
        <time>2019-03-10T13:55:27Z</time>
      </trkpt>
      <trkpt lat="43.86976" lon="7.25895">
        <ele>1059</ele>
        <time>2019-03-10T13:55:31Z</time>
      </trkpt>
      <trkpt lat="43.86982" lon="7.259">
        <ele>1059.7</ele>
        <time>2019-03-10T13:55:35Z</time>
      </trkpt>
      <trkpt lat="43.86987" lon="7.25903">
        <ele>1060.5</ele>
        <time>2019-03-10T13:55:39Z</time>
      </trkpt>
      <trkpt lat="43.86993" lon="7.25907">
        <ele>1061.4</ele>
        <time>2019-03-10T13:55:43Z</time>
      </trkpt>
      <trkpt lat="43.86999" lon="7.25912">
        <ele>1062.5</ele>
        <time>2019-03-10T13:55:47Z</time>
      </trkpt>
      <trkpt lat="43.87004" lon="7.25918">
        <ele>1063.3</ele>
        <time>2019-03-10T13:55:51Z</time>
      </trkpt>
      <trkpt lat="43.8701" lon="7.25922">
        <ele>1064.5</ele>
        <time>2019-03-10T13:55:55Z</time>
      </trkpt>
      <trkpt lat="43.87016" lon="7.25927">
        <ele>1065.9</ele>
        <time>2019-03-10T13:55:59Z</time>
      </trkpt>
      <trkpt lat="43.87022" lon="7.25931">
        <ele>1067.3</ele>
        <time>2019-03-10T13:56:03Z</time>
      </trkpt>
      <trkpt lat="43.87027" lon="7.25937">
        <ele>1068.6</ele>
        <time>2019-03-10T13:56:07Z</time>
      </trkpt>
      <trkpt lat="43.87033" lon="7.25944">
        <ele>1072.2</ele>
        <time>2019-03-10T13:56:11Z</time>
      </trkpt>
      <trkpt lat="43.87037" lon="7.25952">
        <ele>1072.6</ele>
        <time>2019-03-10T13:56:15Z</time>
      </trkpt>
      <trkpt lat="43.87037" lon="7.25959">
        <ele>1073</ele>
        <time>2019-03-10T13:56:19Z</time>
      </trkpt>
      <trkpt lat="43.87033" lon="7.25966">
        <ele>1073.3</ele>
        <time>2019-03-10T13:56:23Z</time>
      </trkpt>
      <trkpt lat="43.87033" lon="7.25977">
        <ele>1073.7</ele>
        <time>2019-03-10T13:56:27Z</time>
      </trkpt>
      <trkpt lat="43.87028" lon="7.25983">
        <ele>1073.9</ele>
        <time>2019-03-10T13:56:31Z</time>
      </trkpt>
      <trkpt lat="43.87024" lon="7.2599">
        <ele>1074.3</ele>
        <time>2019-03-10T13:56:35Z</time>
      </trkpt>
      <trkpt lat="43.87021" lon="7.25998">
        <ele>1074.6</ele>
        <time>2019-03-10T13:56:39Z</time>
      </trkpt>
      <trkpt lat="43.87018" lon="7.26007">
        <ele>1074.8</ele>
        <time>2019-03-10T13:56:43Z</time>
      </trkpt>
      <trkpt lat="43.87015" lon="7.26015">
        <ele>1075.1</ele>
        <time>2019-03-10T13:56:47Z</time>
      </trkpt>
      <trkpt lat="43.87011" lon="7.26021">
        <ele>1075.2</ele>
        <time>2019-03-10T13:56:51Z</time>
      </trkpt>
      <trkpt lat="43.87005" lon="7.26029">
        <ele>1075.4</ele>
        <time>2019-03-10T13:56:55Z</time>
      </trkpt>
      <trkpt lat="43.86999" lon="7.26035">
        <ele>1075.6</ele>
        <time>2019-03-10T13:56:59Z</time>
      </trkpt>
      <trkpt lat="43.8699" lon="7.26036">
        <ele>1076</ele>
        <time>2019-03-10T13:57:03Z</time>
      </trkpt>
      <trkpt lat="43.86982" lon="7.26035">
        <ele>1076.2</ele>
        <time>2019-03-10T13:57:07Z</time>
      </trkpt>
      <trkpt lat="43.86976" lon="7.26034">
        <ele>1076.5</ele>
        <time>2019-03-10T13:57:11Z</time>
      </trkpt>
      <trkpt lat="43.86969" lon="7.26034">
        <ele>1076.8</ele>
        <time>2019-03-10T13:57:15Z</time>
      </trkpt>
      <trkpt lat="43.86961" lon="7.26035">
        <ele>1077.4</ele>
        <time>2019-03-10T13:57:19Z</time>
      </trkpt>
      <trkpt lat="43.86953" lon="7.26037">
        <ele>1077.8</ele>
        <time>2019-03-10T13:57:23Z</time>
      </trkpt>
      <trkpt lat="43.86947" lon="7.26042">
        <ele>1078.2</ele>
        <time>2019-03-10T13:57:27Z</time>
      </trkpt>
      <trkpt lat="43.86943" lon="7.26049">
        <ele>1078.6</ele>
        <time>2019-03-10T13:57:31Z</time>
      </trkpt>
      <trkpt lat="43.86941" lon="7.26057">
        <ele>1078.9</ele>
        <time>2019-03-10T13:57:35Z</time>
      </trkpt>
      <trkpt lat="43.86939" lon="7.26065">
        <ele>1079.4</ele>
        <time>2019-03-10T13:57:39Z</time>
      </trkpt>
      <trkpt lat="43.86942" lon="7.2607">
        <ele>1079.8</ele>
        <time>2019-03-10T13:57:43Z</time>
      </trkpt>
      <trkpt lat="43.86947" lon="7.26068">
        <ele>1080.2</ele>
        <time>2019-03-10T13:57:47Z</time>
      </trkpt>
      <trkpt lat="43.86951" lon="7.26062">
        <ele>1080.5</ele>
        <time>2019-03-10T13:57:51Z</time>
      </trkpt>
      <trkpt lat="43.86955" lon="7.26056">
        <ele>1080.8</ele>
        <time>2019-03-10T13:57:55Z</time>
      </trkpt>
      <trkpt lat="43.8696" lon="7.2605">
        <ele>1081.1</ele>
        <time>2019-03-10T13:57:59Z</time>
      </trkpt>
      <trkpt lat="43.86966" lon="7.26047">
        <ele>1081.4</ele>
        <time>2019-03-10T13:58:03Z</time>
      </trkpt>
      <trkpt lat="43.86972" lon="7.26047">
        <ele>1081.7</ele>
        <time>2019-03-10T13:58:07Z</time>
      </trkpt>
      <trkpt lat="43.86978" lon="7.26049">
        <ele>1082.1</ele>
        <time>2019-03-10T13:58:11Z</time>
      </trkpt>
      <trkpt lat="43.86984" lon="7.26052">
        <ele>1082.5</ele>
        <time>2019-03-10T13:58:15Z</time>
      </trkpt>
      <trkpt lat="43.8699" lon="7.26054">
        <ele>1082.9</ele>
        <time>2019-03-10T13:58:19Z</time>
      </trkpt>
      <trkpt lat="43.86996" lon="7.26056">
        <ele>1083.2</ele>
        <time>2019-03-10T13:58:23Z</time>
      </trkpt>
      <trkpt lat="43.87001" lon="7.26055">
        <ele>1083.6</ele>
        <time>2019-03-10T13:58:27Z</time>
      </trkpt>
      <trkpt lat="43.87006" lon="7.26052">
        <ele>1083.9</ele>
        <time>2019-03-10T13:58:31Z</time>
      </trkpt>
      <trkpt lat="43.87011" lon="7.26047">
        <ele>1084.2</ele>
        <time>2019-03-10T13:58:35Z</time>
      </trkpt>
      <trkpt lat="43.87017" lon="7.26042">
        <ele>1084.5</ele>
        <time>2019-03-10T13:58:39Z</time>
      </trkpt>
      <trkpt lat="43.87023" lon="7.26036">
        <ele>1084.8</ele>
        <time>2019-03-10T13:58:43Z</time>
      </trkpt>
      <trkpt lat="43.87029" lon="7.2603">
        <ele>1085.1</ele>
        <time>2019-03-10T13:58:47Z</time>
      </trkpt>
      <trkpt lat="43.87034" lon="7.26023">
        <ele>1085.3</ele>
        <time>2019-03-10T13:58:51Z</time>
      </trkpt>
      <trkpt lat="43.87038" lon="7.26015">
        <ele>1085.5</ele>
        <time>2019-03-10T13:58:55Z</time>
      </trkpt>
      <trkpt lat="43.87043" lon="7.26007">
        <ele>1085.6</ele>
        <time>2019-03-10T13:58:59Z</time>
      </trkpt>
      <trkpt lat="43.87048" lon="7.26001">
        <ele>1085.8</ele>
        <time>2019-03-10T13:59:03Z</time>
      </trkpt>
      <trkpt lat="43.87055" lon="7.25996">
        <ele>1085.9</ele>
        <time>2019-03-10T13:59:07Z</time>
      </trkpt>
      <trkpt lat="43.87062" lon="7.25991">
        <ele>1085.9</ele>
        <time>2019-03-10T13:59:11Z</time>
      </trkpt>
      <trkpt lat="43.87068" lon="7.25988">
        <ele>1085.9</ele>
        <time>2019-03-10T13:59:15Z</time>
      </trkpt>
      <trkpt lat="43.87075" lon="7.25984">
        <ele>1085.9</ele>
        <time>2019-03-10T13:59:19Z</time>
      </trkpt>
      <trkpt lat="43.87082" lon="7.2598">
        <ele>1085.8</ele>
        <time>2019-03-10T13:59:23Z</time>
      </trkpt>
      <trkpt lat="43.87089" lon="7.25975">
        <ele>1085.8</ele>
        <time>2019-03-10T13:59:27Z</time>
      </trkpt>
      <trkpt lat="43.87096" lon="7.25969">
        <ele>1085.7</ele>
        <time>2019-03-10T13:59:31Z</time>
      </trkpt>
      <trkpt lat="43.87102" lon="7.25963">
        <ele>1085.6</ele>
        <time>2019-03-10T13:59:35Z</time>
      </trkpt>
      <trkpt lat="43.87109" lon="7.25958">
        <ele>1085.5</ele>
        <time>2019-03-10T13:59:39Z</time>
      </trkpt>
      <trkpt lat="43.87115" lon="7.25953">
        <ele>1085.6</ele>
        <time>2019-03-10T13:59:43Z</time>
      </trkpt>
      <trkpt lat="43.87123" lon="7.25952">
        <ele>1085.9</ele>
        <time>2019-03-10T13:59:47Z</time>
      </trkpt>
      <trkpt lat="43.87131" lon="7.25955">
        <ele>1085.8</ele>
        <time>2019-03-10T13:59:51Z</time>
      </trkpt>
      <trkpt lat="43.87136" lon="7.25965">
        <ele>1085.7</ele>
        <time>2019-03-10T13:59:55Z</time>
      </trkpt>
      <trkpt lat="43.87141" lon="7.25974">
        <ele>1085.7</ele>
        <time>2019-03-10T13:59:59Z</time>
      </trkpt>
      <trkpt lat="43.87145" lon="7.25982">
        <ele>1085.9</ele>
        <time>2019-03-10T14:00:03Z</time>
      </trkpt>
      <trkpt lat="43.87147" lon="7.25993">
        <ele>1086.3</ele>
        <time>2019-03-10T14:00:07Z</time>
      </trkpt>
      <trkpt lat="43.87149" lon="7.26007">
        <ele>1087.3</ele>
        <time>2019-03-10T14:00:11Z</time>
      </trkpt>
      <trkpt lat="43.87148" lon="7.26023">
        <ele>1088.2</ele>
        <time>2019-03-10T14:00:15Z</time>
      </trkpt>
      <trkpt lat="43.87145" lon="7.26036">
        <ele>1088.8</ele>
        <time>2019-03-10T14:00:19Z</time>
      </trkpt>
      <trkpt lat="43.8714" lon="7.26049">
        <ele>1089.4</ele>
        <time>2019-03-10T14:00:23Z</time>
      </trkpt>
      <trkpt lat="43.87138" lon="7.26061">
        <ele>1090</ele>
        <time>2019-03-10T14:00:27Z</time>
      </trkpt>
      <trkpt lat="43.87134" lon="7.26072">
        <ele>1090.4</ele>
        <time>2019-03-10T14:00:31Z</time>
      </trkpt>
      <trkpt lat="43.87129" lon="7.26081">
        <ele>1090.9</ele>
        <time>2019-03-10T14:00:35Z</time>
      </trkpt>
      <trkpt lat="43.87123" lon="7.26092">
        <ele>1091.4</ele>
        <time>2019-03-10T14:00:39Z</time>
      </trkpt>
      <trkpt lat="43.87117" lon="7.26101">
        <ele>1091.8</ele>
        <time>2019-03-10T14:00:43Z</time>
      </trkpt>
      <trkpt lat="43.8711" lon="7.2611">
        <ele>1092.3</ele>
        <time>2019-03-10T14:00:47Z</time>
      </trkpt>
      <trkpt lat="43.87104" lon="7.26116">
        <ele>1092.7</ele>
        <time>2019-03-10T14:00:51Z</time>
      </trkpt>
      <trkpt lat="43.87095" lon="7.26122">
        <ele>1093.2</ele>
        <time>2019-03-10T14:00:55Z</time>
      </trkpt>
      <trkpt lat="43.87088" lon="7.26129">
        <ele>1093.5</ele>
        <time>2019-03-10T14:00:59Z</time>
      </trkpt>
      <trkpt lat="43.87083" lon="7.26138">
        <ele>1093.6</ele>
        <time>2019-03-10T14:01:03Z</time>
      </trkpt>
      <trkpt lat="43.87082" lon="7.26148">
        <ele>1093.7</ele>
        <time>2019-03-10T14:01:07Z</time>
      </trkpt>
      <trkpt lat="43.87085" lon="7.2616">
        <ele>1093.9</ele>
        <time>2019-03-10T14:01:11Z</time>
      </trkpt>
      <trkpt lat="43.87087" lon="7.26171">
        <ele>1094.2</ele>
        <time>2019-03-10T14:01:15Z</time>
      </trkpt>
      <trkpt lat="43.8709" lon="7.26183">
        <ele>1094.6</ele>
        <time>2019-03-10T14:01:19Z</time>
      </trkpt>
      <trkpt lat="43.87093" lon="7.26193">
        <ele>1095</ele>
        <time>2019-03-10T14:01:23Z</time>
      </trkpt>
      <trkpt lat="43.87093" lon="7.26202">
        <ele>1095.3</ele>
        <time>2019-03-10T14:01:27Z</time>
      </trkpt>
      <trkpt lat="43.87094" lon="7.26213">
        <ele>1095.6</ele>
        <time>2019-03-10T14:01:31Z</time>
      </trkpt>
      <trkpt lat="43.87094" lon="7.26227">
        <ele>1095.8</ele>
        <time>2019-03-10T14:01:35Z</time>
      </trkpt>
      <trkpt lat="43.87096" lon="7.26237">
        <ele>1095.9</ele>
        <time>2019-03-10T14:01:39Z</time>
      </trkpt>
      <trkpt lat="43.87099" lon="7.26247">
        <ele>1096.1</ele>
        <time>2019-03-10T14:01:43Z</time>
      </trkpt>
      <trkpt lat="43.87099" lon="7.26256">
        <ele>1096.3</ele>
        <time>2019-03-10T14:01:47Z</time>
      </trkpt>
      <trkpt lat="43.87101" lon="7.26266">
        <ele>1096.8</ele>
        <time>2019-03-10T14:01:51Z</time>
      </trkpt>
      <trkpt lat="43.87103" lon="7.26278">
        <ele>1097.2</ele>
        <time>2019-03-10T14:01:55Z</time>
      </trkpt>
      <trkpt lat="43.87106" lon="7.26291">
        <ele>1097.9</ele>
        <time>2019-03-10T14:01:59Z</time>
      </trkpt>
      <trkpt lat="43.87108" lon="7.26302">
        <ele>1098.4</ele>
        <time>2019-03-10T14:02:03Z</time>
      </trkpt>
      <trkpt lat="43.87107" lon="7.26316">
        <ele>1099</ele>
        <time>2019-03-10T14:02:07Z</time>
      </trkpt>
      <trkpt lat="43.87106" lon="7.2633">
        <ele>1099.3</ele>
        <time>2019-03-10T14:02:11Z</time>
      </trkpt>
      <trkpt lat="43.87103" lon="7.2634">
        <ele>1099.5</ele>
        <time>2019-03-10T14:02:15Z</time>
      </trkpt>
      <trkpt lat="43.87104" lon="7.26353">
        <ele>1099.7</ele>
        <time>2019-03-10T14:02:19Z</time>
      </trkpt>
      <trkpt lat="43.87102" lon="7.26364">
        <ele>1099.8</ele>
        <time>2019-03-10T14:02:23Z</time>
      </trkpt>
      <trkpt lat="43.87101" lon="7.26375">
        <ele>1099.8</ele>
        <time>2019-03-10T14:02:27Z</time>
      </trkpt>
      <trkpt lat="43.87102" lon="7.26388">
        <ele>1099.8</ele>
        <time>2019-03-10T14:02:31Z</time>
      </trkpt>
      <trkpt lat="43.87104" lon="7.26399">
        <ele>1099.8</ele>
        <time>2019-03-10T14:02:35Z</time>
      </trkpt>
      <trkpt lat="43.87106" lon="7.26411">
        <ele>1099.8</ele>
        <time>2019-03-10T14:02:39Z</time>
      </trkpt>
      <trkpt lat="43.8711" lon="7.26422">
        <ele>1099.9</ele>
        <time>2019-03-10T14:02:43Z</time>
      </trkpt>
      <trkpt lat="43.87113" lon="7.26435">
        <ele>1100</ele>
        <time>2019-03-10T14:02:47Z</time>
      </trkpt>
      <trkpt lat="43.87117" lon="7.26446">
        <ele>1100.1</ele>
        <time>2019-03-10T14:02:51Z</time>
      </trkpt>
      <trkpt lat="43.87119" lon="7.26456">
        <ele>1100.3</ele>
        <time>2019-03-10T14:02:55Z</time>
      </trkpt>
      <trkpt lat="43.87122" lon="7.26468">
        <ele>1100.7</ele>
        <time>2019-03-10T14:02:59Z</time>
      </trkpt>
      <trkpt lat="43.87122" lon="7.26483">
        <ele>1101.3</ele>
        <time>2019-03-10T14:03:03Z</time>
      </trkpt>
      <trkpt lat="43.87118" lon="7.26497">
        <ele>1101.9</ele>
        <time>2019-03-10T14:03:07Z</time>
      </trkpt>
      <trkpt lat="43.87111" lon="7.26506">
        <ele>1102.3</ele>
        <time>2019-03-10T14:03:11Z</time>
      </trkpt>
      <trkpt lat="43.87104" lon="7.26515">
        <ele>1102.6</ele>
        <time>2019-03-10T14:03:15Z</time>
      </trkpt>
      <trkpt lat="43.87096" lon="7.26521">
        <ele>1102.6</ele>
        <time>2019-03-10T14:03:19Z</time>
      </trkpt>
      <trkpt lat="43.87089" lon="7.26526">
        <ele>1102.5</ele>
        <time>2019-03-10T14:03:23Z</time>
      </trkpt>
      <trkpt lat="43.87079" lon="7.26528">
        <ele>1102.4</ele>
        <time>2019-03-10T14:03:27Z</time>
      </trkpt>
      <trkpt lat="43.87071" lon="7.26529">
        <ele>1102.2</ele>
        <time>2019-03-10T14:03:31Z</time>
      </trkpt>
      <trkpt lat="43.87063" lon="7.2653">
        <ele>1104</ele>
        <time>2019-03-10T14:03:35Z</time>
      </trkpt>
      <trkpt lat="43.87063" lon="7.2653">
        <ele>1104</ele>
        <time>2019-03-10T14:03:39Z</time>
      </trkpt>
      <trkpt lat="43.87063" lon="7.2653">
        <ele>1104</ele>
        <time>2019-03-10T14:03:43Z</time>
      </trkpt>
      <trkpt lat="43.87063" lon="7.2653">
        <ele>1104</ele>
        <time>2019-03-10T14:03:47Z</time>
      </trkpt>
      <trkpt lat="43.87063" lon="7.2653">
        <ele>1104</ele>
        <time>2019-03-10T14:03:51Z</time>
      </trkpt>
      <trkpt lat="43.87063" lon="7.2653">
        <ele>1104</ele>
        <time>2019-03-10T14:03:55Z</time>
      </trkpt>
      <trkpt lat="43.87063" lon="7.2653">
        <ele>1104</ele>
        <time>2019-03-10T14:03:59Z</time>
      </trkpt>
      <trkpt lat="43.87063" lon="7.2653">
        <ele>1104</ele>
        <time>2019-03-10T14:04:03Z</time>
      </trkpt>
      <trkpt lat="43.87063" lon="7.2653">
        <ele>1104</ele>
        <time>2019-03-10T14:04:07Z</time>
      </trkpt>
      <trkpt lat="43.87063" lon="7.2653">
        <ele>1104</ele>
        <time>2019-03-10T14:04:11Z</time>
      </trkpt>
      <trkpt lat="43.87063" lon="7.2653">
        <ele>1104</ele>
        <time>2019-03-10T14:04:15Z</time>
      </trkpt>
      <trkpt lat="43.87063" lon="7.2653">
        <ele>1104</ele>
        <time>2019-03-10T14:04:19Z</time>
      </trkpt>
      <trkpt lat="43.87063" lon="7.2653">
        <ele>1104</ele>
        <time>2019-03-10T14:04:23Z</time>
      </trkpt>
      <trkpt lat="43.87063" lon="7.2653">
        <ele>1104</ele>
        <time>2019-03-10T14:04:27Z</time>
      </trkpt>
      <trkpt lat="43.87063" lon="7.2653">
        <ele>1104</ele>
        <time>2019-03-10T14:04:31Z</time>
      </trkpt>
      <trkpt lat="43.8706" lon="7.26528">
        <ele>1104.9</ele>
        <time>2019-03-10T14:04:35Z</time>
      </trkpt>
      <trkpt lat="43.8706" lon="7.26528">
        <ele>1104.9</ele>
        <time>2019-03-10T14:04:39Z</time>
      </trkpt>
      <trkpt lat="43.8706" lon="7.26528">
        <ele>1104.9</ele>
        <time>2019-03-10T14:04:43Z</time>
      </trkpt>
      <trkpt lat="43.8706" lon="7.26528">
        <ele>1104.9</ele>
        <time>2019-03-10T14:04:47Z</time>
      </trkpt>
      <trkpt lat="43.8706" lon="7.26528">
        <ele>1104.9</ele>
        <time>2019-03-10T14:04:51Z</time>
      </trkpt>
      <trkpt lat="43.8706" lon="7.26528">
        <ele>1104.9</ele>
        <time>2019-03-10T14:04:55Z</time>
      </trkpt>
      <trkpt lat="43.8706" lon="7.26528">
        <ele>1104.9</ele>
        <time>2019-03-10T14:04:59Z</time>
      </trkpt>
      <trkpt lat="43.8706" lon="7.26528">
        <ele>1104.9</ele>
        <time>2019-03-10T14:05:03Z</time>
      </trkpt>
      <trkpt lat="43.8706" lon="7.26528">
        <ele>1104.9</ele>
        <time>2019-03-10T14:05:07Z</time>
      </trkpt>
      <trkpt lat="43.8706" lon="7.26528">
        <ele>1104.9</ele>
        <time>2019-03-10T14:05:11Z</time>
      </trkpt>
      <trkpt lat="43.8706" lon="7.26528">
        <ele>1104.9</ele>
        <time>2019-03-10T14:05:15Z</time>
      </trkpt>
      <trkpt lat="43.8706" lon="7.26528">
        <ele>1104.9</ele>
        <time>2019-03-10T14:05:19Z</time>
      </trkpt>
      <trkpt lat="43.8706" lon="7.26528">
        <ele>1104.9</ele>
        <time>2019-03-10T14:05:23Z</time>
      </trkpt>
      <trkpt lat="43.87059" lon="7.26529">
        <ele>1105.1</ele>
        <time>2019-03-10T14:05:27Z</time>
      </trkpt>
      <trkpt lat="43.87054" lon="7.26529">
        <ele>1104.7</ele>
        <time>2019-03-10T14:05:31Z</time>
      </trkpt>
      <trkpt lat="43.87044" lon="7.26529">
        <ele>1104.1</ele>
        <time>2019-03-10T14:05:35Z</time>
      </trkpt>
      <trkpt lat="43.87032" lon="7.26533">
        <ele>1103</ele>
        <time>2019-03-10T14:05:39Z</time>
      </trkpt>
      <trkpt lat="43.87018" lon="7.26544">
        <ele>1101.9</ele>
        <time>2019-03-10T14:05:43Z</time>
      </trkpt>
      <trkpt lat="43.86999" lon="7.26558">
        <ele>1100.6</ele>
        <time>2019-03-10T14:05:47Z</time>
      </trkpt>
      <trkpt lat="43.86975" lon="7.26561">
        <ele>1099.1</ele>
        <time>2019-03-10T14:05:51Z</time>
      </trkpt>
      <trkpt lat="43.86948" lon="7.26555">
        <ele>1097.1</ele>
        <time>2019-03-10T14:05:55Z</time>
      </trkpt>
      <trkpt lat="43.8692" lon="7.26563">
        <ele>1095.1</ele>
        <time>2019-03-10T14:05:59Z</time>
      </trkpt>
      <trkpt lat="43.86904" lon="7.26595">
        <ele>1092.8</ele>
        <time>2019-03-10T14:06:03Z</time>
      </trkpt>
      <trkpt lat="43.86885" lon="7.26625">
        <ele>1090.4</ele>
        <time>2019-03-10T14:06:07Z</time>
      </trkpt>
      <trkpt lat="43.86861" lon="7.26649">
        <ele>1088.5</ele>
        <time>2019-03-10T14:06:11Z</time>
      </trkpt>
      <trkpt lat="43.8683" lon="7.2665">
        <ele>1086.2</ele>
        <time>2019-03-10T14:06:15Z</time>
      </trkpt>
      <trkpt lat="43.86813" lon="7.26642">
        <ele>1084.5</ele>
        <time>2019-03-10T14:06:19Z</time>
      </trkpt>
      <trkpt lat="43.86807" lon="7.26633">
        <ele>1079.2</ele>
        <time>2019-03-10T14:06:23Z</time>
      </trkpt>
      <trkpt lat="43.86813" lon="7.26635">
        <ele>1078.2</ele>
        <time>2019-03-10T14:06:27Z</time>
      </trkpt>
      <trkpt lat="43.86815" lon="7.2663">
        <ele>1077.5</ele>
        <time>2019-03-10T14:06:31Z</time>
      </trkpt>
      <trkpt lat="43.86804" lon="7.26613">
        <ele>1074.8</ele>
        <time>2019-03-10T14:06:35Z</time>
      </trkpt>
      <trkpt lat="43.86791" lon="7.26604">
        <ele>1073.2</ele>
        <time>2019-03-10T14:06:39Z</time>
      </trkpt>
      <trkpt lat="43.86775" lon="7.26598">
        <ele>1071.6</ele>
        <time>2019-03-10T14:06:43Z</time>
      </trkpt>
      <trkpt lat="43.8676" lon="7.26592">
        <ele>1070.6</ele>
        <time>2019-03-10T14:06:47Z</time>
      </trkpt>
      <trkpt lat="43.86738" lon="7.26584">
        <ele>1068.7</ele>
        <time>2019-03-10T14:06:51Z</time>
      </trkpt>
      <trkpt lat="43.86715" lon="7.26579">
        <ele>1067.1</ele>
        <time>2019-03-10T14:06:55Z</time>
      </trkpt>
      <trkpt lat="43.86695" lon="7.2658">
        <ele>1064.9</ele>
        <time>2019-03-10T14:06:59Z</time>
      </trkpt>
      <trkpt lat="43.86679" lon="7.26586">
        <ele>1062.3</ele>
        <time>2019-03-10T14:07:03Z</time>
      </trkpt>
      <trkpt lat="43.86659" lon="7.26591">
        <ele>1057.4</ele>
        <time>2019-03-10T14:07:07Z</time>
      </trkpt>
      <trkpt lat="43.86641" lon="7.26595">
        <ele>1054</ele>
        <time>2019-03-10T14:07:11Z</time>
      </trkpt>
      <trkpt lat="43.86628" lon="7.26602">
        <ele>1051.6</ele>
        <time>2019-03-10T14:07:15Z</time>
      </trkpt>
      <trkpt lat="43.86609" lon="7.26603">
        <ele>1049.6</ele>
        <time>2019-03-10T14:07:19Z</time>
      </trkpt>
      <trkpt lat="43.8659" lon="7.26595">
        <ele>1046.9</ele>
        <time>2019-03-10T14:07:23Z</time>
      </trkpt>
      <trkpt lat="43.8658" lon="7.26588">
        <ele>1045.2</ele>
        <time>2019-03-10T14:07:27Z</time>
      </trkpt>
      <trkpt lat="43.86564" lon="7.26581">
        <ele>1042.4</ele>
        <time>2019-03-10T14:07:31Z</time>
      </trkpt>
      <trkpt lat="43.86547" lon="7.26574">
        <ele>1040</ele>
        <time>2019-03-10T14:07:35Z</time>
      </trkpt>
      <trkpt lat="43.86529" lon="7.26566">
        <ele>1037.7</ele>
        <time>2019-03-10T14:07:39Z</time>
      </trkpt>
      <trkpt lat="43.86516" lon="7.26555">
        <ele>1036.4</ele>
        <time>2019-03-10T14:07:43Z</time>
      </trkpt>
      <trkpt lat="43.86498" lon="7.26537">
        <ele>1034.6</ele>
        <time>2019-03-10T14:07:47Z</time>
      </trkpt>
      <trkpt lat="43.8648" lon="7.26511">
        <ele>1032.4</ele>
        <time>2019-03-10T14:07:51Z</time>
      </trkpt>
      <trkpt lat="43.86463" lon="7.26496">
        <ele>1031.2</ele>
        <time>2019-03-10T14:07:55Z</time>
      </trkpt>
      <trkpt lat="43.86444" lon="7.26483">
        <ele>1030.5</ele>
        <time>2019-03-10T14:07:59Z</time>
      </trkpt>
      <trkpt lat="43.86428" lon="7.26483">
        <ele>1029.9</ele>
        <time>2019-03-10T14:08:03Z</time>
      </trkpt>
      <trkpt lat="43.86428" lon="7.26483">
        <ele>1029.9</ele>
        <time>2019-03-10T14:08:07Z</time>
      </trkpt>
      <trkpt lat="43.86428" lon="7.26483">
        <ele>1029.9</ele>
        <time>2019-03-10T14:08:11Z</time>
      </trkpt>
      <trkpt lat="43.86428" lon="7.26483">
        <ele>1029.9</ele>
        <time>2019-03-10T14:08:15Z</time>
      </trkpt>
      <trkpt lat="43.86428" lon="7.26483">
        <ele>1029.9</ele>
        <time>2019-03-10T14:08:19Z</time>
      </trkpt>
      <trkpt lat="43.86428" lon="7.26483">
        <ele>1029.9</ele>
        <time>2019-03-10T14:08:23Z</time>
      </trkpt>
      <trkpt lat="43.86428" lon="7.26483">
        <ele>1029.9</ele>
        <time>2019-03-10T14:08:27Z</time>
      </trkpt>
      <trkpt lat="43.86428" lon="7.26483">
        <ele>1029.9</ele>
        <time>2019-03-10T14:08:31Z</time>
      </trkpt>
      <trkpt lat="43.86428" lon="7.26483">
        <ele>1029.9</ele>
        <time>2019-03-10T14:08:35Z</time>
      </trkpt>
      <trkpt lat="43.86428" lon="7.26483">
        <ele>1029.9</ele>
        <time>2019-03-10T14:08:39Z</time>
      </trkpt>
      <trkpt lat="43.86428" lon="7.26483">
        <ele>1029.9</ele>
        <time>2019-03-10T14:08:43Z</time>
      </trkpt>
      <trkpt lat="43.86428" lon="7.26483">
        <ele>1029.9</ele>
        <time>2019-03-10T14:08:47Z</time>
      </trkpt>
      <trkpt lat="43.86413" lon="7.26479">
        <ele>1029.5</ele>
        <time>2019-03-10T14:08:51Z</time>
      </trkpt>
      <trkpt lat="43.86397" lon="7.26469">
        <ele>1028.4</ele>
        <time>2019-03-10T14:08:55Z</time>
      </trkpt>
      <trkpt lat="43.86371" lon="7.26446">
        <ele>1023.9</ele>
        <time>2019-03-10T14:08:59Z</time>
      </trkpt>
      <trkpt lat="43.86355" lon="7.26434">
        <ele>1019.6</ele>
        <time>2019-03-10T14:09:03Z</time>
      </trkpt>
      <trkpt lat="43.86347" lon="7.26419">
        <ele>1014.9</ele>
        <time>2019-03-10T14:09:07Z</time>
      </trkpt>
      <trkpt lat="43.86342" lon="7.2639">
        <ele>1010</ele>
        <time>2019-03-10T14:09:11Z</time>
      </trkpt>
      <trkpt lat="43.86324" lon="7.26353">
        <ele>1005.1</ele>
        <time>2019-03-10T14:09:15Z</time>
      </trkpt>
      <trkpt lat="43.86301" lon="7.26322">
        <ele>1001.4</ele>
        <time>2019-03-10T14:09:19Z</time>
      </trkpt>
      <trkpt lat="43.86275" lon="7.26294">
        <ele>997.7</ele>
        <time>2019-03-10T14:09:23Z</time>
      </trkpt>
      <trkpt lat="43.86245" lon="7.26277">
        <ele>993.4</ele>
        <time>2019-03-10T14:09:27Z</time>
      </trkpt>
      <trkpt lat="43.86218" lon="7.26255">
        <ele>988.2</ele>
        <time>2019-03-10T14:09:31Z</time>
      </trkpt>
      <trkpt lat="43.8619" lon="7.26221">
        <ele>981</ele>
        <time>2019-03-10T14:09:35Z</time>
      </trkpt>
      <trkpt lat="43.86159" lon="7.26187">
        <ele>972.8</ele>
        <time>2019-03-10T14:09:39Z</time>
      </trkpt>
      <trkpt lat="43.86141" lon="7.26169">
        <ele>970.3</ele>
        <time>2019-03-10T14:09:43Z</time>
      </trkpt>
      <trkpt lat="43.86141" lon="7.26169">
        <ele>970.3</ele>
        <time>2019-03-10T14:09:47Z</time>
      </trkpt>
      <trkpt lat="43.86141" lon="7.26169">
        <ele>970.3</ele>
        <time>2019-03-10T14:09:51Z</time>
      </trkpt>
      <trkpt lat="43.86141" lon="7.26169">
        <ele>970.3</ele>
        <time>2019-03-10T14:09:55Z</time>
      </trkpt>
      <trkpt lat="43.86141" lon="7.26169">
        <ele>970.3</ele>
        <time>2019-03-10T14:09:59Z</time>
      </trkpt>
      <trkpt lat="43.86135" lon="7.26166">
        <ele>969.7</ele>
        <time>2019-03-10T14:10:03Z</time>
      </trkpt>
      <trkpt lat="43.86136" lon="7.26171">
        <ele>969.3</ele>
        <time>2019-03-10T14:10:07Z</time>
      </trkpt>
      <trkpt lat="43.86143" lon="7.26179">
        <ele>968.5</ele>
        <time>2019-03-10T14:10:11Z</time>
      </trkpt>
      <trkpt lat="43.8615" lon="7.26187">
        <ele>967.5</ele>
        <time>2019-03-10T14:10:15Z</time>
      </trkpt>
      <trkpt lat="43.86157" lon="7.26195">
        <ele>966.6</ele>
        <time>2019-03-10T14:10:19Z</time>
      </trkpt>
      <trkpt lat="43.8616" lon="7.26209">
        <ele>965.4</ele>
        <time>2019-03-10T14:10:23Z</time>
      </trkpt>
      <trkpt lat="43.86155" lon="7.26208">
        <ele>964.7</ele>
        <time>2019-03-10T14:10:27Z</time>
      </trkpt>
      <trkpt lat="43.86146" lon="7.26204">
        <ele>963.4</ele>
        <time>2019-03-10T14:10:31Z</time>
      </trkpt>
      <trkpt lat="43.86134" lon="7.26204">
        <ele>961.6</ele>
        <time>2019-03-10T14:10:35Z</time>
      </trkpt>
      <trkpt lat="43.86119" lon="7.26197">
        <ele>960</ele>
        <time>2019-03-10T14:10:39Z</time>
      </trkpt>
      <trkpt lat="43.86105" lon="7.26186">
        <ele>956.9</ele>
        <time>2019-03-10T14:10:43Z</time>
      </trkpt>
      <trkpt lat="43.86097" lon="7.26172">
        <ele>955.1</ele>
        <time>2019-03-10T14:10:47Z</time>
      </trkpt>
      <trkpt lat="43.86088" lon="7.26159">
        <ele>953.1</ele>
        <time>2019-03-10T14:10:51Z</time>
      </trkpt>
      <trkpt lat="43.86084" lon="7.26147">
        <ele>951.5</ele>
        <time>2019-03-10T14:10:55Z</time>
      </trkpt>
      <trkpt lat="43.86074" lon="7.26152">
        <ele>949.7</ele>
        <time>2019-03-10T14:10:59Z</time>
      </trkpt>
      <trkpt lat="43.86065" lon="7.26158">
        <ele>948</ele>
        <time>2019-03-10T14:11:03Z</time>
      </trkpt>
      <trkpt lat="43.86062" lon="7.26147">
        <ele>946.4</ele>
        <time>2019-03-10T14:11:07Z</time>
      </trkpt>
      <trkpt lat="43.86071" lon="7.26127">
        <ele>942.7</ele>
        <time>2019-03-10T14:11:11Z</time>
      </trkpt>
      <trkpt lat="43.86079" lon="7.26108">
        <ele>939.1</ele>
        <time>2019-03-10T14:11:15Z</time>
      </trkpt>
      <trkpt lat="43.86087" lon="7.26089">
        <ele>935.8</ele>
        <time>2019-03-10T14:11:19Z</time>
      </trkpt>
      <trkpt lat="43.86093" lon="7.26077">
        <ele>933.9</ele>
        <time>2019-03-10T14:11:23Z</time>
      </trkpt>
      <trkpt lat="43.86096" lon="7.26064">
        <ele>931.8</ele>
        <time>2019-03-10T14:11:27Z</time>
      </trkpt>
      <trkpt lat="43.86098" lon="7.2605">
        <ele>929.8</ele>
        <time>2019-03-10T14:11:31Z</time>
      </trkpt>
      <trkpt lat="43.86103" lon="7.26043">
        <ele>928.3</ele>
        <time>2019-03-10T14:11:35Z</time>
      </trkpt>
      <trkpt lat="43.86101" lon="7.26025">
        <ele>925.6</ele>
        <time>2019-03-10T14:11:39Z</time>
      </trkpt>
      <trkpt lat="43.86091" lon="7.25998">
        <ele>921.6</ele>
        <time>2019-03-10T14:11:43Z</time>
      </trkpt>
      <trkpt lat="43.86071" lon="7.25982">
        <ele>917.7</ele>
        <time>2019-03-10T14:11:47Z</time>
      </trkpt>
      <trkpt lat="43.86071" lon="7.25982">
        <ele>917.7</ele>
        <time>2019-03-10T14:11:51Z</time>
      </trkpt>
      <trkpt lat="43.86057" lon="7.25976">
        <ele>916</ele>
        <time>2019-03-10T14:11:55Z</time>
      </trkpt>
      <trkpt lat="43.86057" lon="7.25976">
        <ele>916</ele>
        <time>2019-03-10T14:11:59Z</time>
      </trkpt>
      <trkpt lat="43.86056" lon="7.25975">
        <ele>915.8</ele>
        <time>2019-03-10T14:12:03Z</time>
      </trkpt>
      <trkpt lat="43.86053" lon="7.25976">
        <ele>915.5</ele>
        <time>2019-03-10T14:12:07Z</time>
      </trkpt>
      <trkpt lat="43.86053" lon="7.25976">
        <ele>915.5</ele>
        <time>2019-03-10T14:12:11Z</time>
      </trkpt>
      <trkpt lat="43.86053" lon="7.25976">
        <ele>915.5</ele>
        <time>2019-03-10T14:12:15Z</time>
      </trkpt>
      <trkpt lat="43.86053" lon="7.25976">
        <ele>915.5</ele>
        <time>2019-03-10T14:12:19Z</time>
      </trkpt>
      <trkpt lat="43.86053" lon="7.25976">
        <ele>915.5</ele>
        <time>2019-03-10T14:12:23Z</time>
      </trkpt>
      <trkpt lat="43.86053" lon="7.25976">
        <ele>915.5</ele>
        <time>2019-03-10T14:12:27Z</time>
      </trkpt>
      <trkpt lat="43.86053" lon="7.25976">
        <ele>915.5</ele>
        <time>2019-03-10T14:12:31Z</time>
      </trkpt>
      <trkpt lat="43.86053" lon="7.25976">
        <ele>915.5</ele>
        <time>2019-03-10T14:12:35Z</time>
      </trkpt>
      <trkpt lat="43.86053" lon="7.25976">
        <ele>915.5</ele>
        <time>2019-03-10T14:12:39Z</time>
      </trkpt>
      <trkpt lat="43.86054" lon="7.25978">
        <ele>915.4</ele>
        <time>2019-03-10T14:12:43Z</time>
      </trkpt>
      <trkpt lat="43.86054" lon="7.25984">
        <ele>916.5</ele>
        <time>2019-03-10T14:12:47Z</time>
      </trkpt>
      <trkpt lat="43.86056" lon="7.25991">
        <ele>916.9</ele>
        <time>2019-03-10T14:12:51Z</time>
      </trkpt>
      <trkpt lat="43.86057" lon="7.25993">
        <ele>917</ele>
        <time>2019-03-10T14:12:55Z</time>
      </trkpt>
      <trkpt lat="43.86051" lon="7.25995">
        <ele>917.4</ele>
        <time>2019-03-10T14:12:59Z</time>
      </trkpt>
      <trkpt lat="43.86041" lon="7.25987">
        <ele>918.6</ele>
        <time>2019-03-10T14:13:03Z</time>
      </trkpt>
      <trkpt lat="43.86033" lon="7.25984">
        <ele>917.2</ele>
        <time>2019-03-10T14:13:07Z</time>
      </trkpt>
      <trkpt lat="43.86033" lon="7.25994">
        <ele>916</ele>
        <time>2019-03-10T14:13:11Z</time>
      </trkpt>
      <trkpt lat="43.86023" lon="7.2599">
        <ele>913.6</ele>
        <time>2019-03-10T14:13:15Z</time>
      </trkpt>
      <trkpt lat="43.86003" lon="7.25984">
        <ele>910.7</ele>
        <time>2019-03-10T14:13:19Z</time>
      </trkpt>
      <trkpt lat="43.85987" lon="7.25976">
        <ele>908.4</ele>
        <time>2019-03-10T14:13:23Z</time>
      </trkpt>
      <trkpt lat="43.85965" lon="7.25972">
        <ele>905.1</ele>
        <time>2019-03-10T14:13:27Z</time>
      </trkpt>
      <trkpt lat="43.85947" lon="7.25967">
        <ele>901.5</ele>
        <time>2019-03-10T14:13:31Z</time>
      </trkpt>
      <trkpt lat="43.85931" lon="7.25965">
        <ele>897.9</ele>
        <time>2019-03-10T14:13:35Z</time>
      </trkpt>
      <trkpt lat="43.85912" lon="7.25965">
        <ele>893.5</ele>
        <time>2019-03-10T14:13:39Z</time>
      </trkpt>
      <trkpt lat="43.85895" lon="7.2596">
        <ele>889.7</ele>
        <time>2019-03-10T14:13:43Z</time>
      </trkpt>
      <trkpt lat="43.85878" lon="7.25956">
        <ele>886.2</ele>
        <time>2019-03-10T14:13:47Z</time>
      </trkpt>
      <trkpt lat="43.85858" lon="7.25956">
        <ele>882.7</ele>
        <time>2019-03-10T14:13:51Z</time>
      </trkpt>
      <trkpt lat="43.85844" lon="7.25954">
        <ele>880.2</ele>
        <time>2019-03-10T14:13:55Z</time>
      </trkpt>
      <trkpt lat="43.85831" lon="7.25954">
        <ele>878.4</ele>
        <time>2019-03-10T14:13:59Z</time>
      </trkpt>
      <trkpt lat="43.85822" lon="7.25956">
        <ele>877.2</ele>
        <time>2019-03-10T14:14:03Z</time>
      </trkpt>
      <trkpt lat="43.85809" lon="7.25952">
        <ele>874.7</ele>
        <time>2019-03-10T14:14:07Z</time>
      </trkpt>
      <trkpt lat="43.85795" lon="7.25956">
        <ele>871.7</ele>
        <time>2019-03-10T14:14:11Z</time>
      </trkpt>
      <trkpt lat="43.85782" lon="7.25955">
        <ele>869.3</ele>
        <time>2019-03-10T14:14:15Z</time>
      </trkpt>
      <trkpt lat="43.85766" lon="7.25946">
        <ele>865.9</ele>
        <time>2019-03-10T14:14:19Z</time>
      </trkpt>
      <trkpt lat="43.85752" lon="7.25938">
        <ele>863.4</ele>
        <time>2019-03-10T14:14:23Z</time>
      </trkpt>
      <trkpt lat="43.85736" lon="7.25933">
        <ele>860.4</ele>
        <time>2019-03-10T14:14:27Z</time>
      </trkpt>
      <trkpt lat="43.85721" lon="7.25932">
        <ele>858.1</ele>
        <time>2019-03-10T14:14:31Z</time>
      </trkpt>
      <trkpt lat="43.85721" lon="7.25932">
        <ele>858.1</ele>
        <time>2019-03-10T14:14:35Z</time>
      </trkpt>
      <trkpt lat="43.85721" lon="7.25932">
        <ele>858.1</ele>
        <time>2019-03-10T14:14:39Z</time>
      </trkpt>
      <trkpt lat="43.85721" lon="7.25932">
        <ele>858.1</ele>
        <time>2019-03-10T14:14:43Z</time>
      </trkpt>
      <trkpt lat="43.85721" lon="7.25932">
        <ele>858.1</ele>
        <time>2019-03-10T14:14:47Z</time>
      </trkpt>
      <trkpt lat="43.85721" lon="7.25932">
        <ele>858.1</ele>
        <time>2019-03-10T14:14:51Z</time>
      </trkpt>
      <trkpt lat="43.85721" lon="7.25932">
        <ele>858.1</ele>
        <time>2019-03-10T14:14:55Z</time>
      </trkpt>
      <trkpt lat="43.85721" lon="7.25932">
        <ele>858.1</ele>
        <time>2019-03-10T14:14:59Z</time>
      </trkpt>
      <trkpt lat="43.85712" lon="7.25941">
        <ele>855.8</ele>
        <time>2019-03-10T14:15:03Z</time>
      </trkpt>
      <trkpt lat="43.8571" lon="7.25943">
        <ele>855.3</ele>
        <time>2019-03-10T14:15:07Z</time>
      </trkpt>
      <trkpt lat="43.85703" lon="7.25941">
        <ele>854</ele>
        <time>2019-03-10T14:15:11Z</time>
      </trkpt>
      <trkpt lat="43.8569" lon="7.25939">
        <ele>851.7</ele>
        <time>2019-03-10T14:15:15Z</time>
      </trkpt>
      <trkpt lat="43.85679" lon="7.25931">
        <ele>849.6</ele>
        <time>2019-03-10T14:15:19Z</time>
      </trkpt>
      <trkpt lat="43.85668" lon="7.2592">
        <ele>847.2</ele>
        <time>2019-03-10T14:15:23Z</time>
      </trkpt>
      <trkpt lat="43.85658" lon="7.25919">
        <ele>845.5</ele>
        <time>2019-03-10T14:15:27Z</time>
      </trkpt>
      <trkpt lat="43.85647" lon="7.25922">
        <ele>843.6</ele>
        <time>2019-03-10T14:15:31Z</time>
      </trkpt>
      <trkpt lat="43.85637" lon="7.25913">
        <ele>841.2</ele>
        <time>2019-03-10T14:15:35Z</time>
      </trkpt>
      <trkpt lat="43.85625" lon="7.25908">
        <ele>839</ele>
        <time>2019-03-10T14:15:39Z</time>
      </trkpt>
      <trkpt lat="43.85611" lon="7.25905">
        <ele>836.9</ele>
        <time>2019-03-10T14:15:43Z</time>
      </trkpt>
      <trkpt lat="43.85595" lon="7.25893">
        <ele>835.2</ele>
        <time>2019-03-10T14:15:47Z</time>
      </trkpt>
      <trkpt lat="43.85586" lon="7.25893">
        <ele>833.7</ele>
        <time>2019-03-10T14:15:51Z</time>
      </trkpt>
      <trkpt lat="43.85575" lon="7.25891">
        <ele>831.9</ele>
        <time>2019-03-10T14:15:55Z</time>
      </trkpt>
      <trkpt lat="43.85562" lon="7.25891">
        <ele>828.8</ele>
        <time>2019-03-10T14:15:59Z</time>
      </trkpt>
      <trkpt lat="43.85544" lon="7.25894">
        <ele>825.3</ele>
        <time>2019-03-10T14:16:03Z</time>
      </trkpt>
      <trkpt lat="43.85524" lon="7.25888">
        <ele>820.8</ele>
        <time>2019-03-10T14:16:07Z</time>
      </trkpt>
      <trkpt lat="43.85507" lon="7.25873">
        <ele>816.4</ele>
        <time>2019-03-10T14:16:11Z</time>
      </trkpt>
      <trkpt lat="43.85486" lon="7.25865">
        <ele>814.7</ele>
        <time>2019-03-10T14:16:15Z</time>
      </trkpt>
      <trkpt lat="43.85466" lon="7.25862">
        <ele>816.1</ele>
        <time>2019-03-10T14:16:19Z</time>
      </trkpt>
      <trkpt lat="43.85446" lon="7.25858">
        <ele>819.7</ele>
        <time>2019-03-10T14:16:23Z</time>
      </trkpt>
      <trkpt lat="43.85425" lon="7.2585">
        <ele>825.4</ele>
        <time>2019-03-10T14:16:27Z</time>
      </trkpt>
      <trkpt lat="43.85405" lon="7.25838">
        <ele>830.7</ele>
        <time>2019-03-10T14:16:31Z</time>
      </trkpt>
      <trkpt lat="43.85388" lon="7.25826">
        <ele>833.6</ele>
        <time>2019-03-10T14:16:35Z</time>
      </trkpt>
      <trkpt lat="43.85393" lon="7.25817">
        <ele>834.2</ele>
        <time>2019-03-10T14:16:39Z</time>
      </trkpt>
      <trkpt lat="43.85403" lon="7.25809">
        <ele>834.5</ele>
        <time>2019-03-10T14:16:43Z</time>
      </trkpt>
      <trkpt lat="43.8541" lon="7.25802">
        <ele>834.1</ele>
        <time>2019-03-10T14:16:47Z</time>
      </trkpt>
      <trkpt lat="43.85416" lon="7.25788">
        <ele>833</ele>
        <time>2019-03-10T14:16:51Z</time>
      </trkpt>
      <trkpt lat="43.85423" lon="7.25774">
        <ele>831.1</ele>
        <time>2019-03-10T14:16:55Z</time>
      </trkpt>
      <trkpt lat="43.85432" lon="7.25753">
        <ele>827.3</ele>
        <time>2019-03-10T14:16:59Z</time>
      </trkpt>
      <trkpt lat="43.85437" lon="7.25736">
        <ele>824</ele>
        <time>2019-03-10T14:17:03Z</time>
      </trkpt>
      <trkpt lat="43.85423" lon="7.25725">
        <ele>819.5</ele>
        <time>2019-03-10T14:17:07Z</time>
      </trkpt>
      <trkpt lat="43.85404" lon="7.25705">
        <ele>813.7</ele>
        <time>2019-03-10T14:17:11Z</time>
      </trkpt>
      <trkpt lat="43.85391" lon="7.25687">
        <ele>809.3</ele>
        <time>2019-03-10T14:17:15Z</time>
      </trkpt>
      <trkpt lat="43.85376" lon="7.2568">
        <ele>805.6</ele>
        <time>2019-03-10T14:17:19Z</time>
      </trkpt>
      <trkpt lat="43.85365" lon="7.25661">
        <ele>801.9</ele>
        <time>2019-03-10T14:17:23Z</time>
      </trkpt>
      <trkpt lat="43.85348" lon="7.25646">
        <ele>797.7</ele>
        <time>2019-03-10T14:17:27Z</time>
      </trkpt>
      <trkpt lat="43.85331" lon="7.25625">
        <ele>793.2</ele>
        <time>2019-03-10T14:17:31Z</time>
      </trkpt>
      <trkpt lat="43.85316" lon="7.25607">
        <ele>788.8</ele>
        <time>2019-03-10T14:17:35Z</time>
      </trkpt>
      <trkpt lat="43.85304" lon="7.25584">
        <ele>784.8</ele>
        <time>2019-03-10T14:17:39Z</time>
      </trkpt>
      <trkpt lat="43.85289" lon="7.25564">
        <ele>780.9</ele>
        <time>2019-03-10T14:17:43Z</time>
      </trkpt>
      <trkpt lat="43.85274" lon="7.25549">
        <ele>777.5</ele>
        <time>2019-03-10T14:17:47Z</time>
      </trkpt>
      <trkpt lat="43.85263" lon="7.25534">
        <ele>775.1</ele>
        <time>2019-03-10T14:17:51Z</time>
      </trkpt>
      <trkpt lat="43.85259" lon="7.25515">
        <ele>772.7</ele>
        <time>2019-03-10T14:17:55Z</time>
      </trkpt>
      <trkpt lat="43.85259" lon="7.25515">
        <ele>772.7</ele>
        <time>2019-03-10T14:17:59Z</time>
      </trkpt>
      <trkpt lat="43.85259" lon="7.25515">
        <ele>772.7</ele>
        <time>2019-03-10T14:18:03Z</time>
      </trkpt>
      <trkpt lat="43.85259" lon="7.25515">
        <ele>772.7</ele>
        <time>2019-03-10T14:18:07Z</time>
      </trkpt>
      <trkpt lat="43.85259" lon="7.25515">
        <ele>772.7</ele>
        <time>2019-03-10T14:18:11Z</time>
      </trkpt>
      <trkpt lat="43.85259" lon="7.25515">
        <ele>772.7</ele>
        <time>2019-03-10T14:18:15Z</time>
      </trkpt>
      <trkpt lat="43.85259" lon="7.25515">
        <ele>772.7</ele>
        <time>2019-03-10T14:18:19Z</time>
      </trkpt>
      <trkpt lat="43.85259" lon="7.25515">
        <ele>772.7</ele>
        <time>2019-03-10T14:18:23Z</time>
      </trkpt>
      <trkpt lat="43.85259" lon="7.25515">
        <ele>772.7</ele>
        <time>2019-03-10T14:18:27Z</time>
      </trkpt>
      <trkpt lat="43.85259" lon="7.25515">
        <ele>772.7</ele>
        <time>2019-03-10T14:18:31Z</time>
      </trkpt>
      <trkpt lat="43.85259" lon="7.25515">
        <ele>772.7</ele>
        <time>2019-03-10T14:18:35Z</time>
      </trkpt>
      <trkpt lat="43.85259" lon="7.25515">
        <ele>772.7</ele>
        <time>2019-03-10T14:18:39Z</time>
      </trkpt>
      <trkpt lat="43.85259" lon="7.25515">
        <ele>772.7</ele>
        <time>2019-03-10T14:18:43Z</time>
      </trkpt>
      <trkpt lat="43.85259" lon="7.25515">
        <ele>772.7</ele>
        <time>2019-03-10T14:18:47Z</time>
      </trkpt>
      <trkpt lat="43.85259" lon="7.25515">
        <ele>772.7</ele>
        <time>2019-03-10T14:18:51Z</time>
      </trkpt>
      <trkpt lat="43.85259" lon="7.25515">
        <ele>772.7</ele>
        <time>2019-03-10T14:18:55Z</time>
      </trkpt>
      <trkpt lat="43.85259" lon="7.25515">
        <ele>772.7</ele>
        <time>2019-03-10T14:18:59Z</time>
      </trkpt>
      <trkpt lat="43.85259" lon="7.25515">
        <ele>772.7</ele>
        <time>2019-03-10T14:19:03Z</time>
      </trkpt>
      <trkpt lat="43.85259" lon="7.25515">
        <ele>772.7</ele>
        <time>2019-03-10T14:19:07Z</time>
      </trkpt>
      <trkpt lat="43.85259" lon="7.25504">
        <ele>771.2</ele>
        <time>2019-03-10T14:19:11Z</time>
      </trkpt>
      <trkpt lat="43.85254" lon="7.25493">
        <ele>769.4</ele>
        <time>2019-03-10T14:19:15Z</time>
      </trkpt>
      <trkpt lat="43.85245" lon="7.2548">
        <ele>766.5</ele>
        <time>2019-03-10T14:19:19Z</time>
      </trkpt>
      <trkpt lat="43.85238" lon="7.25465">
        <ele>763.8</ele>
        <time>2019-03-10T14:19:23Z</time>
      </trkpt>
      <trkpt lat="43.85229" lon="7.25446">
        <ele>760.7</ele>
        <time>2019-03-10T14:19:27Z</time>
      </trkpt>
      <trkpt lat="43.85224" lon="7.25426">
        <ele>757.3</ele>
        <time>2019-03-10T14:19:31Z</time>
      </trkpt>
      <trkpt lat="43.85226" lon="7.25407">
        <ele>753.6</ele>
        <time>2019-03-10T14:19:35Z</time>
      </trkpt>
      <trkpt lat="43.85219" lon="7.25392">
        <ele>750</ele>
        <time>2019-03-10T14:19:39Z</time>
      </trkpt>
      <trkpt lat="43.8521" lon="7.25365">
        <ele>745.9</ele>
        <time>2019-03-10T14:19:43Z</time>
      </trkpt>
      <trkpt lat="43.85203" lon="7.25345">
        <ele>743.9</ele>
        <time>2019-03-10T14:19:47Z</time>
      </trkpt>
      <trkpt lat="43.85185" lon="7.25336">
        <ele>685.7</ele>
        <time>2019-03-10T14:19:51Z</time>
      </trkpt>
      <trkpt lat="43.85185" lon="7.25336">
        <ele>685.7</ele>
        <time>2019-03-10T14:19:55Z</time>
      </trkpt>
      <trkpt lat="43.85185" lon="7.25336">
        <ele>685.7</ele>
        <time>2019-03-10T14:19:59Z</time>
      </trkpt>
      <trkpt lat="43.85185" lon="7.25336">
        <ele>685.7</ele>
        <time>2019-03-10T14:20:03Z</time>
      </trkpt>
      <trkpt lat="43.85185" lon="7.25336">
        <ele>685.7</ele>
        <time>2019-03-10T14:20:07Z</time>
      </trkpt>
      <trkpt lat="43.85185" lon="7.25336">
        <ele>685.7</ele>
        <time>2019-03-10T14:20:11Z</time>
      </trkpt>
      <trkpt lat="43.85185" lon="7.25336">
        <ele>685.7</ele>
        <time>2019-03-10T14:20:15Z</time>
      </trkpt>
      <trkpt lat="43.85185" lon="7.25336">
        <ele>685.7</ele>
        <time>2019-03-10T14:20:19Z</time>
      </trkpt>
      <trkpt lat="43.85185" lon="7.25336">
        <ele>685.7</ele>
        <time>2019-03-10T14:20:23Z</time>
      </trkpt>
      <trkpt lat="43.85185" lon="7.25336">
        <ele>685.7</ele>
        <time>2019-03-10T14:20:27Z</time>
      </trkpt>
      <trkpt lat="43.85185" lon="7.25336">
        <ele>685.7</ele>
        <time>2019-03-10T14:20:31Z</time>
      </trkpt>
      <trkpt lat="43.85185" lon="7.25336">
        <ele>685.7</ele>
        <time>2019-03-10T14:20:35Z</time>
      </trkpt>
      <trkpt lat="43.85185" lon="7.25336">
        <ele>685.7</ele>
        <time>2019-03-10T14:20:39Z</time>
      </trkpt>
      <trkpt lat="43.85185" lon="7.25336">
        <ele>685.7</ele>
        <time>2019-03-10T14:20:43Z</time>
      </trkpt>
      <trkpt lat="43.85185" lon="7.25336">
        <ele>685.7</ele>
        <time>2019-03-10T14:20:47Z</time>
      </trkpt>
      <trkpt lat="43.85185" lon="7.25336">
        <ele>685.7</ele>
        <time>2019-03-10T14:20:51Z</time>
      </trkpt>
      <trkpt lat="43.85185" lon="7.25336">
        <ele>685.7</ele>
        <time>2019-03-10T14:20:55Z</time>
      </trkpt>
      <trkpt lat="43.85185" lon="7.25336">
        <ele>685.7</ele>
        <time>2019-03-10T14:20:59Z</time>
      </trkpt>
      <trkpt lat="43.85185" lon="7.25336">
        <ele>685.7</ele>
        <time>2019-03-10T14:21:03Z</time>
      </trkpt>
      <trkpt lat="43.85185" lon="7.25336">
        <ele>685.7</ele>
        <time>2019-03-10T14:21:07Z</time>
      </trkpt>
      <trkpt lat="43.85177" lon="7.25328">
        <ele>743.4</ele>
        <time>2019-03-10T14:21:11Z</time>
      </trkpt>
      <trkpt lat="43.85187" lon="7.25334">
        <ele>742.5</ele>
        <time>2019-03-10T14:21:15Z</time>
      </trkpt>
      <trkpt lat="43.85199" lon="7.25337">
        <ele>743.4</ele>
        <time>2019-03-10T14:21:19Z</time>
      </trkpt>
      <trkpt lat="43.85205" lon="7.25339">
        <ele>744.1</ele>
        <time>2019-03-10T14:21:23Z</time>
      </trkpt>
      <trkpt lat="43.85212" lon="7.25338">
        <ele>744.3</ele>
        <time>2019-03-10T14:21:27Z</time>
      </trkpt>
      <trkpt lat="43.85218" lon="7.25337">
        <ele>744.3</ele>
        <time>2019-03-10T14:21:31Z</time>
      </trkpt>
      <trkpt lat="43.85224" lon="7.25334">
        <ele>744.2</ele>
        <time>2019-03-10T14:21:35Z</time>
      </trkpt>
      <trkpt lat="43.85231" lon="7.25331">
        <ele>744.2</ele>
        <time>2019-03-10T14:21:39Z</time>
      </trkpt>
      <trkpt lat="43.85236" lon="7.25328">
        <ele>744.3</ele>
        <time>2019-03-10T14:21:43Z</time>
      </trkpt>
      <trkpt lat="43.85244" lon="7.25327">
        <ele>744.7</ele>
        <time>2019-03-10T14:21:47Z</time>
      </trkpt>
      <trkpt lat="43.85249" lon="7.25324">
        <ele>745.3</ele>
        <time>2019-03-10T14:21:51Z</time>
      </trkpt>
      <trkpt lat="43.85256" lon="7.25324">
        <ele>746</ele>
        <time>2019-03-10T14:21:55Z</time>
      </trkpt>
      <trkpt lat="43.85262" lon="7.25322">
        <ele>747.3</ele>
        <time>2019-03-10T14:21:59Z</time>
      </trkpt>
      <trkpt lat="43.85268" lon="7.25321">
        <ele>748.5</ele>
        <time>2019-03-10T14:22:03Z</time>
      </trkpt>
      <trkpt lat="43.85274" lon="7.2532">
        <ele>749.3</ele>
        <time>2019-03-10T14:22:07Z</time>
      </trkpt>
      <trkpt lat="43.85281" lon="7.25319">
        <ele>750.1</ele>
        <time>2019-03-10T14:22:11Z</time>
      </trkpt>
      <trkpt lat="43.85287" lon="7.25317">
        <ele>750.8</ele>
        <time>2019-03-10T14:22:15Z</time>
      </trkpt>
      <trkpt lat="43.85293" lon="7.25314">
        <ele>751.5</ele>
        <time>2019-03-10T14:22:19Z</time>
      </trkpt>
      <trkpt lat="43.85299" lon="7.25312">
        <ele>752.2</ele>
        <time>2019-03-10T14:22:23Z</time>
      </trkpt>
      <trkpt lat="43.85306" lon="7.2531">
        <ele>753</ele>
        <time>2019-03-10T14:22:27Z</time>
      </trkpt>
      <trkpt lat="43.85312" lon="7.25308">
        <ele>753.8</ele>
        <time>2019-03-10T14:22:31Z</time>
      </trkpt>
      <trkpt lat="43.85318" lon="7.25306">
        <ele>754.8</ele>
        <time>2019-03-10T14:22:35Z</time>
      </trkpt>
      <trkpt lat="43.85324" lon="7.25305">
        <ele>755.7</ele>
        <time>2019-03-10T14:22:39Z</time>
      </trkpt>
      <trkpt lat="43.8533" lon="7.25305">
        <ele>756.6</ele>
        <time>2019-03-10T14:22:43Z</time>
      </trkpt>
      <trkpt lat="43.85336" lon="7.25305">
        <ele>757.6</ele>
        <time>2019-03-10T14:22:47Z</time>
      </trkpt>
      <trkpt lat="43.85343" lon="7.25306">
        <ele>758.6</ele>
        <time>2019-03-10T14:22:51Z</time>
      </trkpt>
      <trkpt lat="43.85349" lon="7.25307">
        <ele>759.3</ele>
        <time>2019-03-10T14:22:55Z</time>
      </trkpt>
      <trkpt lat="43.85355" lon="7.25307">
        <ele>760.1</ele>
        <time>2019-03-10T14:22:59Z</time>
      </trkpt>
      <trkpt lat="43.85362" lon="7.25307">
        <ele>760.7</ele>
        <time>2019-03-10T14:23:03Z</time>
      </trkpt>
      <trkpt lat="43.85369" lon="7.2531">
        <ele>761.3</ele>
        <time>2019-03-10T14:23:07Z</time>
      </trkpt>
      <trkpt lat="43.85375" lon="7.25312">
        <ele>761.8</ele>
        <time>2019-03-10T14:23:11Z</time>
      </trkpt>
      <trkpt lat="43.85382" lon="7.25315">
        <ele>762.4</ele>
        <time>2019-03-10T14:23:15Z</time>
      </trkpt>
      <trkpt lat="43.85388" lon="7.25317">
        <ele>762.9</ele>
        <time>2019-03-10T14:23:19Z</time>
      </trkpt>
      <trkpt lat="43.85395" lon="7.25319">
        <ele>763.7</ele>
        <time>2019-03-10T14:23:23Z</time>
      </trkpt>
      <trkpt lat="43.85402" lon="7.25321">
        <ele>764.5</ele>
        <time>2019-03-10T14:23:27Z</time>
      </trkpt>
      <trkpt lat="43.85409" lon="7.25323">
        <ele>765.4</ele>
        <time>2019-03-10T14:23:31Z</time>
      </trkpt>
      <trkpt lat="43.85415" lon="7.25325">
        <ele>766.2</ele>
        <time>2019-03-10T14:23:35Z</time>
      </trkpt>
      <trkpt lat="43.85421" lon="7.25329">
        <ele>766.9</ele>
        <time>2019-03-10T14:23:39Z</time>
      </trkpt>
      <trkpt lat="43.85428" lon="7.25332">
        <ele>767.5</ele>
        <time>2019-03-10T14:23:43Z</time>
      </trkpt>
      <trkpt lat="43.85435" lon="7.2533">
        <ele>767.8</ele>
        <time>2019-03-10T14:23:47Z</time>
      </trkpt>
      <trkpt lat="43.85442" lon="7.2533">
        <ele>767.8</ele>
        <time>2019-03-10T14:23:51Z</time>
      </trkpt>
      <trkpt lat="43.85455" lon="7.2533">
        <ele>767.3</ele>
        <time>2019-03-10T14:23:55Z</time>
      </trkpt>
      <trkpt lat="43.85465" lon="7.2534">
        <ele>766.7</ele>
        <time>2019-03-10T14:23:59Z</time>
      </trkpt>
      <trkpt lat="43.85476" lon="7.25342">
        <ele>766.7</ele>
        <time>2019-03-10T14:24:03Z</time>
      </trkpt>
      <trkpt lat="43.85485" lon="7.25337">
        <ele>767.3</ele>
        <time>2019-03-10T14:24:07Z</time>
      </trkpt>
      <trkpt lat="43.85497" lon="7.25343">
        <ele>768.4</ele>
        <time>2019-03-10T14:24:11Z</time>
      </trkpt>
      <trkpt lat="43.85508" lon="7.25347">
        <ele>769.4</ele>
        <time>2019-03-10T14:24:15Z</time>
      </trkpt>
      <trkpt lat="43.85516" lon="7.25354">
        <ele>770</ele>
        <time>2019-03-10T14:24:19Z</time>
      </trkpt>
      <trkpt lat="43.85526" lon="7.25358">
        <ele>770.5</ele>
        <time>2019-03-10T14:24:23Z</time>
      </trkpt>
      <trkpt lat="43.85538" lon="7.25358">
        <ele>770.8</ele>
        <time>2019-03-10T14:24:27Z</time>
      </trkpt>
      <trkpt lat="43.85551" lon="7.25363">
        <ele>770.9</ele>
        <time>2019-03-10T14:24:31Z</time>
      </trkpt>
      <trkpt lat="43.85565" lon="7.25371">
        <ele>770.9</ele>
        <time>2019-03-10T14:24:35Z</time>
      </trkpt>
      <trkpt lat="43.8558" lon="7.25372">
        <ele>770.9</ele>
        <time>2019-03-10T14:24:39Z</time>
      </trkpt>
      <trkpt lat="43.85595" lon="7.25376">
        <ele>771.3</ele>
        <time>2019-03-10T14:24:43Z</time>
      </trkpt>
      <trkpt lat="43.85606" lon="7.25385">
        <ele>771.9</ele>
        <time>2019-03-10T14:24:47Z</time>
      </trkpt>
      <trkpt lat="43.85619" lon="7.25386">
        <ele>772.6</ele>
        <time>2019-03-10T14:24:51Z</time>
      </trkpt>
      <trkpt lat="43.85633" lon="7.25388">
        <ele>773.5</ele>
        <time>2019-03-10T14:24:55Z</time>
      </trkpt>
      <trkpt lat="43.85645" lon="7.25389">
        <ele>774.4</ele>
        <time>2019-03-10T14:24:59Z</time>
      </trkpt>
      <trkpt lat="43.85653" lon="7.254">
        <ele>775.6</ele>
        <time>2019-03-10T14:25:03Z</time>
      </trkpt>
      <trkpt lat="43.85663" lon="7.25396">
        <ele>776.6</ele>
        <time>2019-03-10T14:25:07Z</time>
      </trkpt>
      <trkpt lat="43.85673" lon="7.25396">
        <ele>777.9</ele>
        <time>2019-03-10T14:25:11Z</time>
      </trkpt>
      <trkpt lat="43.85682" lon="7.25395">
        <ele>779.1</ele>
        <time>2019-03-10T14:25:15Z</time>
      </trkpt>
      <trkpt lat="43.8569" lon="7.25398">
        <ele>780</ele>
        <time>2019-03-10T14:25:19Z</time>
      </trkpt>
      <trkpt lat="43.85696" lon="7.25402">
        <ele>780.8</ele>
        <time>2019-03-10T14:25:23Z</time>
      </trkpt>
      <trkpt lat="43.85703" lon="7.25402">
        <ele>781.6</ele>
        <time>2019-03-10T14:25:27Z</time>
      </trkpt>
      <trkpt lat="43.85709" lon="7.25405">
        <ele>782.3</ele>
        <time>2019-03-10T14:25:31Z</time>
      </trkpt>
      <trkpt lat="43.85716" lon="7.25407">
        <ele>782.9</ele>
        <time>2019-03-10T14:25:35Z</time>
      </trkpt>
      <trkpt lat="43.85725" lon="7.2541">
        <ele>783.7</ele>
        <time>2019-03-10T14:25:39Z</time>
      </trkpt>
      <trkpt lat="43.85733" lon="7.25412">
        <ele>784.5</ele>
        <time>2019-03-10T14:25:43Z</time>
      </trkpt>
      <trkpt lat="43.85738" lon="7.25416">
        <ele>785.2</ele>
        <time>2019-03-10T14:25:47Z</time>
      </trkpt>
      <trkpt lat="43.85743" lon="7.25421">
        <ele>786</ele>
        <time>2019-03-10T14:25:51Z</time>
      </trkpt>
      <trkpt lat="43.8575" lon="7.25422">
        <ele>787.1</ele>
        <time>2019-03-10T14:25:55Z</time>
      </trkpt>
      <trkpt lat="43.85757" lon="7.2542">
        <ele>787.9</ele>
        <time>2019-03-10T14:25:59Z</time>
      </trkpt>
      <trkpt lat="43.85762" lon="7.25418">
        <ele>788.6</ele>
        <time>2019-03-10T14:26:03Z</time>
      </trkpt>
      <trkpt lat="43.85769" lon="7.25412">
        <ele>789</ele>
        <time>2019-03-10T14:26:07Z</time>
      </trkpt>
      <trkpt lat="43.85776" lon="7.25404">
        <ele>788.7</ele>
        <time>2019-03-10T14:26:11Z</time>
      </trkpt>
      <trkpt lat="43.8579" lon="7.25391">
        <ele>786.9</ele>
        <time>2019-03-10T14:26:15Z</time>
      </trkpt>
      <trkpt lat="43.85811" lon="7.25391">
        <ele>784.5</ele>
        <time>2019-03-10T14:26:19Z</time>
      </trkpt>
      <trkpt lat="43.85826" lon="7.25395">
        <ele>784.1</ele>
        <time>2019-03-10T14:26:23Z</time>
      </trkpt>
      <trkpt lat="43.85835" lon="7.25404">
        <ele>784.3</ele>
        <time>2019-03-10T14:26:27Z</time>
      </trkpt>
      <trkpt lat="43.85846" lon="7.25416">
        <ele>784.4</ele>
        <time>2019-03-10T14:26:31Z</time>
      </trkpt>
      <trkpt lat="43.85853" lon="7.25428">
        <ele>784.1</ele>
        <time>2019-03-10T14:26:35Z</time>
      </trkpt>
      <trkpt lat="43.85866" lon="7.25439">
        <ele>783.6</ele>
        <time>2019-03-10T14:26:39Z</time>
      </trkpt>
      <trkpt lat="43.85871" lon="7.25448">
        <ele>783.5</ele>
        <time>2019-03-10T14:26:43Z</time>
      </trkpt>
      <trkpt lat="43.85882" lon="7.25463">
        <ele>783.7</ele>
        <time>2019-03-10T14:26:47Z</time>
      </trkpt>
      <trkpt lat="43.8589" lon="7.25474">
        <ele>784.3</ele>
        <time>2019-03-10T14:26:51Z</time>
      </trkpt>
      <trkpt lat="43.85899" lon="7.25485">
        <ele>785.4</ele>
        <time>2019-03-10T14:26:55Z</time>
      </trkpt>
      <trkpt lat="43.85909" lon="7.25491">
        <ele>786.2</ele>
        <time>2019-03-10T14:26:59Z</time>
      </trkpt>
      <trkpt lat="43.85918" lon="7.25498">
        <ele>786.5</ele>
        <time>2019-03-10T14:27:03Z</time>
      </trkpt>
      <trkpt lat="43.85927" lon="7.25508">
        <ele>786.6</ele>
        <time>2019-03-10T14:27:07Z</time>
      </trkpt>
      <trkpt lat="43.85934" lon="7.25517">
        <ele>786.6</ele>
        <time>2019-03-10T14:27:11Z</time>
      </trkpt>
      <trkpt lat="43.85937" lon="7.2553">
        <ele>786.6</ele>
        <time>2019-03-10T14:27:15Z</time>
      </trkpt>
      <trkpt lat="43.85941" lon="7.25546">
        <ele>786.9</ele>
        <time>2019-03-10T14:27:19Z</time>
      </trkpt>
      <trkpt lat="43.8595" lon="7.25558">
        <ele>787.9</ele>
        <time>2019-03-10T14:27:23Z</time>
      </trkpt>
      <trkpt lat="43.85957" lon="7.25563">
        <ele>788.9</ele>
        <time>2019-03-10T14:27:27Z</time>
      </trkpt>
      <trkpt lat="43.85964" lon="7.25566">
        <ele>789.9</ele>
        <time>2019-03-10T14:27:31Z</time>
      </trkpt>
      <trkpt lat="43.85969" lon="7.25571">
        <ele>791</ele>
        <time>2019-03-10T14:27:35Z</time>
      </trkpt>
      <trkpt lat="43.85974" lon="7.25577">
        <ele>792.3</ele>
        <time>2019-03-10T14:27:39Z</time>
      </trkpt>
      <trkpt lat="43.85976" lon="7.25584">
        <ele>793.4</ele>
        <time>2019-03-10T14:27:43Z</time>
      </trkpt>
      <trkpt lat="43.85978" lon="7.25593">
        <ele>793.9</ele>
        <time>2019-03-10T14:27:47Z</time>
      </trkpt>
      <trkpt lat="43.85979" lon="7.25601">
        <ele>794.2</ele>
        <time>2019-03-10T14:27:51Z</time>
      </trkpt>
      <trkpt lat="43.85984" lon="7.25607">
        <ele>794.6</ele>
        <time>2019-03-10T14:27:55Z</time>
      </trkpt>
      <trkpt lat="43.85989" lon="7.25609">
        <ele>794.8</ele>
        <time>2019-03-10T14:27:59Z</time>
      </trkpt>
      <trkpt lat="43.85994" lon="7.25611">
        <ele>795.1</ele>
        <time>2019-03-10T14:28:03Z</time>
      </trkpt>
      <trkpt lat="43.85999" lon="7.25614">
        <ele>795.5</ele>
        <time>2019-03-10T14:28:07Z</time>
      </trkpt>
      <trkpt lat="43.86005" lon="7.25619">
        <ele>796</ele>
        <time>2019-03-10T14:28:11Z</time>
      </trkpt>
      <trkpt lat="43.8601" lon="7.25624">
        <ele>796.7</ele>
        <time>2019-03-10T14:28:15Z</time>
      </trkpt>
      <trkpt lat="43.8601" lon="7.25624">
        <ele>796.7</ele>
        <time>2019-03-10T14:28:19Z</time>
      </trkpt>
      <trkpt lat="43.86011" lon="7.25627">
        <ele>796.9</ele>
        <time>2019-03-10T14:28:23Z</time>
      </trkpt>
      <trkpt lat="43.86013" lon="7.25628">
        <ele>797.2</ele>
        <time>2019-03-10T14:28:27Z</time>
      </trkpt>
      <trkpt lat="43.86016" lon="7.25627">
        <ele>797.6</ele>
        <time>2019-03-10T14:28:31Z</time>
      </trkpt>
      <trkpt lat="43.8602" lon="7.25628">
        <ele>798</ele>
        <time>2019-03-10T14:28:35Z</time>
      </trkpt>
      <trkpt lat="43.86024" lon="7.25629">
        <ele>798.4</ele>
        <time>2019-03-10T14:28:39Z</time>
      </trkpt>
      <trkpt lat="43.86028" lon="7.2563">
        <ele>798.8</ele>
        <time>2019-03-10T14:28:43Z</time>
      </trkpt>
      <trkpt lat="43.86031" lon="7.25631">
        <ele>799.1</ele>
        <time>2019-03-10T14:28:47Z</time>
      </trkpt>
      <trkpt lat="43.86034" lon="7.25633">
        <ele>799.4</ele>
        <time>2019-03-10T14:28:51Z</time>
      </trkpt>
      <trkpt lat="43.86037" lon="7.25634">
        <ele>799.6</ele>
        <time>2019-03-10T14:28:55Z</time>
      </trkpt>
      <trkpt lat="43.86041" lon="7.25636">
        <ele>799.9</ele>
        <time>2019-03-10T14:28:59Z</time>
      </trkpt>
      <trkpt lat="43.86045" lon="7.25637">
        <ele>800.3</ele>
        <time>2019-03-10T14:29:03Z</time>
      </trkpt>
      <trkpt lat="43.86048" lon="7.25639">
        <ele>800.7</ele>
        <time>2019-03-10T14:29:07Z</time>
      </trkpt>
      <trkpt lat="43.86051" lon="7.2564">
        <ele>801.1</ele>
        <time>2019-03-10T14:29:11Z</time>
      </trkpt>
      <trkpt lat="43.86054" lon="7.25641">
        <ele>801.3</ele>
        <time>2019-03-10T14:29:15Z</time>
      </trkpt>
      <trkpt lat="43.86057" lon="7.25642">
        <ele>801.5</ele>
        <time>2019-03-10T14:29:19Z</time>
      </trkpt>
      <trkpt lat="43.86059" lon="7.25643">
        <ele>801.6</ele>
        <time>2019-03-10T14:29:23Z</time>
      </trkpt>
      <trkpt lat="43.86062" lon="7.25644">
        <ele>801.8</ele>
        <time>2019-03-10T14:29:27Z</time>
      </trkpt>
      <trkpt lat="43.86065" lon="7.25644">
        <ele>802.1</ele>
        <time>2019-03-10T14:29:31Z</time>
      </trkpt>
      <trkpt lat="43.86068" lon="7.25646">
        <ele>802.2</ele>
        <time>2019-03-10T14:29:35Z</time>
      </trkpt>
      <trkpt lat="43.8607" lon="7.25649">
        <ele>802.4</ele>
        <time>2019-03-10T14:29:39Z</time>
      </trkpt>
      <trkpt lat="43.86072" lon="7.25652">
        <ele>802.7</ele>
        <time>2019-03-10T14:29:43Z</time>
      </trkpt>
      <trkpt lat="43.86075" lon="7.25654">
        <ele>803</ele>
        <time>2019-03-10T14:29:47Z</time>
      </trkpt>
      <trkpt lat="43.86078" lon="7.25657">
        <ele>803.4</ele>
        <time>2019-03-10T14:29:51Z</time>
      </trkpt>
      <trkpt lat="43.86082" lon="7.25661">
        <ele>804</ele>
        <time>2019-03-10T14:29:55Z</time>
      </trkpt>
      <trkpt lat="43.86084" lon="7.25667">
        <ele>804.5</ele>
        <time>2019-03-10T14:29:59Z</time>
      </trkpt>
      <trkpt lat="43.86084" lon="7.25667">
        <ele>804.5</ele>
        <time>2019-03-10T14:30:03Z</time>
      </trkpt>
      <trkpt lat="43.86084" lon="7.25667">
        <ele>804.5</ele>
        <time>2019-03-10T14:30:07Z</time>
      </trkpt>
      <trkpt lat="43.86084" lon="7.25667">
        <ele>804.5</ele>
        <time>2019-03-10T14:30:11Z</time>
      </trkpt>
      <trkpt lat="43.86084" lon="7.25667">
        <ele>804.5</ele>
        <time>2019-03-10T14:30:15Z</time>
      </trkpt>
      <trkpt lat="43.86084" lon="7.25667">
        <ele>804.5</ele>
        <time>2019-03-10T14:30:19Z</time>
      </trkpt>
      <trkpt lat="43.86084" lon="7.25667">
        <ele>804.5</ele>
        <time>2019-03-10T14:30:23Z</time>
      </trkpt>
      <trkpt lat="43.86084" lon="7.25667">
        <ele>804.5</ele>
        <time>2019-03-10T14:30:27Z</time>
      </trkpt>
      <trkpt lat="43.86084" lon="7.25667">
        <ele>804.5</ele>
        <time>2019-03-10T14:30:31Z</time>
      </trkpt>
      <trkpt lat="43.86084" lon="7.25667">
        <ele>804.5</ele>
        <time>2019-03-10T14:30:35Z</time>
      </trkpt>
      <trkpt lat="43.86084" lon="7.25667">
        <ele>804.5</ele>
        <time>2019-03-10T14:30:39Z</time>
      </trkpt>
      <trkpt lat="43.86084" lon="7.25667">
        <ele>804.5</ele>
        <time>2019-03-10T14:30:43Z</time>
      </trkpt>
      <trkpt lat="43.86084" lon="7.25667">
        <ele>804.5</ele>
        <time>2019-03-10T14:30:47Z</time>
      </trkpt>
      <trkpt lat="43.86084" lon="7.25667">
        <ele>804.5</ele>
        <time>2019-03-10T14:30:51Z</time>
      </trkpt>
      <trkpt lat="43.86084" lon="7.25667">
        <ele>804.5</ele>
        <time>2019-03-10T14:30:55Z</time>
      </trkpt>
      <trkpt lat="43.86084" lon="7.25667">
        <ele>804.5</ele>
        <time>2019-03-10T14:30:59Z</time>
      </trkpt>
      <trkpt lat="43.86084" lon="7.25667">
        <ele>804.5</ele>
        <time>2019-03-10T14:31:03Z</time>
      </trkpt>
      <trkpt lat="43.86084" lon="7.25667">
        <ele>804.5</ele>
        <time>2019-03-10T14:31:07Z</time>
      </trkpt>
      <trkpt lat="43.86084" lon="7.25667">
        <ele>804.5</ele>
        <time>2019-03-10T14:31:11Z</time>
      </trkpt>
      <trkpt lat="43.86084" lon="7.25667">
        <ele>804.5</ele>
        <time>2019-03-10T14:31:15Z</time>
      </trkpt>
      <trkpt lat="43.86084" lon="7.25667">
        <ele>804.5</ele>
        <time>2019-03-10T14:31:19Z</time>
      </trkpt>
      <trkpt lat="43.86084" lon="7.25667">
        <ele>804.5</ele>
        <time>2019-03-10T14:31:23Z</time>
      </trkpt>
      <trkpt lat="43.86084" lon="7.25667">
        <ele>804.5</ele>
        <time>2019-03-10T14:31:27Z</time>
      </trkpt>
      <trkpt lat="43.86084" lon="7.25667">
        <ele>804.5</ele>
        <time>2019-03-10T14:31:31Z</time>
      </trkpt>
      <trkpt lat="43.86084" lon="7.25667">
        <ele>804.5</ele>
        <time>2019-03-10T14:31:35Z</time>
      </trkpt>
      <trkpt lat="43.86084" lon="7.25667">
        <ele>804.5</ele>
        <time>2019-03-10T14:31:39Z</time>
      </trkpt>
      <trkpt lat="43.86084" lon="7.25667">
        <ele>804.5</ele>
        <time>2019-03-10T14:31:43Z</time>
      </trkpt>
      <trkpt lat="43.86084" lon="7.25667">
        <ele>804.5</ele>
        <time>2019-03-10T14:31:47Z</time>
      </trkpt>
      <trkpt lat="43.86084" lon="7.25667">
        <ele>804.5</ele>
        <time>2019-03-10T14:31:51Z</time>
      </trkpt>
      <trkpt lat="43.86084" lon="7.25667">
        <ele>804.5</ele>
        <time>2019-03-10T14:31:55Z</time>
      </trkpt>
      <trkpt lat="43.86084" lon="7.25667">
        <ele>804.5</ele>
        <time>2019-03-10T14:31:59Z</time>
      </trkpt>
      <trkpt lat="43.86084" lon="7.25667">
        <ele>804.5</ele>
        <time>2019-03-10T14:32:03Z</time>
      </trkpt>
      <trkpt lat="43.86084" lon="7.25667">
        <ele>804.5</ele>
        <time>2019-03-10T14:32:07Z</time>
      </trkpt>
      <trkpt lat="43.86084" lon="7.25667">
        <ele>804.5</ele>
        <time>2019-03-10T14:32:11Z</time>
      </trkpt>
      <trkpt lat="43.86084" lon="7.25667">
        <ele>804.5</ele>
        <time>2019-03-10T14:32:15Z</time>
      </trkpt>
      <trkpt lat="43.86084" lon="7.25667">
        <ele>804.5</ele>
        <time>2019-03-10T14:32:19Z</time>
      </trkpt>
      <trkpt lat="43.86084" lon="7.25667">
        <ele>804.5</ele>
        <time>2019-03-10T14:32:23Z</time>
      </trkpt>
      <trkpt lat="43.86084" lon="7.25667">
        <ele>804.5</ele>
        <time>2019-03-10T14:32:27Z</time>
      </trkpt>
      <trkpt lat="43.86078" lon="7.25661">
        <ele>805.4</ele>
        <time>2019-03-10T14:32:31Z</time>
      </trkpt>
      <trkpt lat="43.86078" lon="7.25661">
        <ele>805.4</ele>
        <time>2019-03-10T14:32:35Z</time>
      </trkpt>
      <trkpt lat="43.86078" lon="7.25661">
        <ele>805.4</ele>
        <time>2019-03-10T14:32:39Z</time>
      </trkpt>
      <trkpt lat="43.86082" lon="7.25666">
        <ele>806</ele>
        <time>2019-03-10T14:32:43Z</time>
      </trkpt>
      <trkpt lat="43.86085" lon="7.25671">
        <ele>806.4</ele>
        <time>2019-03-10T14:32:47Z</time>
      </trkpt>
      <trkpt lat="43.86092" lon="7.25679">
        <ele>807.4</ele>
        <time>2019-03-10T14:32:51Z</time>
      </trkpt>
      <trkpt lat="43.86098" lon="7.25686">
        <ele>808.5</ele>
        <time>2019-03-10T14:32:55Z</time>
      </trkpt>
      <trkpt lat="43.86106" lon="7.25694">
        <ele>809.7</ele>
        <time>2019-03-10T14:32:59Z</time>
      </trkpt>
      <trkpt lat="43.86113" lon="7.257">
        <ele>810.5</ele>
        <time>2019-03-10T14:33:03Z</time>
      </trkpt>
      <trkpt lat="43.8612" lon="7.25699">
        <ele>811.2</ele>
        <time>2019-03-10T14:33:07Z</time>
      </trkpt>
      <trkpt lat="43.86125" lon="7.25696">
        <ele>811.7</ele>
        <time>2019-03-10T14:33:11Z</time>
      </trkpt>
      <trkpt lat="43.86132" lon="7.25698">
        <ele>813.1</ele>
        <time>2019-03-10T14:33:15Z</time>
      </trkpt>
      <trkpt lat="43.86139" lon="7.25698">
        <ele>814.4</ele>
        <time>2019-03-10T14:33:19Z</time>
      </trkpt>
      <trkpt lat="43.86139" lon="7.25698">
        <ele>814.4</ele>
        <time>2019-03-10T14:33:23Z</time>
      </trkpt>
      <trkpt lat="43.86142" lon="7.25702">
        <ele>815.1</ele>
        <time>2019-03-10T14:33:27Z</time>
      </trkpt>
      <trkpt lat="43.86143" lon="7.25707">
        <ele>815.7</ele>
        <time>2019-03-10T14:33:31Z</time>
      </trkpt>
      <trkpt lat="43.86146" lon="7.25712">
        <ele>816.1</ele>
        <time>2019-03-10T14:33:35Z</time>
      </trkpt>
      <trkpt lat="43.86148" lon="7.25715">
        <ele>816.4</ele>
        <time>2019-03-10T14:33:39Z</time>
      </trkpt>
      <trkpt lat="43.8615" lon="7.25719">
        <ele>816.7</ele>
        <time>2019-03-10T14:33:43Z</time>
      </trkpt>
      <trkpt lat="43.86151" lon="7.2572">
        <ele>816.9</ele>
        <time>2019-03-10T14:33:47Z</time>
      </trkpt>
      <trkpt lat="43.86153" lon="7.25722">
        <ele>817.1</ele>
        <time>2019-03-10T14:33:51Z</time>
      </trkpt>
      <trkpt lat="43.86155" lon="7.25724">
        <ele>817.3</ele>
        <time>2019-03-10T14:33:55Z</time>
      </trkpt>
      <trkpt lat="43.86157" lon="7.25728">
        <ele>817.6</ele>
        <time>2019-03-10T14:33:59Z</time>
      </trkpt>
      <trkpt lat="43.8616" lon="7.25732">
        <ele>817.9</ele>
        <time>2019-03-10T14:34:03Z</time>
      </trkpt>
      <trkpt lat="43.86163" lon="7.25737">
        <ele>818.1</ele>
        <time>2019-03-10T14:34:07Z</time>
      </trkpt>
      <trkpt lat="43.86166" lon="7.25741">
        <ele>818.3</ele>
        <time>2019-03-10T14:34:11Z</time>
      </trkpt>
      <trkpt lat="43.86166" lon="7.25741">
        <ele>818.3</ele>
        <time>2019-03-10T14:34:15Z</time>
      </trkpt>
      <trkpt lat="43.86169" lon="7.25746">
        <ele>818.5</ele>
        <time>2019-03-10T14:34:19Z</time>
      </trkpt>
      <trkpt lat="43.86172" lon="7.25749">
        <ele>818.6</ele>
        <time>2019-03-10T14:34:23Z</time>
      </trkpt>
      <trkpt lat="43.86175" lon="7.25752">
        <ele>818.7</ele>
        <time>2019-03-10T14:34:27Z</time>
      </trkpt>
      <trkpt lat="43.86177" lon="7.25757">
        <ele>818.9</ele>
        <time>2019-03-10T14:34:31Z</time>
      </trkpt>
      <trkpt lat="43.8618" lon="7.25762">
        <ele>819.1</ele>
        <time>2019-03-10T14:34:35Z</time>
      </trkpt>
      <trkpt lat="43.86182" lon="7.25766">
        <ele>819.4</ele>
        <time>2019-03-10T14:34:39Z</time>
      </trkpt>
      <trkpt lat="43.86185" lon="7.2577">
        <ele>819.6</ele>
        <time>2019-03-10T14:34:43Z</time>
      </trkpt>
      <trkpt lat="43.86188" lon="7.25773">
        <ele>819.9</ele>
        <time>2019-03-10T14:34:47Z</time>
      </trkpt>
      <trkpt lat="43.86191" lon="7.25777">
        <ele>820.2</ele>
        <time>2019-03-10T14:34:51Z</time>
      </trkpt>
      <trkpt lat="43.86194" lon="7.2578">
        <ele>820.7</ele>
        <time>2019-03-10T14:34:55Z</time>
      </trkpt>
      <trkpt lat="43.86197" lon="7.25786">
        <ele>821.4</ele>
        <time>2019-03-10T14:34:59Z</time>
      </trkpt>
      <trkpt lat="43.862" lon="7.2579">
        <ele>822</ele>
        <time>2019-03-10T14:35:03Z</time>
      </trkpt>
      <trkpt lat="43.86203" lon="7.25794">
        <ele>822.7</ele>
        <time>2019-03-10T14:35:07Z</time>
      </trkpt>
      <trkpt lat="43.86207" lon="7.25799">
        <ele>823.5</ele>
        <time>2019-03-10T14:35:11Z</time>
      </trkpt>
      <trkpt lat="43.8621" lon="7.25802">
        <ele>824.1</ele>
        <time>2019-03-10T14:35:15Z</time>
      </trkpt>
      <trkpt lat="43.86212" lon="7.25806">
        <ele>824.8</ele>
        <time>2019-03-10T14:35:19Z</time>
      </trkpt>
      <trkpt lat="43.86215" lon="7.25809">
        <ele>825.2</ele>
        <time>2019-03-10T14:35:23Z</time>
      </trkpt>
      <trkpt lat="43.86219" lon="7.25814">
        <ele>825.7</ele>
        <time>2019-03-10T14:35:27Z</time>
      </trkpt>
      <trkpt lat="43.86222" lon="7.25819">
        <ele>826.2</ele>
        <time>2019-03-10T14:35:31Z</time>
      </trkpt>
      <trkpt lat="43.86225" lon="7.25824">
        <ele>827.3</ele>
        <time>2019-03-10T14:35:35Z</time>
      </trkpt>
      <trkpt lat="43.86228" lon="7.25829">
        <ele>828.8</ele>
        <time>2019-03-10T14:35:39Z</time>
      </trkpt>
      <trkpt lat="43.8623" lon="7.25831">
        <ele>829.7</ele>
        <time>2019-03-10T14:35:43Z</time>
      </trkpt>
      <trkpt lat="43.86232" lon="7.25836">
        <ele>831</ele>
        <time>2019-03-10T14:35:47Z</time>
      </trkpt>
      <trkpt lat="43.86233" lon="7.25839">
        <ele>831.8</ele>
        <time>2019-03-10T14:35:51Z</time>
      </trkpt>
      <trkpt lat="43.86235" lon="7.25843">
        <ele>832.9</ele>
        <time>2019-03-10T14:35:55Z</time>
      </trkpt>
      <trkpt lat="43.86238" lon="7.25848">
        <ele>834.6</ele>
        <time>2019-03-10T14:35:59Z</time>
      </trkpt>
      <trkpt lat="43.86241" lon="7.25853">
        <ele>836.1</ele>
        <time>2019-03-10T14:36:03Z</time>
      </trkpt>
      <trkpt lat="43.86243" lon="7.25858">
        <ele>837.5</ele>
        <time>2019-03-10T14:36:07Z</time>
      </trkpt>
      <trkpt lat="43.86245" lon="7.25864">
        <ele>839.1</ele>
        <time>2019-03-10T14:36:11Z</time>
      </trkpt>
      <trkpt lat="43.86247" lon="7.25869">
        <ele>840.7</ele>
        <time>2019-03-10T14:36:15Z</time>
      </trkpt>
      <trkpt lat="43.86247" lon="7.25869">
        <ele>840.7</ele>
        <time>2019-03-10T14:36:19Z</time>
      </trkpt>
      <trkpt lat="43.86247" lon="7.25869">
        <ele>840.7</ele>
        <time>2019-03-10T14:36:23Z</time>
      </trkpt>
      <trkpt lat="43.86248" lon="7.25871">
        <ele>841.1</ele>
        <time>2019-03-10T14:36:27Z</time>
      </trkpt>
      <trkpt lat="43.86248" lon="7.25875">
        <ele>842.1</ele>
        <time>2019-03-10T14:36:31Z</time>
      </trkpt>
      <trkpt lat="43.8625" lon="7.25884">
        <ele>844.5</ele>
        <time>2019-03-10T14:36:35Z</time>
      </trkpt>
      <trkpt lat="43.86256" lon="7.25887">
        <ele>845.4</ele>
        <time>2019-03-10T14:36:39Z</time>
      </trkpt>
      <trkpt lat="43.86259" lon="7.25893">
        <ele>846.1</ele>
        <time>2019-03-10T14:36:43Z</time>
      </trkpt>
      <trkpt lat="43.86263" lon="7.25899">
        <ele>846.9</ele>
        <time>2019-03-10T14:36:47Z</time>
      </trkpt>
      <trkpt lat="43.86268" lon="7.25906">
        <ele>847.6</ele>
        <time>2019-03-10T14:36:51Z</time>
      </trkpt>
      <trkpt lat="43.86272" lon="7.2591">
        <ele>848.1</ele>
        <time>2019-03-10T14:36:55Z</time>
      </trkpt>
      <trkpt lat="43.86278" lon="7.25917">
        <ele>848.6</ele>
        <time>2019-03-10T14:36:59Z</time>
      </trkpt>
      <trkpt lat="43.86284" lon="7.25921">
        <ele>849.1</ele>
        <time>2019-03-10T14:37:03Z</time>
      </trkpt>
      <trkpt lat="43.86291" lon="7.25928">
        <ele>849.8</ele>
        <time>2019-03-10T14:37:07Z</time>
      </trkpt>
      <trkpt lat="43.86297" lon="7.25937">
        <ele>850.4</ele>
        <time>2019-03-10T14:37:11Z</time>
      </trkpt>
      <trkpt lat="43.863" lon="7.25943">
        <ele>850.7</ele>
        <time>2019-03-10T14:37:15Z</time>
      </trkpt>
      <trkpt lat="43.86309" lon="7.2595">
        <ele>851.3</ele>
        <time>2019-03-10T14:37:19Z</time>
      </trkpt>
      <trkpt lat="43.86314" lon="7.25959">
        <ele>851.6</ele>
        <time>2019-03-10T14:37:23Z</time>
      </trkpt>
      <trkpt lat="43.86322" lon="7.25958">
        <ele>851.8</ele>
        <time>2019-03-10T14:37:27Z</time>
      </trkpt>
      <trkpt lat="43.86331" lon="7.2596">
        <ele>852</ele>
        <time>2019-03-10T14:37:31Z</time>
      </trkpt>
      <trkpt lat="43.86337" lon="7.25964">
        <ele>852.1</ele>
        <time>2019-03-10T14:37:35Z</time>
      </trkpt>
      <trkpt lat="43.86344" lon="7.25969">
        <ele>852.2</ele>
        <time>2019-03-10T14:37:39Z</time>
      </trkpt>
      <trkpt lat="43.86353" lon="7.25972">
        <ele>852.5</ele>
        <time>2019-03-10T14:37:43Z</time>
      </trkpt>
      <trkpt lat="43.86359" lon="7.25974">
        <ele>852.6</ele>
        <time>2019-03-10T14:37:47Z</time>
      </trkpt>
      <trkpt lat="43.86366" lon="7.25978">
        <ele>852.9</ele>
        <time>2019-03-10T14:37:51Z</time>
      </trkpt>
      <trkpt lat="43.86371" lon="7.25982">
        <ele>853.1</ele>
        <time>2019-03-10T14:37:55Z</time>
      </trkpt>
      <trkpt lat="43.8638" lon="7.25987">
        <ele>853.3</ele>
        <time>2019-03-10T14:37:59Z</time>
      </trkpt>
      <trkpt lat="43.86385" lon="7.25991">
        <ele>853.4</ele>
        <time>2019-03-10T14:38:03Z</time>
      </trkpt>
      <trkpt lat="43.86393" lon="7.25998">
        <ele>853.6</ele>
        <time>2019-03-10T14:38:07Z</time>
      </trkpt>
      <trkpt lat="43.864" lon="7.26002">
        <ele>853.8</ele>
        <time>2019-03-10T14:38:11Z</time>
      </trkpt>
      <trkpt lat="43.86408" lon="7.26008">
        <ele>853.9</ele>
        <time>2019-03-10T14:38:15Z</time>
      </trkpt>
      <trkpt lat="43.86415" lon="7.26015">
        <ele>854</ele>
        <time>2019-03-10T14:38:19Z</time>
      </trkpt>
      <trkpt lat="43.86424" lon="7.26023">
        <ele>854.2</ele>
        <time>2019-03-10T14:38:23Z</time>
      </trkpt>
      <trkpt lat="43.86434" lon="7.26033">
        <ele>854.3</ele>
        <time>2019-03-10T14:38:27Z</time>
      </trkpt>
      <trkpt lat="43.86442" lon="7.26041">
        <ele>854.4</ele>
        <time>2019-03-10T14:38:31Z</time>
      </trkpt>
      <trkpt lat="43.86448" lon="7.2605">
        <ele>854.4</ele>
        <time>2019-03-10T14:38:35Z</time>
      </trkpt>
      <trkpt lat="43.86453" lon="7.26056">
        <ele>854.4</ele>
        <time>2019-03-10T14:38:39Z</time>
      </trkpt>
      <trkpt lat="43.86459" lon="7.26051">
        <ele>854.4</ele>
        <time>2019-03-10T14:38:43Z</time>
      </trkpt>
      <trkpt lat="43.86471" lon="7.26047">
        <ele>854.3</ele>
        <time>2019-03-10T14:38:47Z</time>
      </trkpt>
      <trkpt lat="43.86478" lon="7.2605">
        <ele>854.3</ele>
        <time>2019-03-10T14:38:51Z</time>
      </trkpt>
      <trkpt lat="43.86487" lon="7.26055">
        <ele>854.2</ele>
        <time>2019-03-10T14:38:55Z</time>
      </trkpt>
      <trkpt lat="43.86498" lon="7.26062">
        <ele>854.1</ele>
        <time>2019-03-10T14:38:59Z</time>
      </trkpt>
      <trkpt lat="43.86507" lon="7.26063">
        <ele>854.1</ele>
        <time>2019-03-10T14:39:03Z</time>
      </trkpt>
      <trkpt lat="43.86516" lon="7.26068">
        <ele>853.9</ele>
        <time>2019-03-10T14:39:07Z</time>
      </trkpt>
      <trkpt lat="43.86524" lon="7.26075">
        <ele>853.8</ele>
        <time>2019-03-10T14:39:11Z</time>
      </trkpt>
      <trkpt lat="43.86537" lon="7.2608">
        <ele>853.6</ele>
        <time>2019-03-10T14:39:15Z</time>
      </trkpt>
      <trkpt lat="43.8655" lon="7.26079">
        <ele>853.3</ele>
        <time>2019-03-10T14:39:19Z</time>
      </trkpt>
      <trkpt lat="43.8656" lon="7.26077">
        <ele>853</ele>
        <time>2019-03-10T14:39:23Z</time>
      </trkpt>
      <trkpt lat="43.86567" lon="7.26071">
        <ele>850.2</ele>
        <time>2019-03-10T14:39:27Z</time>
      </trkpt>
      <trkpt lat="43.86566" lon="7.26067">
        <ele>849.5</ele>
        <time>2019-03-10T14:39:31Z</time>
      </trkpt>
      <trkpt lat="43.86565" lon="7.26067">
        <ele>849.5</ele>
        <time>2019-03-10T14:39:35Z</time>
      </trkpt>
      <trkpt lat="43.8656" lon="7.26066">
        <ele>848.4</ele>
        <time>2019-03-10T14:39:39Z</time>
      </trkpt>
      <trkpt lat="43.86557" lon="7.26064">
        <ele>847.5</ele>
        <time>2019-03-10T14:39:43Z</time>
      </trkpt>
      <trkpt lat="43.86557" lon="7.26064">
        <ele>847.5</ele>
        <time>2019-03-10T14:39:47Z</time>
      </trkpt>
      <trkpt lat="43.86555" lon="7.26062">
        <ele>846.9</ele>
        <time>2019-03-10T14:39:51Z</time>
      </trkpt>
      <trkpt lat="43.86547" lon="7.26054">
        <ele>843.5</ele>
        <time>2019-03-10T14:39:55Z</time>
      </trkpt>
      <trkpt lat="43.86537" lon="7.26044">
        <ele>839.4</ele>
        <time>2019-03-10T14:39:59Z</time>
      </trkpt>
      <trkpt lat="43.8653" lon="7.26033">
        <ele>835.4</ele>
        <time>2019-03-10T14:40:03Z</time>
      </trkpt>
      <trkpt lat="43.8653" lon="7.26033">
        <ele>835.4</ele>
        <time>2019-03-10T14:40:07Z</time>
      </trkpt>
      <trkpt lat="43.8653" lon="7.26033">
        <ele>835.4</ele>
        <time>2019-03-10T14:40:11Z</time>
      </trkpt>
      <trkpt lat="43.8652" lon="7.26022">
        <ele>831.4</ele>
        <time>2019-03-10T14:40:15Z</time>
      </trkpt>
      <trkpt lat="43.86516" lon="7.26017">
        <ele>830.2</ele>
        <time>2019-03-10T14:40:19Z</time>
      </trkpt>
      <trkpt lat="43.86516" lon="7.26017">
        <ele>830.2</ele>
        <time>2019-03-10T14:40:23Z</time>
      </trkpt>
      <trkpt lat="43.86516" lon="7.26017">
        <ele>830.2</ele>
        <time>2019-03-10T14:40:27Z</time>
      </trkpt>
      <trkpt lat="43.86517" lon="7.26017">
        <ele>829.9</ele>
        <time>2019-03-10T14:40:31Z</time>
      </trkpt>
      <trkpt lat="43.86517" lon="7.26017">
        <ele>829.9</ele>
        <time>2019-03-10T14:40:35Z</time>
      </trkpt>
      <trkpt lat="43.86517" lon="7.26017">
        <ele>829.9</ele>
        <time>2019-03-10T14:40:39Z</time>
      </trkpt>
      <trkpt lat="43.86516" lon="7.26017">
        <ele>829.6</ele>
        <time>2019-03-10T14:40:43Z</time>
      </trkpt>
      <trkpt lat="43.86511" lon="7.26012">
        <ele>828</ele>
        <time>2019-03-10T14:40:47Z</time>
      </trkpt>
      <trkpt lat="43.86502" lon="7.26004">
        <ele>825.3</ele>
        <time>2019-03-10T14:40:51Z</time>
      </trkpt>
      <trkpt lat="43.86492" lon="7.25994">
        <ele>822.3</ele>
        <time>2019-03-10T14:40:55Z</time>
      </trkpt>
      <trkpt lat="43.86484" lon="7.25984">
        <ele>820.2</ele>
        <time>2019-03-10T14:40:59Z</time>
      </trkpt>
      <trkpt lat="43.86479" lon="7.25977">
        <ele>819</ele>
        <time>2019-03-10T14:41:03Z</time>
      </trkpt>
      <trkpt lat="43.86476" lon="7.25973">
        <ele>818.3</ele>
        <time>2019-03-10T14:41:07Z</time>
      </trkpt>
      <trkpt lat="43.86472" lon="7.25967">
        <ele>817.5</ele>
        <time>2019-03-10T14:41:11Z</time>
      </trkpt>
      <trkpt lat="43.86464" lon="7.25959">
        <ele>815.8</ele>
        <time>2019-03-10T14:41:15Z</time>
      </trkpt>
      <trkpt lat="43.86458" lon="7.25946">
        <ele>813.3</ele>
        <time>2019-03-10T14:41:19Z</time>
      </trkpt>
      <trkpt lat="43.86459" lon="7.25938">
        <ele>812</ele>
        <time>2019-03-10T14:41:23Z</time>
      </trkpt>
      <trkpt lat="43.86462" lon="7.25932">
        <ele>810.8</ele>
        <time>2019-03-10T14:41:27Z</time>
      </trkpt>
      <trkpt lat="43.86462" lon="7.25922">
        <ele>809.5</ele>
        <time>2019-03-10T14:41:31Z</time>
      </trkpt>
      <trkpt lat="43.86458" lon="7.25907">
        <ele>806.3</ele>
        <time>2019-03-10T14:41:35Z</time>
      </trkpt>
      <trkpt lat="43.86453" lon="7.25889">
        <ele>802.9</ele>
        <time>2019-03-10T14:41:39Z</time>
      </trkpt>
      <trkpt lat="43.86452" lon="7.25873">
        <ele>800.9</ele>
        <time>2019-03-10T14:41:43Z</time>
      </trkpt>
      <trkpt lat="43.8645" lon="7.25856">
        <ele>799.7</ele>
        <time>2019-03-10T14:41:47Z</time>
      </trkpt>
      <trkpt lat="43.86447" lon="7.25847">
        <ele>799.7</ele>
        <time>2019-03-10T14:41:51Z</time>
      </trkpt>
      <trkpt lat="43.86445" lon="7.25833">
        <ele>799.6</ele>
        <time>2019-03-10T14:41:55Z</time>
      </trkpt>
      <trkpt lat="43.86444" lon="7.25817">
        <ele>799.4</ele>
        <time>2019-03-10T14:41:59Z</time>
      </trkpt>
      <trkpt lat="43.86441" lon="7.258">
        <ele>799.3</ele>
        <time>2019-03-10T14:42:03Z</time>
      </trkpt>
      <trkpt lat="43.86438" lon="7.25781">
        <ele>799</ele>
        <time>2019-03-10T14:42:07Z</time>
      </trkpt>
      <trkpt lat="43.86433" lon="7.25764">
        <ele>798.6</ele>
        <time>2019-03-10T14:42:11Z</time>
      </trkpt>
      <trkpt lat="43.86428" lon="7.25744">
        <ele>798.4</ele>
        <time>2019-03-10T14:42:15Z</time>
      </trkpt>
      <trkpt lat="43.86424" lon="7.2573">
        <ele>798.3</ele>
        <time>2019-03-10T14:42:19Z</time>
      </trkpt>
      <trkpt lat="43.86418" lon="7.25714">
        <ele>798.2</ele>
        <time>2019-03-10T14:42:23Z</time>
      </trkpt>
      <trkpt lat="43.86411" lon="7.25702">
        <ele>798</ele>
        <time>2019-03-10T14:42:27Z</time>
      </trkpt>
      <trkpt lat="43.86404" lon="7.25687">
        <ele>797.8</ele>
        <time>2019-03-10T14:42:31Z</time>
      </trkpt>
      <trkpt lat="43.86398" lon="7.25674">
        <ele>797.5</ele>
        <time>2019-03-10T14:42:35Z</time>
      </trkpt>
      <trkpt lat="43.86398" lon="7.25674">
        <ele>797.5</ele>
        <time>2019-03-10T14:42:39Z</time>
      </trkpt>
      <trkpt lat="43.86398" lon="7.25674">
        <ele>797.5</ele>
        <time>2019-03-10T14:42:43Z</time>
      </trkpt>
      <trkpt lat="43.86399" lon="7.25672">
        <ele>797.5</ele>
        <time>2019-03-10T14:42:47Z</time>
      </trkpt>
      <trkpt lat="43.86394" lon="7.25663">
        <ele>797.1</ele>
        <time>2019-03-10T14:42:51Z</time>
      </trkpt>
      <trkpt lat="43.86389" lon="7.25646">
        <ele>796.5</ele>
        <time>2019-03-10T14:42:55Z</time>
      </trkpt>
      <trkpt lat="43.86381" lon="7.25623">
        <ele>795.6</ele>
        <time>2019-03-10T14:42:59Z</time>
      </trkpt>
      <trkpt lat="43.86371" lon="7.25604">
        <ele>794.6</ele>
        <time>2019-03-10T14:43:03Z</time>
      </trkpt>
      <trkpt lat="43.86361" lon="7.25581">
        <ele>793.4</ele>
        <time>2019-03-10T14:43:07Z</time>
      </trkpt>
      <trkpt lat="43.8636" lon="7.25563">
        <ele>792.7</ele>
        <time>2019-03-10T14:43:11Z</time>
      </trkpt>
      <trkpt lat="43.8636" lon="7.25546">
        <ele>792.2</ele>
        <time>2019-03-10T14:43:15Z</time>
      </trkpt>
      <trkpt lat="43.86353" lon="7.25522">
        <ele>791.7</ele>
        <time>2019-03-10T14:43:19Z</time>
      </trkpt>
      <trkpt lat="43.86352" lon="7.255">
        <ele>791.5</ele>
        <time>2019-03-10T14:43:23Z</time>
      </trkpt>
      <trkpt lat="43.8635" lon="7.2548">
        <ele>791.6</ele>
        <time>2019-03-10T14:43:27Z</time>
      </trkpt>
      <trkpt lat="43.86347" lon="7.25461">
        <ele>791.3</ele>
        <time>2019-03-10T14:43:31Z</time>
      </trkpt>
      <trkpt lat="43.86342" lon="7.25441">
        <ele>790.6</ele>
        <time>2019-03-10T14:43:35Z</time>
      </trkpt>
      <trkpt lat="43.86338" lon="7.25424">
        <ele>789.9</ele>
        <time>2019-03-10T14:43:39Z</time>
      </trkpt>
      <trkpt lat="43.86336" lon="7.25415">
        <ele>789.7</ele>
        <time>2019-03-10T14:43:43Z</time>
      </trkpt>
      <trkpt lat="43.86335" lon="7.25399">
        <ele>789.5</ele>
        <time>2019-03-10T14:43:47Z</time>
      </trkpt>
      <trkpt lat="43.86333" lon="7.25384">
        <ele>789.5</ele>
        <time>2019-03-10T14:43:51Z</time>
      </trkpt>
      <trkpt lat="43.86332" lon="7.25368">
        <ele>789.8</ele>
        <time>2019-03-10T14:43:55Z</time>
      </trkpt>
      <trkpt lat="43.86332" lon="7.2535">
        <ele>790</ele>
        <time>2019-03-10T14:43:59Z</time>
      </trkpt>
      <trkpt lat="43.86338" lon="7.25334">
        <ele>789.8</ele>
        <time>2019-03-10T14:44:03Z</time>
      </trkpt>
      <trkpt lat="43.8634" lon="7.25315">
        <ele>789.1</ele>
        <time>2019-03-10T14:44:07Z</time>
      </trkpt>
      <trkpt lat="43.86339" lon="7.25296">
        <ele>788.2</ele>
        <time>2019-03-10T14:44:11Z</time>
      </trkpt>
      <trkpt lat="43.86338" lon="7.25271">
        <ele>787.1</ele>
        <time>2019-03-10T14:44:15Z</time>
      </trkpt>
      <trkpt lat="43.86335" lon="7.25241">
        <ele>785.6</ele>
        <time>2019-03-10T14:44:19Z</time>
      </trkpt>
      <trkpt lat="43.86334" lon="7.25225">
        <ele>784.9</ele>
        <time>2019-03-10T14:44:23Z</time>
      </trkpt>
      <trkpt lat="43.86331" lon="7.25212">
        <ele>784.5</ele>
        <time>2019-03-10T14:44:27Z</time>
      </trkpt>
      <trkpt lat="43.86328" lon="7.25197">
        <ele>784.1</ele>
        <time>2019-03-10T14:44:31Z</time>
      </trkpt>
      <trkpt lat="43.86326" lon="7.25184">
        <ele>783.5</ele>
        <time>2019-03-10T14:44:35Z</time>
      </trkpt>
      <trkpt lat="43.86323" lon="7.25169">
        <ele>782.9</ele>
        <time>2019-03-10T14:44:39Z</time>
      </trkpt>
      <trkpt lat="43.86321" lon="7.25157">
        <ele>782.3</ele>
        <time>2019-03-10T14:44:43Z</time>
      </trkpt>
      <trkpt lat="43.86317" lon="7.25144">
        <ele>781.8</ele>
        <time>2019-03-10T14:44:47Z</time>
      </trkpt>
      <trkpt lat="43.86315" lon="7.25139">
        <ele>781.7</ele>
        <time>2019-03-10T14:44:51Z</time>
      </trkpt>
      <trkpt lat="43.86315" lon="7.25131">
        <ele>781.6</ele>
        <time>2019-03-10T14:44:55Z</time>
      </trkpt>
      <trkpt lat="43.86312" lon="7.25121">
        <ele>781.4</ele>
        <time>2019-03-10T14:44:59Z</time>
      </trkpt>
      <trkpt lat="43.8631" lon="7.25109">
        <ele>781.1</ele>
        <time>2019-03-10T14:45:03Z</time>
      </trkpt>
      <trkpt lat="43.86306" lon="7.25096">
        <ele>780.6</ele>
        <time>2019-03-10T14:45:07Z</time>
      </trkpt>
      <trkpt lat="43.86302" lon="7.25082">
        <ele>780</ele>
        <time>2019-03-10T14:45:11Z</time>
      </trkpt>
      <trkpt lat="43.86299" lon="7.25071">
        <ele>779.4</ele>
        <time>2019-03-10T14:45:15Z</time>
      </trkpt>
      <trkpt lat="43.86296" lon="7.25059">
        <ele>778.9</ele>
        <time>2019-03-10T14:45:19Z</time>
      </trkpt>
      <trkpt lat="43.86293" lon="7.25048">
        <ele>778.6</ele>
        <time>2019-03-10T14:45:23Z</time>
      </trkpt>
      <trkpt lat="43.86291" lon="7.25039">
        <ele>778.3</ele>
        <time>2019-03-10T14:45:27Z</time>
      </trkpt>
      <trkpt lat="43.86291" lon="7.25039">
        <ele>778.3</ele>
        <time>2019-03-10T14:45:31Z</time>
      </trkpt>
      <trkpt lat="43.8629" lon="7.25036">
        <ele>778.2</ele>
        <time>2019-03-10T14:45:35Z</time>
      </trkpt>
      <trkpt lat="43.8629" lon="7.25036">
        <ele>778.2</ele>
        <time>2019-03-10T14:45:39Z</time>
      </trkpt>
      <trkpt lat="43.8629" lon="7.25036">
        <ele>778.2</ele>
        <time>2019-03-10T14:45:43Z</time>
      </trkpt>
      <trkpt lat="43.86288" lon="7.25029">
        <ele>775.5</ele>
        <time>2019-03-10T14:45:47Z</time>
      </trkpt>
      <trkpt lat="43.86286" lon="7.25026">
        <ele>774.3</ele>
        <time>2019-03-10T14:45:51Z</time>
      </trkpt>
      <trkpt lat="43.86284" lon="7.25019">
        <ele>772.6</ele>
        <time>2019-03-10T14:45:55Z</time>
      </trkpt>
      <trkpt lat="43.86282" lon="7.25014">
        <ele>771.3</ele>
        <time>2019-03-10T14:45:59Z</time>
      </trkpt>
      <trkpt lat="43.8628" lon="7.25011">
        <ele>770.5</ele>
        <time>2019-03-10T14:46:03Z</time>
      </trkpt>
      <trkpt lat="43.86279" lon="7.2501">
        <ele>770</ele>
        <time>2019-03-10T14:46:07Z</time>
      </trkpt>
      <trkpt lat="43.86275" lon="7.25003">
        <ele>768.2</ele>
        <time>2019-03-10T14:46:11Z</time>
      </trkpt>
      <trkpt lat="43.8627" lon="7.24995">
        <ele>765.6</ele>
        <time>2019-03-10T14:46:15Z</time>
      </trkpt>
      <trkpt lat="43.86267" lon="7.24985">
        <ele>763</ele>
        <time>2019-03-10T14:46:19Z</time>
      </trkpt>
      <trkpt lat="43.86266" lon="7.24976">
        <ele>761.5</ele>
        <time>2019-03-10T14:46:23Z</time>
      </trkpt>
      <trkpt lat="43.8626" lon="7.24971">
        <ele>760.1</ele>
        <time>2019-03-10T14:46:27Z</time>
      </trkpt>
      <trkpt lat="43.86256" lon="7.24962">
        <ele>758</ele>
        <time>2019-03-10T14:46:31Z</time>
      </trkpt>
      <trkpt lat="43.86253" lon="7.2495">
        <ele>755</ele>
        <time>2019-03-10T14:46:35Z</time>
      </trkpt>
      <trkpt lat="43.86249" lon="7.24939">
        <ele>752.7</ele>
        <time>2019-03-10T14:46:39Z</time>
      </trkpt>
      <trkpt lat="43.86245" lon="7.24929">
        <ele>750.3</ele>
        <time>2019-03-10T14:46:43Z</time>
      </trkpt>
      <trkpt lat="43.86242" lon="7.24919">
        <ele>748.1</ele>
        <time>2019-03-10T14:46:47Z</time>
      </trkpt>
      <trkpt lat="43.86238" lon="7.24906">
        <ele>745.5</ele>
        <time>2019-03-10T14:46:51Z</time>
      </trkpt>
      <trkpt lat="43.86235" lon="7.24897">
        <ele>743.4</ele>
        <time>2019-03-10T14:46:55Z</time>
      </trkpt>
      <trkpt lat="43.8623" lon="7.2489">
        <ele>740.6</ele>
        <time>2019-03-10T14:46:59Z</time>
      </trkpt>
      <trkpt lat="43.86223" lon="7.2488">
        <ele>738.4</ele>
        <time>2019-03-10T14:47:03Z</time>
      </trkpt>
      <trkpt lat="43.86215" lon="7.24871">
        <ele>736.3</ele>
        <time>2019-03-10T14:47:07Z</time>
      </trkpt>
      <trkpt lat="43.86206" lon="7.24859">
        <ele>731.6</ele>
        <time>2019-03-10T14:47:11Z</time>
      </trkpt>
      <trkpt lat="43.86204" lon="7.24844">
        <ele>726.5</ele>
        <time>2019-03-10T14:47:15Z</time>
      </trkpt>
      <trkpt lat="43.86204" lon="7.24844">
        <ele>726.5</ele>
        <time>2019-03-10T14:47:19Z</time>
      </trkpt>
      <trkpt lat="43.86204" lon="7.24844">
        <ele>726.5</ele>
        <time>2019-03-10T14:47:23Z</time>
      </trkpt>
      <trkpt lat="43.86204" lon="7.24844">
        <ele>726.5</ele>
        <time>2019-03-10T14:47:27Z</time>
      </trkpt>
      <trkpt lat="43.86204" lon="7.24844">
        <ele>726.5</ele>
        <time>2019-03-10T14:47:31Z</time>
      </trkpt>
      <trkpt lat="43.86204" lon="7.24844">
        <ele>726.5</ele>
        <time>2019-03-10T14:47:35Z</time>
      </trkpt>
      <trkpt lat="43.86204" lon="7.24844">
        <ele>726.5</ele>
        <time>2019-03-10T14:47:39Z</time>
      </trkpt>
      <trkpt lat="43.86204" lon="7.24844">
        <ele>726.5</ele>
        <time>2019-03-10T14:47:43Z</time>
      </trkpt>
      <trkpt lat="43.86204" lon="7.24844">
        <ele>726.5</ele>
        <time>2019-03-10T14:47:47Z</time>
      </trkpt>
      <trkpt lat="43.86204" lon="7.24844">
        <ele>726.5</ele>
        <time>2019-03-10T14:47:51Z</time>
      </trkpt>
      <trkpt lat="43.86204" lon="7.24844">
        <ele>726.5</ele>
        <time>2019-03-10T14:47:55Z</time>
      </trkpt>
      <trkpt lat="43.86204" lon="7.24844">
        <ele>726.5</ele>
        <time>2019-03-10T14:47:59Z</time>
      </trkpt>
      <trkpt lat="43.86204" lon="7.24844">
        <ele>726.5</ele>
        <time>2019-03-10T14:48:03Z</time>
      </trkpt>
      <trkpt lat="43.86202" lon="7.24839">
        <ele>725.2</ele>
        <time>2019-03-10T14:48:07Z</time>
      </trkpt>
      <trkpt lat="43.862" lon="7.24838">
        <ele>724.8</ele>
        <time>2019-03-10T14:48:11Z</time>
      </trkpt>
      <trkpt lat="43.86199" lon="7.24838">
        <ele>724.4</ele>
        <time>2019-03-10T14:48:15Z</time>
      </trkpt>
      <trkpt lat="43.86192" lon="7.24838">
        <ele>722.9</ele>
        <time>2019-03-10T14:48:19Z</time>
      </trkpt>
      <trkpt lat="43.86187" lon="7.2482">
        <ele>718.6</ele>
        <time>2019-03-10T14:48:23Z</time>
      </trkpt>
      <trkpt lat="43.86185" lon="7.24797">
        <ele>713.9</ele>
        <time>2019-03-10T14:48:27Z</time>
      </trkpt>
      <trkpt lat="43.86182" lon="7.24783">
        <ele>711.5</ele>
        <time>2019-03-10T14:48:31Z</time>
      </trkpt>
      <trkpt lat="43.86181" lon="7.24763">
        <ele>708.4</ele>
        <time>2019-03-10T14:48:35Z</time>
      </trkpt>
      <trkpt lat="43.86183" lon="7.24751">
        <ele>706.7</ele>
        <time>2019-03-10T14:48:39Z</time>
      </trkpt>
      <trkpt lat="43.86181" lon="7.24744">
        <ele>706</ele>
        <time>2019-03-10T14:48:43Z</time>
      </trkpt>
      <trkpt lat="43.8618" lon="7.24736">
        <ele>705.1</ele>
        <time>2019-03-10T14:48:47Z</time>
      </trkpt>
      <trkpt lat="43.86181" lon="7.24723">
        <ele>703.1</ele>
        <time>2019-03-10T14:48:51Z</time>
      </trkpt>
      <trkpt lat="43.86185" lon="7.24708">
        <ele>700.5</ele>
        <time>2019-03-10T14:48:55Z</time>
      </trkpt>
      <trkpt lat="43.86184" lon="7.24696">
        <ele>699.4</ele>
        <time>2019-03-10T14:48:59Z</time>
      </trkpt>
      <trkpt lat="43.86178" lon="7.24698">
        <ele>698.7</ele>
        <time>2019-03-10T14:49:03Z</time>
      </trkpt>
      <trkpt lat="43.86168" lon="7.24698">
        <ele>697.6</ele>
        <time>2019-03-10T14:49:07Z</time>
      </trkpt>
      <trkpt lat="43.86168" lon="7.24698">
        <ele>697.6</ele>
        <time>2019-03-10T14:49:11Z</time>
      </trkpt>
      <trkpt lat="43.86168" lon="7.24698">
        <ele>697.6</ele>
        <time>2019-03-10T14:49:15Z</time>
      </trkpt>
      <trkpt lat="43.86168" lon="7.24698">
        <ele>697.6</ele>
        <time>2019-03-10T14:49:19Z</time>
      </trkpt>
      <trkpt lat="43.86168" lon="7.24698">
        <ele>697.6</ele>
        <time>2019-03-10T14:49:23Z</time>
      </trkpt>
      <trkpt lat="43.86168" lon="7.24698">
        <ele>697.6</ele>
        <time>2019-03-10T14:49:27Z</time>
      </trkpt>
      <trkpt lat="43.86168" lon="7.24698">
        <ele>697.6</ele>
        <time>2019-03-10T14:49:31Z</time>
      </trkpt>
      <trkpt lat="43.86168" lon="7.24698">
        <ele>697.6</ele>
        <time>2019-03-10T14:49:35Z</time>
      </trkpt>
      <trkpt lat="43.86168" lon="7.24698">
        <ele>697.6</ele>
        <time>2019-03-10T14:49:39Z</time>
      </trkpt>
      <trkpt lat="43.86168" lon="7.24698">
        <ele>697.6</ele>
        <time>2019-03-10T14:49:43Z</time>
      </trkpt>
      <trkpt lat="43.86168" lon="7.24698">
        <ele>697.6</ele>
        <time>2019-03-10T14:49:47Z</time>
      </trkpt>
      <trkpt lat="43.86168" lon="7.24698">
        <ele>697.6</ele>
        <time>2019-03-10T14:49:51Z</time>
      </trkpt>
      <trkpt lat="43.86168" lon="7.24698">
        <ele>697.6</ele>
        <time>2019-03-10T14:49:55Z</time>
      </trkpt>
      <trkpt lat="43.86168" lon="7.24698">
        <ele>697.6</ele>
        <time>2019-03-10T14:49:59Z</time>
      </trkpt>
      <trkpt lat="43.86168" lon="7.24698">
        <ele>697.6</ele>
        <time>2019-03-10T14:50:03Z</time>
      </trkpt>
      <trkpt lat="43.86168" lon="7.24698">
        <ele>697.6</ele>
        <time>2019-03-10T14:50:07Z</time>
      </trkpt>
      <trkpt lat="43.86168" lon="7.24698">
        <ele>697.6</ele>
        <time>2019-03-10T14:50:11Z</time>
      </trkpt>
      <trkpt lat="43.86168" lon="7.24698">
        <ele>697.6</ele>
        <time>2019-03-10T14:50:15Z</time>
      </trkpt>
      <trkpt lat="43.86164" lon="7.24693">
        <ele>696.4</ele>
        <time>2019-03-10T14:50:19Z</time>
      </trkpt>
      <trkpt lat="43.86164" lon="7.24693">
        <ele>696.4</ele>
        <time>2019-03-10T14:50:23Z</time>
      </trkpt>
      <trkpt lat="43.86165" lon="7.24694">
        <ele>696.1</ele>
        <time>2019-03-10T14:50:27Z</time>
      </trkpt>
      <trkpt lat="43.86163" lon="7.247">
        <ele>695.2</ele>
        <time>2019-03-10T14:50:31Z</time>
      </trkpt>
      <trkpt lat="43.86161" lon="7.24709">
        <ele>695.7</ele>
        <time>2019-03-10T14:50:35Z</time>
      </trkpt>
      <trkpt lat="43.86158" lon="7.24719">
        <ele>696.2</ele>
        <time>2019-03-10T14:50:39Z</time>
      </trkpt>
      <trkpt lat="43.86156" lon="7.2473">
        <ele>696.8</ele>
        <time>2019-03-10T14:50:43Z</time>
      </trkpt>
      <trkpt lat="43.86152" lon="7.2474">
        <ele>697.6</ele>
        <time>2019-03-10T14:50:47Z</time>
      </trkpt>
      <trkpt lat="43.86148" lon="7.24752">
        <ele>698.5</ele>
        <time>2019-03-10T14:50:51Z</time>
      </trkpt>
      <trkpt lat="43.86143" lon="7.24763">
        <ele>699.4</ele>
        <time>2019-03-10T14:50:55Z</time>
      </trkpt>
      <trkpt lat="43.86139" lon="7.24772">
        <ele>700.1</ele>
        <time>2019-03-10T14:50:59Z</time>
      </trkpt>
      <trkpt lat="43.86134" lon="7.24783">
        <ele>700.8</ele>
        <time>2019-03-10T14:51:03Z</time>
      </trkpt>
      <trkpt lat="43.86131" lon="7.24793">
        <ele>701.7</ele>
        <time>2019-03-10T14:51:07Z</time>
      </trkpt>
      <trkpt lat="43.86128" lon="7.24804">
        <ele>702.6</ele>
        <time>2019-03-10T14:51:11Z</time>
      </trkpt>
      <trkpt lat="43.86126" lon="7.24815">
        <ele>703.4</ele>
        <time>2019-03-10T14:51:15Z</time>
      </trkpt>
      <trkpt lat="43.86122" lon="7.24825">
        <ele>704.4</ele>
        <time>2019-03-10T14:51:19Z</time>
      </trkpt>
      <trkpt lat="43.86118" lon="7.24835">
        <ele>706</ele>
        <time>2019-03-10T14:51:23Z</time>
      </trkpt>
      <trkpt lat="43.86115" lon="7.24844">
        <ele>706.5</ele>
        <time>2019-03-10T14:51:27Z</time>
      </trkpt>
      <trkpt lat="43.86109" lon="7.24854">
        <ele>707.1</ele>
        <time>2019-03-10T14:51:31Z</time>
      </trkpt>
      <trkpt lat="43.86106" lon="7.24869">
        <ele>707.6</ele>
        <time>2019-03-10T14:51:35Z</time>
      </trkpt>
      <trkpt lat="43.86106" lon="7.24883">
        <ele>708</ele>
        <time>2019-03-10T14:51:39Z</time>
      </trkpt>
      <trkpt lat="43.86107" lon="7.24902">
        <ele>708.1</ele>
        <time>2019-03-10T14:51:43Z</time>
      </trkpt>
      <trkpt lat="43.86112" lon="7.24928">
        <ele>707.7</ele>
        <time>2019-03-10T14:51:47Z</time>
      </trkpt>
      <trkpt lat="43.86123" lon="7.24959">
        <ele>707.3</ele>
        <time>2019-03-10T14:51:51Z</time>
      </trkpt>
      <trkpt lat="43.86129" lon="7.25001">
        <ele>707.2</ele>
        <time>2019-03-10T14:51:55Z</time>
      </trkpt>
      <trkpt lat="43.86143" lon="7.25049">
        <ele>706.8</ele>
        <time>2019-03-10T14:51:59Z</time>
      </trkpt>
      <trkpt lat="43.86159" lon="7.251">
        <ele>705.8</ele>
        <time>2019-03-10T14:52:03Z</time>
      </trkpt>
      <trkpt lat="43.86163" lon="7.25154">
        <ele>704</ele>
        <time>2019-03-10T14:52:07Z</time>
      </trkpt>
      <trkpt lat="43.8616" lon="7.25201">
        <ele>699.7</ele>
        <time>2019-03-10T14:52:11Z</time>
      </trkpt>
      <trkpt lat="43.86162" lon="7.25241">
        <ele>693.2</ele>
        <time>2019-03-10T14:52:15Z</time>
      </trkpt>
      <trkpt lat="43.86143" lon="7.25265">
        <ele>688.1</ele>
        <time>2019-03-10T14:52:19Z</time>
      </trkpt>
      <trkpt lat="43.86131" lon="7.25281">
        <ele>685.6</ele>
        <time>2019-03-10T14:52:23Z</time>
      </trkpt>
      <trkpt lat="43.86129" lon="7.25282">
        <ele>685.6</ele>
        <time>2019-03-10T14:52:27Z</time>
      </trkpt>
      <trkpt lat="43.86127" lon="7.25283">
        <ele>685.5</ele>
        <time>2019-03-10T14:52:31Z</time>
      </trkpt>
      <trkpt lat="43.86125" lon="7.25284">
        <ele>685.5</ele>
        <time>2019-03-10T14:52:35Z</time>
      </trkpt>
      <trkpt lat="43.86122" lon="7.25282">
        <ele>685.6</ele>
        <time>2019-03-10T14:52:39Z</time>
      </trkpt>
      <trkpt lat="43.86119" lon="7.25278">
        <ele>686</ele>
        <time>2019-03-10T14:52:43Z</time>
      </trkpt>
      <trkpt lat="43.86117" lon="7.25274">
        <ele>686.4</ele>
        <time>2019-03-10T14:52:47Z</time>
      </trkpt>
      <trkpt lat="43.86115" lon="7.25269">
        <ele>686.9</ele>
        <time>2019-03-10T14:52:51Z</time>
      </trkpt>
      <trkpt lat="43.86116" lon="7.25263">
        <ele>687.6</ele>
        <time>2019-03-10T14:52:55Z</time>
      </trkpt>
      <trkpt lat="43.86113" lon="7.25262">
        <ele>687.9</ele>
        <time>2019-03-10T14:52:59Z</time>
      </trkpt>
      <trkpt lat="43.86112" lon="7.25265">
        <ele>688.3</ele>
        <time>2019-03-10T14:53:03Z</time>
      </trkpt>
      <trkpt lat="43.8611" lon="7.25268">
        <ele>688.7</ele>
        <time>2019-03-10T14:53:07Z</time>
      </trkpt>
      <trkpt lat="43.86109" lon="7.25271">
        <ele>689</ele>
        <time>2019-03-10T14:53:11Z</time>
      </trkpt>
      <trkpt lat="43.86107" lon="7.2527">
        <ele>689.3</ele>
        <time>2019-03-10T14:53:15Z</time>
      </trkpt>
      <trkpt lat="43.86103" lon="7.25269">
        <ele>689.7</ele>
        <time>2019-03-10T14:53:19Z</time>
      </trkpt>
      <trkpt lat="43.86101" lon="7.25267">
        <ele>690.1</ele>
        <time>2019-03-10T14:53:23Z</time>
      </trkpt>
      <trkpt lat="43.86097" lon="7.25265">
        <ele>690.5</ele>
        <time>2019-03-10T14:53:27Z</time>
      </trkpt>
      <trkpt lat="43.86093" lon="7.25262">
        <ele>690.8</ele>
        <time>2019-03-10T14:53:31Z</time>
      </trkpt>
      <trkpt lat="43.86089" lon="7.25259">
        <ele>691.1</ele>
        <time>2019-03-10T14:53:35Z</time>
      </trkpt>
      <trkpt lat="43.86085" lon="7.25257">
        <ele>691.4</ele>
        <time>2019-03-10T14:53:39Z</time>
      </trkpt>
      <trkpt lat="43.86082" lon="7.25256">
        <ele>691.6</ele>
        <time>2019-03-10T14:53:43Z</time>
      </trkpt>
      <trkpt lat="43.86078" lon="7.25255">
        <ele>691.7</ele>
        <time>2019-03-10T14:53:47Z</time>
      </trkpt>
      <trkpt lat="43.86074" lon="7.25255">
        <ele>691.9</ele>
        <time>2019-03-10T14:53:51Z</time>
      </trkpt>
      <trkpt lat="43.86071" lon="7.25256">
        <ele>692</ele>
        <time>2019-03-10T14:53:55Z</time>
      </trkpt>
      <trkpt lat="43.86067" lon="7.25256">
        <ele>692.1</ele>
        <time>2019-03-10T14:53:59Z</time>
      </trkpt>
      <trkpt lat="43.86067" lon="7.25256">
        <ele>692.1</ele>
        <time>2019-03-10T14:54:03Z</time>
      </trkpt>
      <trkpt lat="43.86065" lon="7.25256">
        <ele>692.2</ele>
        <time>2019-03-10T14:54:07Z</time>
      </trkpt>
      <trkpt lat="43.86059" lon="7.25256">
        <ele>692.3</ele>
        <time>2019-03-10T14:54:11Z</time>
      </trkpt>
      <trkpt lat="43.86048" lon="7.25258">
        <ele>691.9</ele>
        <time>2019-03-10T14:54:15Z</time>
      </trkpt>
      <trkpt lat="43.86034" lon="7.25267">
        <ele>690.6</ele>
        <time>2019-03-10T14:54:19Z</time>
      </trkpt>
      <trkpt lat="43.8602" lon="7.25269">
        <ele>689.6</ele>
        <time>2019-03-10T14:54:23Z</time>
      </trkpt>
      <trkpt lat="43.86009" lon="7.25277">
        <ele>688.9</ele>
        <time>2019-03-10T14:54:27Z</time>
      </trkpt>
      <trkpt lat="43.86007" lon="7.25271">
        <ele>688.8</ele>
        <time>2019-03-10T14:54:31Z</time>
      </trkpt>
      <trkpt lat="43.86004" lon="7.25262">
        <ele>689</ele>
        <time>2019-03-10T14:54:35Z</time>
      </trkpt>
      <trkpt lat="43.86003" lon="7.25255">
        <ele>689.5</ele>
        <time>2019-03-10T14:54:39Z</time>
      </trkpt>
      <trkpt lat="43.86001" lon="7.25243">
        <ele>690.3</ele>
        <time>2019-03-10T14:54:43Z</time>
      </trkpt>
      <trkpt lat="43.86005" lon="7.25233">
        <ele>691.2</ele>
        <time>2019-03-10T14:54:47Z</time>
      </trkpt>
      <trkpt lat="43.86009" lon="7.25224">
        <ele>691.8</ele>
        <time>2019-03-10T14:54:51Z</time>
      </trkpt>
      <trkpt lat="43.86013" lon="7.25218">
        <ele>692.1</ele>
        <time>2019-03-10T14:54:55Z</time>
      </trkpt>
      <trkpt lat="43.86018" lon="7.2521">
        <ele>692.3</ele>
        <time>2019-03-10T14:54:59Z</time>
      </trkpt>
      <trkpt lat="43.86019" lon="7.25202">
        <ele>692.4</ele>
        <time>2019-03-10T14:55:03Z</time>
      </trkpt>
      <trkpt lat="43.86015" lon="7.25195">
        <ele>692.3</ele>
        <time>2019-03-10T14:55:07Z</time>
      </trkpt>
      <trkpt lat="43.8601" lon="7.25187">
        <ele>692.1</ele>
        <time>2019-03-10T14:55:11Z</time>
      </trkpt>
      <trkpt lat="43.86003" lon="7.25175">
        <ele>691.6</ele>
        <time>2019-03-10T14:55:15Z</time>
      </trkpt>
      <trkpt lat="43.85991" lon="7.2516">
        <ele>690.9</ele>
        <time>2019-03-10T14:55:19Z</time>
      </trkpt>
      <trkpt lat="43.85974" lon="7.25148">
        <ele>689.3</ele>
        <time>2019-03-10T14:55:23Z</time>
      </trkpt>
      <trkpt lat="43.85957" lon="7.25141">
        <ele>687.4</ele>
        <time>2019-03-10T14:55:27Z</time>
      </trkpt>
      <trkpt lat="43.8594" lon="7.25143">
        <ele>684.5</ele>
        <time>2019-03-10T14:55:31Z</time>
      </trkpt>
      <trkpt lat="43.85923" lon="7.25129">
        <ele>681</ele>
        <time>2019-03-10T14:55:35Z</time>
      </trkpt>
      <trkpt lat="43.85904" lon="7.25116">
        <ele>677.3</ele>
        <time>2019-03-10T14:55:39Z</time>
      </trkpt>
      <trkpt lat="43.85895" lon="7.25111">
        <ele>675.3</ele>
        <time>2019-03-10T14:55:43Z</time>
      </trkpt>
      <trkpt lat="43.85885" lon="7.25098">
        <ele>673</ele>
        <time>2019-03-10T14:55:47Z</time>
      </trkpt>
      <trkpt lat="43.85865" lon="7.25077">
        <ele>669</ele>
        <time>2019-03-10T14:55:51Z</time>
      </trkpt>
      <trkpt lat="43.85847" lon="7.25059">
        <ele>666.2</ele>
        <time>2019-03-10T14:55:55Z</time>
      </trkpt>
      <trkpt lat="43.85829" lon="7.25046">
        <ele>664</ele>
        <time>2019-03-10T14:55:59Z</time>
      </trkpt>
      <trkpt lat="43.85818" lon="7.25036">
        <ele>662.9</ele>
        <time>2019-03-10T14:56:03Z</time>
      </trkpt>
      <trkpt lat="43.85805" lon="7.25031">
        <ele>662.3</ele>
        <time>2019-03-10T14:56:07Z</time>
      </trkpt>
      <trkpt lat="43.85792" lon="7.25026">
        <ele>661.8</ele>
        <time>2019-03-10T14:56:11Z</time>
      </trkpt>
      <trkpt lat="43.85781" lon="7.25024">
        <ele>661.4</ele>
        <time>2019-03-10T14:56:15Z</time>
      </trkpt>
      <trkpt lat="43.85769" lon="7.2502">
        <ele>660.9</ele>
        <time>2019-03-10T14:56:19Z</time>
      </trkpt>
      <trkpt lat="43.85756" lon="7.25019">
        <ele>660.3</ele>
        <time>2019-03-10T14:56:23Z</time>
      </trkpt>
      <trkpt lat="43.85742" lon="7.25018">
        <ele>659.7</ele>
        <time>2019-03-10T14:56:27Z</time>
      </trkpt>
      <trkpt lat="43.85728" lon="7.25015">
        <ele>659</ele>
        <time>2019-03-10T14:56:31Z</time>
      </trkpt>
      <trkpt lat="43.85713" lon="7.25012">
        <ele>658.5</ele>
        <time>2019-03-10T14:56:35Z</time>
      </trkpt>
      <trkpt lat="43.85701" lon="7.25015">
        <ele>658.3</ele>
        <time>2019-03-10T14:56:39Z</time>
      </trkpt>
      <trkpt lat="43.85691" lon="7.25015">
        <ele>658.2</ele>
        <time>2019-03-10T14:56:43Z</time>
      </trkpt>
      <trkpt lat="43.85678" lon="7.25012">
        <ele>658.1</ele>
        <time>2019-03-10T14:56:47Z</time>
      </trkpt>
      <trkpt lat="43.85665" lon="7.25009">
        <ele>658.1</ele>
        <time>2019-03-10T14:56:51Z</time>
      </trkpt>
      <trkpt lat="43.85653" lon="7.2501">
        <ele>658</ele>
        <time>2019-03-10T14:56:55Z</time>
      </trkpt>
      <trkpt lat="43.85639" lon="7.25016">
        <ele>658</ele>
        <time>2019-03-10T14:56:59Z</time>
      </trkpt>
      <trkpt lat="43.8563" lon="7.25006">
        <ele>658.1</ele>
        <time>2019-03-10T14:57:03Z</time>
      </trkpt>
      <trkpt lat="43.85619" lon="7.24998">
        <ele>658.5</ele>
        <time>2019-03-10T14:57:07Z</time>
      </trkpt>
      <trkpt lat="43.8561" lon="7.24996">
        <ele>659.1</ele>
        <time>2019-03-10T14:57:11Z</time>
      </trkpt>
      <trkpt lat="43.85603" lon="7.24998">
        <ele>659.7</ele>
        <time>2019-03-10T14:57:15Z</time>
      </trkpt>
      <trkpt lat="43.85595" lon="7.24995">
        <ele>660.4</ele>
        <time>2019-03-10T14:57:19Z</time>
      </trkpt>
      <trkpt lat="43.85585" lon="7.24993">
        <ele>661.1</ele>
        <time>2019-03-10T14:57:23Z</time>
      </trkpt>
      <trkpt lat="43.85578" lon="7.2499">
        <ele>661.6</ele>
        <time>2019-03-10T14:57:27Z</time>
      </trkpt>
      <trkpt lat="43.8557" lon="7.24989">
        <ele>662.1</ele>
        <time>2019-03-10T14:57:31Z</time>
      </trkpt>
      <trkpt lat="43.85563" lon="7.2499">
        <ele>662.4</ele>
        <time>2019-03-10T14:57:35Z</time>
      </trkpt>
      <trkpt lat="43.85556" lon="7.24989">
        <ele>662.5</ele>
        <time>2019-03-10T14:57:39Z</time>
      </trkpt>
      <trkpt lat="43.85548" lon="7.24988">
        <ele>662.5</ele>
        <time>2019-03-10T14:57:43Z</time>
      </trkpt>
      <trkpt lat="43.85535" lon="7.24979">
        <ele>662</ele>
        <time>2019-03-10T14:57:47Z</time>
      </trkpt>
      <trkpt lat="43.85522" lon="7.24971">
        <ele>661.1</ele>
        <time>2019-03-10T14:57:51Z</time>
      </trkpt>
      <trkpt lat="43.85509" lon="7.24964">
        <ele>659.9</ele>
        <time>2019-03-10T14:57:55Z</time>
      </trkpt>
      <trkpt lat="43.85496" lon="7.24952">
        <ele>658.3</ele>
        <time>2019-03-10T14:57:59Z</time>
      </trkpt>
      <trkpt lat="43.85483" lon="7.24943">
        <ele>656.8</ele>
        <time>2019-03-10T14:58:03Z</time>
      </trkpt>
      <trkpt lat="43.85473" lon="7.24938">
        <ele>655.7</ele>
        <time>2019-03-10T14:58:07Z</time>
      </trkpt>
      <trkpt lat="43.85459" lon="7.24929">
        <ele>653.7</ele>
        <time>2019-03-10T14:58:11Z</time>
      </trkpt>
      <trkpt lat="43.85439" lon="7.24919">
        <ele>650.6</ele>
        <time>2019-03-10T14:58:15Z</time>
      </trkpt>
      <trkpt lat="43.85425" lon="7.24911">
        <ele>647.7</ele>
        <time>2019-03-10T14:58:19Z</time>
      </trkpt>
      <trkpt lat="43.85416" lon="7.24905">
        <ele>645.6</ele>
        <time>2019-03-10T14:58:23Z</time>
      </trkpt>
      <trkpt lat="43.85416" lon="7.24905">
        <ele>645.6</ele>
        <time>2019-03-10T14:58:27Z</time>
      </trkpt>
      <trkpt lat="43.85411" lon="7.24901">
        <ele>644.6</ele>
        <time>2019-03-10T14:58:31Z</time>
      </trkpt>
      <trkpt lat="43.85409" lon="7.24894">
        <ele>643.5</ele>
        <time>2019-03-10T14:58:35Z</time>
      </trkpt>
      <trkpt lat="43.85408" lon="7.24885">
        <ele>642.4</ele>
        <time>2019-03-10T14:58:39Z</time>
      </trkpt>
      <trkpt lat="43.85401" lon="7.24876">
        <ele>641</ele>
        <time>2019-03-10T14:58:43Z</time>
      </trkpt>
      <trkpt lat="43.85399" lon="7.24867">
        <ele>640.3</ele>
        <time>2019-03-10T14:58:47Z</time>
      </trkpt>
      <trkpt lat="43.8539" lon="7.24864">
        <ele>639.7</ele>
        <time>2019-03-10T14:58:51Z</time>
      </trkpt>
      <trkpt lat="43.8538" lon="7.24864">
        <ele>639.4</ele>
        <time>2019-03-10T14:58:55Z</time>
      </trkpt>
      <trkpt lat="43.85372" lon="7.24871">
        <ele>639.3</ele>
        <time>2019-03-10T14:58:59Z</time>
      </trkpt>
      <trkpt lat="43.85369" lon="7.24887">
        <ele>639.2</ele>
        <time>2019-03-10T14:59:03Z</time>
      </trkpt>
      <trkpt lat="43.85368" lon="7.24902">
        <ele>639</ele>
        <time>2019-03-10T14:59:07Z</time>
      </trkpt>
      <trkpt lat="43.85368" lon="7.24902">
        <ele>639</ele>
        <time>2019-03-10T14:59:11Z</time>
      </trkpt>
      <trkpt lat="43.85366" lon="7.24904">
        <ele>639</ele>
        <time>2019-03-10T14:59:15Z</time>
      </trkpt>
      <trkpt lat="43.85366" lon="7.24908">
        <ele>638.9</ele>
        <time>2019-03-10T14:59:19Z</time>
      </trkpt>
      <trkpt lat="43.85367" lon="7.24911">
        <ele>638.9</ele>
        <time>2019-03-10T14:59:23Z</time>
      </trkpt>
      <trkpt lat="43.85366" lon="7.24914">
        <ele>638.9</ele>
        <time>2019-03-10T14:59:27Z</time>
      </trkpt>
      <trkpt lat="43.85362" lon="7.24922">
        <ele>639.2</ele>
        <time>2019-03-10T14:59:31Z</time>
      </trkpt>
      <trkpt lat="43.85358" lon="7.24927">
        <ele>639.7</ele>
        <time>2019-03-10T14:59:35Z</time>
      </trkpt>
      <trkpt lat="43.85358" lon="7.24927">
        <ele>639.7</ele>
        <time>2019-03-10T14:59:39Z</time>
      </trkpt>
      <trkpt lat="43.85357" lon="7.24928">
        <ele>639.9</ele>
        <time>2019-03-10T14:59:43Z</time>
      </trkpt>
      <trkpt lat="43.85355" lon="7.24931">
        <ele>640.2</ele>
        <time>2019-03-10T14:59:47Z</time>
      </trkpt>
      <trkpt lat="43.85351" lon="7.24941">
        <ele>641.4</ele>
        <time>2019-03-10T14:59:51Z</time>
      </trkpt>
      <trkpt lat="43.85344" lon="7.24951">
        <ele>642.9</ele>
        <time>2019-03-10T14:59:55Z</time>
      </trkpt>
      <trkpt lat="43.85332" lon="7.24968">
        <ele>645.1</ele>
        <time>2019-03-10T14:59:59Z</time>
      </trkpt>
      <trkpt lat="43.85322" lon="7.24982">
        <ele>645.8</ele>
        <time>2019-03-10T15:00:03Z</time>
      </trkpt>
      <trkpt lat="43.85311" lon="7.24978">
        <ele>645.3</ele>
        <time>2019-03-10T15:00:07Z</time>
      </trkpt>
      <trkpt lat="43.85307" lon="7.24972">
        <ele>644.8</ele>
        <time>2019-03-10T15:00:11Z</time>
      </trkpt>
      <trkpt lat="43.85304" lon="7.24967">
        <ele>644.3</ele>
        <time>2019-03-10T15:00:15Z</time>
      </trkpt>
      <trkpt lat="43.853" lon="7.24961">
        <ele>643.2</ele>
        <time>2019-03-10T15:00:19Z</time>
      </trkpt>
      <trkpt lat="43.85294" lon="7.24956">
        <ele>641.8</ele>
        <time>2019-03-10T15:00:23Z</time>
      </trkpt>
      <trkpt lat="43.85288" lon="7.2495">
        <ele>640.2</ele>
        <time>2019-03-10T15:00:27Z</time>
      </trkpt>
      <trkpt lat="43.85283" lon="7.24947">
        <ele>638.7</ele>
        <time>2019-03-10T15:00:31Z</time>
      </trkpt>
      <trkpt lat="43.85268" lon="7.24933">
        <ele>634.9</ele>
        <time>2019-03-10T15:00:35Z</time>
      </trkpt>
      <trkpt lat="43.85244" lon="7.24906">
        <ele>630.5</ele>
        <time>2019-03-10T15:00:39Z</time>
      </trkpt>
      <trkpt lat="43.8522" lon="7.24876">
        <ele>625.2</ele>
        <time>2019-03-10T15:00:43Z</time>
      </trkpt>
      <trkpt lat="43.85188" lon="7.24852">
        <ele>619.7</ele>
        <time>2019-03-10T15:00:47Z</time>
      </trkpt>
      <trkpt lat="43.85155" lon="7.24847">
        <ele>618.8</ele>
        <time>2019-03-10T15:00:51Z</time>
      </trkpt>
      <trkpt lat="43.85155" lon="7.24847">
        <ele>618.8</ele>
        <time>2019-03-10T15:00:55Z</time>
      </trkpt>
      <trkpt lat="43.85155" lon="7.24847">
        <ele>618.8</ele>
        <time>2019-03-10T15:00:59Z</time>
      </trkpt>
      <trkpt lat="43.85155" lon="7.24847">
        <ele>618.8</ele>
        <time>2019-03-10T15:01:03Z</time>
      </trkpt>
      <trkpt lat="43.85155" lon="7.24847">
        <ele>618.8</ele>
        <time>2019-03-10T15:01:07Z</time>
      </trkpt>
      <trkpt lat="43.85155" lon="7.24847">
        <ele>618.8</ele>
        <time>2019-03-10T15:01:11Z</time>
      </trkpt>
      <trkpt lat="43.85155" lon="7.24847">
        <ele>618.8</ele>
        <time>2019-03-10T15:01:15Z</time>
      </trkpt>
      <trkpt lat="43.85155" lon="7.24847">
        <ele>618.8</ele>
        <time>2019-03-10T15:01:19Z</time>
      </trkpt>
      <trkpt lat="43.85155" lon="7.24847">
        <ele>618.8</ele>
        <time>2019-03-10T15:01:23Z</time>
      </trkpt>
      <trkpt lat="43.85155" lon="7.24847">
        <ele>618.8</ele>
        <time>2019-03-10T15:01:27Z</time>
      </trkpt>
      <trkpt lat="43.85155" lon="7.24847">
        <ele>618.8</ele>
        <time>2019-03-10T15:01:31Z</time>
      </trkpt>
      <trkpt lat="43.85155" lon="7.24847">
        <ele>618.8</ele>
        <time>2019-03-10T15:01:35Z</time>
      </trkpt>
      <trkpt lat="43.85155" lon="7.24847">
        <ele>618.8</ele>
        <time>2019-03-10T15:01:39Z</time>
      </trkpt>
      <trkpt lat="43.85155" lon="7.24847">
        <ele>618.8</ele>
        <time>2019-03-10T15:01:43Z</time>
      </trkpt>
      <trkpt lat="43.85155" lon="7.24847">
        <ele>618.8</ele>
        <time>2019-03-10T15:01:47Z</time>
      </trkpt>
      <trkpt lat="43.85155" lon="7.24847">
        <ele>618.8</ele>
        <time>2019-03-10T15:01:51Z</time>
      </trkpt>
      <trkpt lat="43.85155" lon="7.24847">
        <ele>618.8</ele>
        <time>2019-03-10T15:01:55Z</time>
      </trkpt>
      <trkpt lat="43.85155" lon="7.24847">
        <ele>618.8</ele>
        <time>2019-03-10T15:01:59Z</time>
      </trkpt>
      <trkpt lat="43.85155" lon="7.24847">
        <ele>618.8</ele>
        <time>2019-03-10T15:02:03Z</time>
      </trkpt>
      <trkpt lat="43.85136" lon="7.24855">
        <ele>619.9</ele>
        <time>2019-03-10T15:02:07Z</time>
      </trkpt>
      <trkpt lat="43.85133" lon="7.24846">
        <ele>620.3</ele>
        <time>2019-03-10T15:02:11Z</time>
      </trkpt>
      <trkpt lat="43.8513" lon="7.24819">
        <ele>615.4</ele>
        <time>2019-03-10T15:02:15Z</time>
      </trkpt>
      <trkpt lat="43.85139" lon="7.24773">
        <ele>609.2</ele>
        <time>2019-03-10T15:02:19Z</time>
      </trkpt>
      <trkpt lat="43.8516" lon="7.24719">
        <ele>602.7</ele>
        <time>2019-03-10T15:02:23Z</time>
      </trkpt>
      <trkpt lat="43.85187" lon="7.2466">
        <ele>594.4</ele>
        <time>2019-03-10T15:02:27Z</time>
      </trkpt>
      <trkpt lat="43.85209" lon="7.24611">
        <ele>588.3</ele>
        <time>2019-03-10T15:02:31Z</time>
      </trkpt>
      <trkpt lat="43.8521" lon="7.24549">
        <ele>583</ele>
        <time>2019-03-10T15:02:35Z</time>
      </trkpt>
      <trkpt lat="43.85195" lon="7.24498">
        <ele>577.6</ele>
        <time>2019-03-10T15:02:39Z</time>
      </trkpt>
      <trkpt lat="43.85175" lon="7.24445">
        <ele>572.3</ele>
        <time>2019-03-10T15:02:43Z</time>
      </trkpt>
      <trkpt lat="43.85158" lon="7.24384">
        <ele>567.7</ele>
        <time>2019-03-10T15:02:47Z</time>
      </trkpt>
      <trkpt lat="43.85148" lon="7.24321">
        <ele>564.2</ele>
        <time>2019-03-10T15:02:51Z</time>
      </trkpt>
      <trkpt lat="43.85138" lon="7.24264">
        <ele>562.5</ele>
        <time>2019-03-10T15:02:55Z</time>
      </trkpt>
      <trkpt lat="43.85135" lon="7.24217">
        <ele>560.6</ele>
        <time>2019-03-10T15:02:59Z</time>
      </trkpt>
      <trkpt lat="43.85145" lon="7.24177">
        <ele>558.9</ele>
        <time>2019-03-10T15:03:03Z</time>
      </trkpt>
      <trkpt lat="43.85157" lon="7.24136">
        <ele>557</ele>
        <time>2019-03-10T15:03:07Z</time>
      </trkpt>
      <trkpt lat="43.85169" lon="7.24103">
        <ele>554.5</ele>
        <time>2019-03-10T15:03:11Z</time>
      </trkpt>
      <trkpt lat="43.85176" lon="7.24078">
        <ele>553</ele>
        <time>2019-03-10T15:03:15Z</time>
      </trkpt>
      <trkpt lat="43.85191" lon="7.24057">
        <ele>551.3</ele>
        <time>2019-03-10T15:03:19Z</time>
      </trkpt>
      <trkpt lat="43.8521" lon="7.24033">
        <ele>549.4</ele>
        <time>2019-03-10T15:03:23Z</time>
      </trkpt>
      <trkpt lat="43.8523" lon="7.24005">
        <ele>548.4</ele>
        <time>2019-03-10T15:03:27Z</time>
      </trkpt>
      <trkpt lat="43.85234" lon="7.23974">
        <ele>548.3</ele>
        <time>2019-03-10T15:03:31Z</time>
      </trkpt>
      <trkpt lat="43.85231" lon="7.2395">
        <ele>548.5</ele>
        <time>2019-03-10T15:03:35Z</time>
      </trkpt>
      <trkpt lat="43.85227" lon="7.23927">
        <ele>548.9</ele>
        <time>2019-03-10T15:03:39Z</time>
      </trkpt>
      <trkpt lat="43.85225" lon="7.23903">
        <ele>549.3</ele>
        <time>2019-03-10T15:03:43Z</time>
      </trkpt>
      <trkpt lat="43.85222" lon="7.23879">
        <ele>549.8</ele>
        <time>2019-03-10T15:03:47Z</time>
      </trkpt>
      <trkpt lat="43.85218" lon="7.23856">
        <ele>550.1</ele>
        <time>2019-03-10T15:03:51Z</time>
      </trkpt>
      <trkpt lat="43.85216" lon="7.23831">
        <ele>550.3</ele>
        <time>2019-03-10T15:03:55Z</time>
      </trkpt>
      <trkpt lat="43.85213" lon="7.23805">
        <ele>550.3</ele>
        <time>2019-03-10T15:03:59Z</time>
      </trkpt>
      <trkpt lat="43.85211" lon="7.23781">
        <ele>550.2</ele>
        <time>2019-03-10T15:04:03Z</time>
      </trkpt>
      <trkpt lat="43.85196" lon="7.23767">
        <ele>549.9</ele>
        <time>2019-03-10T15:04:07Z</time>
      </trkpt>
      <trkpt lat="43.85181" lon="7.23754">
        <ele>549.4</ele>
        <time>2019-03-10T15:04:11Z</time>
      </trkpt>
      <trkpt lat="43.8516" lon="7.23734">
        <ele>548.3</ele>
        <time>2019-03-10T15:04:15Z</time>
      </trkpt>
      <trkpt lat="43.85142" lon="7.237">
        <ele>546.4</ele>
        <time>2019-03-10T15:04:19Z</time>
      </trkpt>
      <trkpt lat="43.85119" lon="7.2366">
        <ele>543</ele>
        <time>2019-03-10T15:04:23Z</time>
      </trkpt>
      <trkpt lat="43.85099" lon="7.23635">
        <ele>539.9</ele>
        <time>2019-03-10T15:04:27Z</time>
      </trkpt>
      <trkpt lat="43.85092" lon="7.2363">
        <ele>539</ele>
        <time>2019-03-10T15:04:31Z</time>
      </trkpt>
      <trkpt lat="43.85098" lon="7.23623">
        <ele>538.3</ele>
        <time>2019-03-10T15:04:35Z</time>
      </trkpt>
      <trkpt lat="43.85117" lon="7.23613">
        <ele>536.1</ele>
        <time>2019-03-10T15:04:39Z</time>
      </trkpt>
      <trkpt lat="43.85143" lon="7.23599">
        <ele>534.5</ele>
        <time>2019-03-10T15:04:43Z</time>
      </trkpt>
      <trkpt lat="43.85172" lon="7.23577">
        <ele>532.7</ele>
        <time>2019-03-10T15:04:47Z</time>
      </trkpt>
      <trkpt lat="43.85196" lon="7.2355">
        <ele>530.4</ele>
        <time>2019-03-10T15:04:51Z</time>
      </trkpt>
      <trkpt lat="43.8522" lon="7.2351">
        <ele>528.7</ele>
        <time>2019-03-10T15:04:55Z</time>
      </trkpt>
      <trkpt lat="43.85251" lon="7.23468">
        <ele>526.8</ele>
        <time>2019-03-10T15:04:59Z</time>
      </trkpt>
      <trkpt lat="43.85286" lon="7.23442">
        <ele>526.6</ele>
        <time>2019-03-10T15:05:03Z</time>
      </trkpt>
      <trkpt lat="43.85312" lon="7.23407">
        <ele>525.8</ele>
        <time>2019-03-10T15:05:07Z</time>
      </trkpt>
      <trkpt lat="43.85335" lon="7.2337">
        <ele>524.6</ele>
        <time>2019-03-10T15:05:11Z</time>
      </trkpt>
      <trkpt lat="43.85358" lon="7.23335">
        <ele>520.5</ele>
        <time>2019-03-10T15:05:15Z</time>
      </trkpt>
      <trkpt lat="43.85379" lon="7.233">
        <ele>517.4</ele>
        <time>2019-03-10T15:05:19Z</time>
      </trkpt>
      <trkpt lat="43.85405" lon="7.23276">
        <ele>515.6</ele>
        <time>2019-03-10T15:05:23Z</time>
      </trkpt>
      <trkpt lat="43.85431" lon="7.23255">
        <ele>515.8</ele>
        <time>2019-03-10T15:05:27Z</time>
      </trkpt>
      <trkpt lat="43.85453" lon="7.23236">
        <ele>516.2</ele>
        <time>2019-03-10T15:05:31Z</time>
      </trkpt>
      <trkpt lat="43.8548" lon="7.23218">
        <ele>517.7</ele>
        <time>2019-03-10T15:05:35Z</time>
      </trkpt>
      <trkpt lat="43.85504" lon="7.23202">
        <ele>518.6</ele>
        <time>2019-03-10T15:05:39Z</time>
      </trkpt>
      <trkpt lat="43.85529" lon="7.23183">
        <ele>519.5</ele>
        <time>2019-03-10T15:05:43Z</time>
      </trkpt>
      <trkpt lat="43.85553" lon="7.23164">
        <ele>520.4</ele>
        <time>2019-03-10T15:05:47Z</time>
      </trkpt>
      <trkpt lat="43.85578" lon="7.23146">
        <ele>521.3</ele>
        <time>2019-03-10T15:05:51Z</time>
      </trkpt>
      <trkpt lat="43.85604" lon="7.23129">
        <ele>522.2</ele>
        <time>2019-03-10T15:05:55Z</time>
      </trkpt>
      <trkpt lat="43.8563" lon="7.23121">
        <ele>523.1</ele>
        <time>2019-03-10T15:05:59Z</time>
      </trkpt>
      <trkpt lat="43.85656" lon="7.23118">
        <ele>524</ele>
        <time>2019-03-10T15:06:03Z</time>
      </trkpt>
      <trkpt lat="43.8568" lon="7.23104">
        <ele>524.4</ele>
        <time>2019-03-10T15:06:07Z</time>
      </trkpt>
      <trkpt lat="43.85702" lon="7.2308">
        <ele>524.2</ele>
        <time>2019-03-10T15:06:11Z</time>
      </trkpt>
      <trkpt lat="43.85724" lon="7.23059">
        <ele>523.9</ele>
        <time>2019-03-10T15:06:15Z</time>
      </trkpt>
      <trkpt lat="43.85749" lon="7.23043">
        <ele>523.7</ele>
        <time>2019-03-10T15:06:19Z</time>
      </trkpt>
      <trkpt lat="43.85775" lon="7.23036">
        <ele>523.4</ele>
        <time>2019-03-10T15:06:23Z</time>
      </trkpt>
      <trkpt lat="43.85804" lon="7.23038">
        <ele>523.2</ele>
        <time>2019-03-10T15:06:27Z</time>
      </trkpt>
      <trkpt lat="43.85833" lon="7.23041">
        <ele>523.1</ele>
        <time>2019-03-10T15:06:31Z</time>
      </trkpt>
      <trkpt lat="43.85861" lon="7.23042">
        <ele>522.9</ele>
        <time>2019-03-10T15:06:35Z</time>
      </trkpt>
      <trkpt lat="43.8589" lon="7.23036">
        <ele>522.7</ele>
        <time>2019-03-10T15:06:39Z</time>
      </trkpt>
      <trkpt lat="43.85914" lon="7.23018">
        <ele>522.3</ele>
        <time>2019-03-10T15:06:43Z</time>
      </trkpt>
      <trkpt lat="43.85932" lon="7.22995">
        <ele>522</ele>
        <time>2019-03-10T15:06:47Z</time>
      </trkpt>
      <trkpt lat="43.8595" lon="7.22975">
        <ele>521.9</ele>
        <time>2019-03-10T15:06:51Z</time>
      </trkpt>
      <trkpt lat="43.85967" lon="7.22953">
        <ele>521.9</ele>
        <time>2019-03-10T15:06:55Z</time>
      </trkpt>
      <trkpt lat="43.85984" lon="7.22937">
        <ele>522.1</ele>
        <time>2019-03-10T15:06:59Z</time>
      </trkpt>
      <trkpt lat="43.86002" lon="7.22919">
        <ele>521.8</ele>
        <time>2019-03-10T15:07:03Z</time>
      </trkpt>
      <trkpt lat="43.86023" lon="7.22912">
        <ele>521.2</ele>
        <time>2019-03-10T15:07:07Z</time>
      </trkpt>
      <trkpt lat="43.86048" lon="7.2291">
        <ele>520</ele>
        <time>2019-03-10T15:07:11Z</time>
      </trkpt>
      <trkpt lat="43.86068" lon="7.22923">
        <ele>519.8</ele>
        <time>2019-03-10T15:07:15Z</time>
      </trkpt>
      <trkpt lat="43.86074" lon="7.22952">
        <ele>520.7</ele>
        <time>2019-03-10T15:07:19Z</time>
      </trkpt>
    </trkseg>
  </trk>
</gpx>